     2.10           OBSERVATION DATA    G (GPS)             RINEX VERSION / TYPE
teqc 2005May6 SOPAC 20050707 00:32:51UTC                    PGM / RUN BY / DATE
Linux 2.4.20-8|Pentium IV|gcc|Linux|486/DX+                 COMMENT
BIT 2 OF LLI FLAGS DATA COLLECTED UNDER A/S CONDITION       COMMENT
HPGN CA 02 29                                               MARKER NAME
0229                                                        MARKER NUMBER
Mike Simmons                                                OBSERVER / AGENCY
0220160680 TRIMBLE 4700 1.30                                REC # / TYPE / VERS
0220185535 TRM33429.00+GP NONE                              ANT # / TYPE
 -2609475.0000 -4083963.0000  4133044.0000                  APPROX POSITION XYZ
        2.0000        0.0000        0.0000                  ANTENNA: DELTA H/E/N
     1     1                                                WAVELENGTH FACT L1/2
     6    L1    L2    C1    P2    P1    D1                  # / TYPES OF OBSERV
    15.0000                                                 INTERVAL
Northern California Height Modernization 2004               COMMENT
                                                            COMMENT
SOPAC - Scripps Orbit and Permanent Array Center            COMMENT
IGPP - Institute of Geophysics and Planetary Physics        COMMENT
SIO - Scripps Institution of Oceanography                   COMMENT
UCSD - University of California, San Diego                  COMMENT
                                                            COMMENT
email: archive@gpsmail.ucsd.edu                             COMMENT
ftp://garner.ucsd.edu                                       COMMENT
http://sopac.ucsd.edu                                       COMMENT
                                                            COMMENT
                                                            COMMENT
Approximate Lat, Lon : 40.648, -122.577                     COMMENT
                                                            COMMENT
SNR is mapped to RINEX snr flag value [0-9]                 COMMENT
L1 & L2: 2-19 dBHz = 1, 20-27 dBHz = 2, 28-31 dBHz = 3      COMMENT
32-35 dBHz = 4, 36-38 dBHz = 5, 39-41 dBHz = 6              COMMENT
42-44 dBHz = 7, 45-48 dBHz = 8, >= 49 dBHz = 9              COMMENT
  2004     9    10    15     1    0.0000000     GPS         TIME OF FIRST OBS
                                                            END OF HEADER
 04  9 10 15  1  0.0000000  0  7G 1G11G14G15G19G22G25
   -120908.60259    -88901.84055  22474914.3134   22474911.2194
      2734.9064
    -90770.75459    -66447.75956  22014580.1094   22014574.7504
      2057.9384
     74777.42659     47157.04557  21039003.6024   21038997.7774
     -1718.0784
    154070.88458     86901.87254  23286491.4144   23286489.5394
     -3595.6254
    104840.61158     58429.59654  23503955.4304   23503949.3954
     -2472.4694
     92907.09259     50771.56955  22857973.1254   22857966.7304
     -2157.1254
   -123429.96859    -89264.68056  22180207.8754   22180203.9144
      2816.7504
 04  9 10 15  1 15.0000000  0  7G 1G11G14G15G19G22G25
   -161879.07948   -120826.88945  22467117.9454   22467114.5434
      2727.7504
   -121568.04349    -90445.66846  22008719.5164   22008714.5824
      2048.3444
    100605.21449     67282.56747  21043918.6024   21043912.8204
     -1725.6724
    208048.77848    128962.53044  23296763.5704   23296761.6134
     -3601.4534
    141975.81348     87366.07844  23511022.6334   23511016.6804
     -2478.9534
    125300.10249     76012.80445  22864136.4774   22864131.2154
     -2161.9844
   -165621.49248   -122141.16846  22172178.5864   22172175.0984
      2808.8444
 04  9 10 15  1 30.0000000  0  7G 1G11G14G15G19G22G25
   -202739.01048   -152665.80045  22459342.6334   22459339.0124
      2719.8914
   -152218.02549   -114328.78246  22002887.2034   22002881.4884
      2038.0164
    126550.89449     87499.95547  21048856.2504   21048851.1484
     -1734.0944
    262116.31248    171093.00544  23307052.1804   23307050.2034
     -3607.9064
    179212.88448    116381.93644  23518108.6564   23518103.8364
     -2486.3284
    157769.94448    101313.94845  22870315.6414   22870310.1414
     -2167.6874
   -207690.23748   -154922.00746  22164173.9064   22164170.0124
      2800.0164
 04  9 10 15  1 45.0000000  0  7G 1G11G14G15G19G22G25
   -243468.70748   -184403.22345  22451591.9844   22451588.8204
      2710.8284
   -182700.83849   -138081.63746  21997086.5704   21997080.6454
      2026.4384
    152633.85049    107824.31147  21053819.3284   21053813.9384
     -1743.5784
    316292.69848    213308.31644  23317362.0634   23317359.9804
     -3615.5314
    216570.93048    145492.08144  23525217.2734   23525212.3244
     -2494.7504
    190336.13448    126690.15345  22876512.8444   22876507.0434
     -2174.4374
   -249616.46648   -187591.77546  22156195.4614   22156191.6844
      2790.2194
 04  9 10 15  2  0.0000000  0  7G 1G11G14G15G19G22G25
   -284057.03149   -216030.49645  22443868.4304   22443864.7074
      2700.9384
   -213005.24549   -161695.48246  21991319.2734   21991314.5354
      2014.1094
    178864.90549    128264.07447  21058810.9774   21058805.4344
     -1753.8914
    370588.71948    255616.86644  23327693.5004   23327692.0164
     -3623.9224
    254060.67348    174704.84544  23532351.4844   23532346.1174
     -2503.9224
    223009.84848    152150.12245  22882730.8754   22882724.9804
     -2182.0944
   -291388.86149   -220141.67946  22148246.4614   22148242.5594
      2779.3754
 04  9 10 15  2 15.0000000  0  7G 1G11G14G15G19G22G25
   -324492.65849   -247538.78845  22436173.9064   22436170.1254
      2690.2814
   -243119.92149   -185161.47746  21985589.6024   21985583.8754
      2000.9844
    205254.97649    148827.73947  21063832.9844   21063827.7074
     -1764.8914
    425015.31248    298027.14544  23338051.2814   23338049.1254
     -3633.0624
    291692.99348    204028.70044  23539513.4774   23539506.7584
     -2513.8444
    255802.27748    177702.61645  22888970.9224   22888965.5314
     -2190.5004
   -332995.79849   -252562.66046  22140328.9454   22140324.9144
      2767.9694
 04  9 10 15  2 30.0000000  0  7G 1G11G14G15G19G22G25
   -364770.94049   -278924.44345  22428509.0554   22428505.9224
      2679.7194
   -273039.90249   -208475.75646  21979895.6414   21979889.6174
      1987.8594
    231808.40749    169518.69747  21068886.0004   21068880.8364
     -1775.9224
    479576.81848    340542.54943  23348433.5084   23348431.7544
     -3642.2034
    329471.98848    233466.83444  23546701.6254   23546696.0394
     -2523.7504
    288717.89548    203351.09745  22895234.5164   22895229.3794
     -2198.7504
   -374432.43149   -284850.93746  22132444.1804   22132439.7974
      2756.5164
 04  9 10 15  2 45.0000000  0  7G 1G11G14G15G19G22G25
   -404889.30649   -310185.51245  22420874.8134   22420871.3874
      2669.3444
   -302762.42449   -231636.17046  21974239.2734   21974233.8914
      1975.0004
    258527.48649    190338.74347  21073970.1644   21073964.8874
     -1786.6874
    534275.40748    383164.74643  23358842.6024   23358841.2304
     -3651.0004
    367399.78348    263020.94144  23553919.2344   23553914.0234
     -2533.4534
    321759.26148    229097.56045  22901522.5164   22901516.3634
     -2206.8444
   -415695.74049   -317004.16246  22124591.7894   22124587.2234
      2745.2034
 04  9 10 15  3  0.0000000  0  7G 1G11G14G15G19G22G25
   -444849.13449   -341323.03845  22413270.7734   22413267.1804
      2658.5004
   -332288.71049   -254643.68446  21968620.9534   21968615.4654
      1961.6094
    285410.35949    211286.41347  21079086.0234   21079080.6134
     -1797.9064
    589109.29248    425892.42244  23369277.3204   23369275.5434
     -3660.3284
    405474.48948    292689.51244  23561164.5554   23561159.7384
     -2543.4064
    354924.72048    254940.72445  22907833.7034   22907827.5354
     -2215.4064
   -456787.03448   -349023.32646  22116772.1954   22116768.5664
      2733.4844
 04  9 10 15  3 15.0000000  0  7G 1G11G14G15G19G22G25
   -484649.95749   -372336.66145  22405696.7974   22405693.4734
      2648.4064
   -361618.30649   -277497.92446  21963039.8204   21963034.4384
      1949.1094
    312457.25349    232361.89647  21084232.5634   21084227.3284
     -1808.3124
    644078.56948    468725.55643  23379737.9774   23379735.8094
     -3668.7974
    443696.11848    322472.57944  23568438.6174   23568433.0704
     -2552.6874
    388214.76648    280880.99145  22914168.2894   22914162.5984
     -2223.1724
   -497705.78149   -380908.05646  22108985.8444   22108981.8554
      2722.4844
 04  9 10 15  3 30.0000000  0  7G 1G11G14G15G19G22G25
   -524298.85848   -403231.90245  22398152.0394   22398148.7114
      2638.0784
   -390758.11549   -300204.29346  21957494.5784   21957488.8984
      1936.2664
    339660.64249    253559.31747  21089409.3674   21089404.2344
     -1818.8914
    699175.72348    511658.35944  23390222.0474   23390220.2034
     -3677.4844
    482057.10648    352364.20344  23575738.3754   23575733.0394
     -2562.1414
    421622.20749    306912.70545  22920525.6174   22920519.8794
     -2231.1564
   -538458.79248   -412663.63946  22101230.6804   22101226.0394
      2711.2194
 04  9 10 15  3 45.0000000  0  7G 1G11G14G15G19G22G25
   -563797.35749   -434009.96645  22390635.9694   22390632.2384
      2628.3754
   -419709.45249   -322763.78846  21951985.5004   21951979.8164
      1923.9694
    367018.77949    274877.32447  21094615.6644   21094609.6724
     -1828.8594
    754398.86148    554689.33344  23400730.9844   23400728.5474
     -3685.5624
    520555.36248    382362.82344  23583064.3284   23583058.2894
     -2571.0004
    455145.36348    333034.58745  22926905.2344   22926899.3714
     -2238.5624
   -579047.45048   -444291.16446  22093507.1024   22093502.6604
      2700.5634
 04  9 10 15  4  0.0000000  0  7G 1G11G14G15G19G22G25
   -603147.80549   -464672.63945  22383147.4384   22383144.4574
      2618.6094
   -448474.55449   -345178.16646  21946511.8834   21946505.5904
      1911.5944
    394528.88549    296313.74847  21099850.6094   21099845.3054
     -1838.8754
    809745.31348    597816.37143  23411263.3134   23411261.2464
     -3693.6724
    559188.05148    412466.19344  23590415.5704   23590409.8364
     -2579.7814
    488781.78948    359244.73945  22933305.6414   22933300.1484
     -2246.0004
   -619473.76449   -475792.16346  22085813.9844   22085809.4884
      2689.9064
 04  9 10 15  4 15.0000000  0  7G 1G11G14G15G19G22G25
   -642355.74049   -495224.27645  22375686.3754   22375683.0634
      2609.0944
   -477058.93249   -367451.72446  21941072.5634   21941066.7074
      1899.5634
    422185.13649    317864.05947  21105113.3524   21105108.0124
     -1848.6094
    865209.14948    641034.91843  23421817.6094   23421815.1644
     -3701.3914
    597949.27048    442669.68544  23597791.4774   23597786.0234
     -2588.3284
    522525.69848    385538.65745  22939726.9384   22939720.9964
     -2253.1254
   -659743.10749   -507170.87746  22078150.3524   22078146.3204
      2679.3914
 04  9 10 15  4 30.0000000  0  7G 1G11G14G15G19G22G25
   -681422.57848   -525665.96745  22368252.2584   22368248.9884
      2599.9064
   -505463.79849   -389585.39446  21935667.0944   21935661.2584
      1887.8594
    449985.76649    339526.85947  21110403.5394   21110398.2504
     -1857.9534
    920788.57548    684343.50343  23432392.9224   23432391.3754
     -3708.9844
    636837.03348    472971.84344  23605191.7894   23605186.2544
     -2596.5624
    556375.60348    411915.16445  22946168.7504   22946162.7624
     -2259.9694
   -699856.82948   -538428.30146  22070518.0314   22070513.5044
      2669.2664
 04  9 10 15  4 45.0000000  0  7G 1G11G14G15G19G22G25
   -720350.87449   -555999.70645  22360844.9224   22360840.9224
      2590.8594
   -533691.42749   -411580.96446  21930294.8134   21930289.3014
      1876.1724
    477927.89049    361299.91147  21115721.3054   21115715.9024
     -1867.2664
    976480.60248    727739.82443  23442991.4844   23442989.7114
     -3716.2974
    675848.34448    503370.21644  23612615.4614   23612610.0434
     -2604.6724
    590328.89348    438372.21945  22952629.5864   22952624.3794
     -2266.7974
   -739817.06649   -569566.14646  22062913.1174   22062909.0044
      2659.1094
 04  9 10 15  5  0.0000000  0  7G 1G11G14G15G19G22G25
   -759144.24649   -586228.30645  22353462.1414   22353458.3714
      2581.7814
   -561745.40149   -433441.21646  21924956.8834   21924951.1954
      1864.5634
    506007.51849    383180.13047  21121064.3054   21121059.4734
     -1876.4374
   1032281.37148    771220.88543  23453610.7274   23453607.6604
     -3723.5624
    714979.10248    533861.69644  23620062.6024   23620056.4774
     -2612.6874
    624381.94349    464907.00845  22959110.1484   22959103.9774
     -2273.4064
   -779627.34749   -600587.12946  22055337.4304   22055333.5434
      2649.1254
 04  9 10 15  5 15.0000000  0  7G 1G11G14G15G19G22G25
   -797809.20449   -616356.84045  22346104.4534   22346101.0554
      2573.3754
   -589632.06949   -455171.08946  21919650.3204   21919645.0394
      1853.5164
    534217.79549    405162.13447  21126432.6724   21126427.4694
     -1885.0474
   1088183.97948    814781.31243  23464247.9774   23464246.3594
     -3730.2034
    754222.31748    564440.79044  23627528.9694   23627523.6524
     -2619.9064
    658527.96649    491514.27545  22965607.4064   22965602.1134
     -2279.4534
   -819294.04149   -631496.21746  22047789.0554   22047785.6054
      2639.7194
 04  9 10 15  5 30.0000000  0  7G 1G11G14G15G19G22G25
   -836347.09848   -646386.35145  22338771.3364   22338767.8094
      2565.0474
   -617352.82549   -476771.70046  21914375.1334   21914369.3484
      1842.5784
    562557.02549    427244.62947  21131825.1094   21131820.3634
     -1893.5784
   1144186.58748    858419.65243  23474904.9384   23474903.1024
     -3736.8124
    793576.24747    595106.15444  23635018.6174   23635012.6484
     -2627.2194
    692765.60249    518192.89745  22972122.9614   22972116.6954
     -2285.5004
   -858818.14648   -662294.21146  22040267.6724   22040264.0664
      2630.2194
 04  9 10 15  5 45.0000000  0  7G 1G11G14G15G19G22G25
   -874758.36448   -676317.19845  22331461.2034   22331457.9384
      2556.5164
   -644907.81949   -498243.13246  21909131.4614   21909126.1644
      1831.5314
    591024.35049    449426.94047  21137242.1174   21137237.4184
     -1902.0164
   1200288.39048    902135.31243  23485580.7664   23485579.1054
     -3743.4064
    833039.79348    625856.93544  23642528.0784   23642523.4654
     -2634.5004
    727094.17149    544942.39945  22978655.8914   22978649.8984
     -2291.4844
   -898199.98248   -692981.35046  22032773.4064   22032770.4494
      2620.7504
 04  9 10 15  6  0.0000000  0  7G 1G11G14G15G19G22G25
   -913048.73649   -706153.84645  22324175.6174   22324171.7974
      2548.7034
   -672302.62649   -519589.74246  21903918.2504   21903912.9384
      1821.0784
    619613.74649    471704.36847  21142683.0554   21142677.7774
     -1909.9844
   1256483.31748    945923.52543  23496274.6414   23496272.2304
     -3749.3444
    872606.77948    656688.32444  23650057.7114   23650053.4924
     -2641.1414
    761507.86748    571758.21245  22985204.6414   22985198.2344
     -2297.0474
   -937445.00449   -723561.86446  22025305.7734   22025301.8794
      2611.7814
 04  9 10 15  6 15.0000000  0  7G 1G11G14G15G19G22G25
   -951217.39648   -735895.65045  22316911.7734   22316908.8324
      2540.6094
   -699536.21749   -540810.73846  21898735.9924   21898730.4384
      1810.3134
    648325.72249    494077.31147  21148146.5784   21148141.3524
     -1918.1094
   1312771.79248    989784.58743  23506985.9774   23506983.9804
     -3755.5164
    912277.68648    687600.66944  23657606.8524   23657601.8094
     -2648.0164
    796007.47449    598640.96345  22991769.0864   22991763.7624
     -2302.6874
   -976552.10049   -754034.92346  22017863.8834   22017860.2504
      2602.6414
 04  9 10 15  6 30.0000000  0  7G 1G11G14G15G19G22G25
   -989266.96548   -765544.66545  22309671.6334   22309668.1414
      2532.6564
   -726611.00549   -561907.99346  21893584.3364   21893578.2544
      1799.7194
    677157.44049    516543.56547  21153633.0864   21153627.9264
     -1926.1564
   1369150.91447   1033716.36143  23517714.9694   23517712.4064
     -3761.6874
    952049.40648    718591.60043  23665174.9144   23665169.6994
     -2654.8594
    830590.29049    625588.57745  22998350.2734   22998345.3484
     -2308.3284
  -1015523.62948   -784402.34146  22010447.9454   22010443.6994
      2593.5164
 04  9 10 15  6 45.0000000  0  7G 1G11G14G15G19G22G25
  -1027200.49248   -795103.24945  22302453.0004   22302449.5984
      2525.0944
   -753530.12449   -582883.93846  21888461.1954   21888455.6954
      1789.4534
    706105.32949    539100.33147  21159142.3364   21159136.6214
     -1933.7344
   1425617.10248   1077715.93443  23528459.2114   23528457.6294
     -3767.2974
    991918.15747    749658.13043  23672761.7894   23672755.9844
     -2661.1414
    865253.09649    652598.50445  23004946.4614   23004940.6764
     -2313.4844
  -1054362.59449   -814666.47146  22003056.8284   22003052.8094
      2584.7974
 04  9 10 15  7  0.0000000  0  7G 1G11G14G15G19G22G25
  -1065019.73649   -824572.78545  22295256.4064   22295252.8164
      2517.4534
   -780295.02949   -603739.71846  21883368.0474   21883362.4694
      1779.2344
    735167.41849    561746.09447  21164672.0164   21164666.8164
     -1941.2814
   1482168.41647   1121781.83143  23539220.7424   23539219.0394
     -3772.8444
   1031881.96747    780798.72743  23680365.6724   23680360.4024
     -2667.3914
    899994.05949    679669.34045  23011557.4064   23011551.9734
     -2318.6564
  -1093070.55049   -844828.50546  21995691.4064   21995687.0944
      2576.1724
 04  9 10 15  7 15.0000000  0  7G 1G11G14G15G19G22G25
  -1102724.70949   -853953.27445  22288081.2194   22288077.2544
      2509.7814
   -806905.58049   -624475.22046  21878304.2894   21878298.9534
      1768.8754
    764343.39349    584480.60947  21170224.4144   21170218.7464
     -1948.8124
   1538804.48947   1165913.78942  23549998.0084   23549996.6254
     -3778.6254
   1071940.22347    812012.93543  23687989.1724   23687983.0984
     -2673.7664
    934813.10349    706801.01145  23018183.2664   23018178.0084
     -2323.9224
  -1131647.31049   -874888.31246  21988350.2274   21988346.3364
      2567.4224
 04  9 10 15  7 30.0000000  0  7G 1G11G14G15G19G22G25
  -1140319.44849   -883247.87045  22280927.0314   22280923.0984
      2502.7034
   -833365.76049   -645093.54646  21873269.0084   21873263.5904
      1759.0784
    793628.79249    607300.37347  21175797.0784   21175791.7624
     -1955.9844
   1595520.77148   1210108.23943  23560791.1564   23560789.7814
     -3783.7344
   1112088.50648    843297.28644  23695629.5164   23695624.1684
     -2679.4844
    969706.04049    733990.27345  23024823.5634   23024818.0554
     -2328.5624
  -1170096.53749   -904848.74146  21981033.5474   21981029.8094
      2559.0634
 04  9 10 15  7 45.0000000  0  7G 1G11G14G15G19G22G25
  -1177810.54949   -912461.71245  22273793.0394   22273789.0004
      2495.9384
   -859682.09449   -665599.79346  21868261.2814   21868255.8284
      1749.5944
    823016.61149    630199.96147  21181389.2034   21181384.4884
     -1962.5624
   1652310.29747   1254359.77343  23571597.5864   23571596.1914
     -3788.3594
   1152319.70448    874646.22844  23703285.7974   23703279.9104
     -2684.8284
   1004666.17749    761231.88945  23031476.4224   23031470.1134
     -2332.9064
  -1208424.67849   -934714.81446  21973740.0004   21973735.9494
      2551.1254
 04  9 10 15  8  0.0000000  0  7G 1G11G14G15G19G22G25
  -1215195.38848   -941592.75045  22266678.2274   22266675.2814
      2488.7664
   -885851.67549   -685991.68446  21863281.2424   21863275.8794
      1739.7194
    852509.35249    653181.29347  21187001.3134   21186997.0944
     -1969.7194
   1709175.32147   1298670.11543  23582418.8594   23582417.4414
     -3793.4694
   1192636.00448    906061.50143  23710957.3674   23710952.0164
     -2690.5624
   1039695.98749    788527.79845  23038142.5394   23038136.2304
     -2337.6724
  -1246628.85549   -964484.29346  21966470.0394   21966465.8984
      2542.7974
 04  9 10 15  8 15.0000000  0  7G 1G11G14G15G19G22G25
  -1252473.62848   -970640.73745  22259584.4924   22259580.9304
      2481.6564
   -911874.02849   -706268.85146  21858329.3914   21858323.7974
      1730.0004
    882106.96949    676244.34647  21192633.9844   21192628.6454
     -1976.5784
   1766115.83348   1343039.29743  23593254.4454   23593253.2464
     -3798.5314
   1233037.24948    937542.97744  23718644.7194   23718640.4494
     -2696.2034
   1074795.71949    815878.17445  23044821.1254   23044815.6524
     -2342.2034
  -1284708.58348   -994156.80646  21959223.9384   21959219.8014
      2534.5634
 04  9 10 15  8 30.0000000  0  7G 1G11G14G15G19G22G25
  -1289647.32448   -999607.25045  22252510.8754   22252507.0234
      2474.8594
   -937751.08849   -726432.79946  21853405.1954   21853399.7034
      1720.4064
    911807.02649    699387.23447  21198285.5704   21198280.4574
     -1983.3124
   1823129.35247   1387465.39242  23604103.5004   23604101.8914
     -3803.2034
   1273520.95847    969088.65343  23726348.1174   23726343.3874
     -2701.5314
   1109963.22248    843281.37945  23051513.3364   23051507.7974
     -2346.6414
  -1322665.64648  -1023733.72046  21952000.7894   21951997.1134
      2526.5474
 04  9 10 15  8 45.0000000  0  7G 1G11G14G15G19G22G25
  -1326718.94249  -1028494.21945  22245456.2894   22245452.7854
      2467.9694
   -963485.36649   -746485.50046  21848508.3054   21848502.4804
      1710.8284
    941606.70149    722607.73347  21203956.3134   21203950.9184
     -1990.0624
   1880213.10647   1431946.17342  23614966.2814   23614964.5904
     -3808.0314
   1314084.04647   1000696.24843  23734067.5004   23734062.3914
     -2706.8754
   1145195.90248    870735.36345  23058217.3204   23058212.5354
     -2351.0624
  -1360502.45049  -1053216.93246  21944800.8984   21944796.9064
      2518.3914
 04  9 10 15  9  0.0000000  0  7G 1G11G14G15G19G22G25
  -1363687.29749  -1057300.73045  22238421.8134   22238418.1954
      2460.8754
   -989075.29849   -766425.71046  21843638.7194   21843632.6914
      1700.9224
    971506.87049    745906.55647  21209646.0704   21209640.5354
     -1996.9224
   1937367.85247   1476482.28643  23625842.4384   23625840.3954
     -3812.9694
   1354727.30547   1032366.27743  23741802.2194   23741797.1764
     -2712.4844
   1180494.95848    898241.07345  23064935.0164   23064929.5394
     -2355.6874
  -1398217.58649  -1082605.34346  21937624.0554   21937619.5944
      2510.0314
 04  9 10 15  9 15.0000000  0  7G 1G11G14G15G19G22G25
  -1400551.55849  -1086026.11546  22231406.4774   22231403.3484
      2454.1414
  -1014519.99949   -786252.76546  21838797.0634   21838791.4344
      1691.4694
   1001508.04649    769284.06747  21215354.9224   21215350.2304
     -2003.4534
   1994594.04847   1521074.09342  23636732.4844   23636730.6374
     -3817.4844
   1395451.03348   1064099.03243  23749552.0784   23749546.3444
     -2717.5004
   1215860.93148    925798.92445  23071665.0634   23071660.3674
     -2359.9374
  -1435810.10349  -1111898.21446  21930470.1094   21930465.5824
      2502.0784
 04  9 10 15  9 30.0000000  0  7G 1G11G14G15G19G22G25
  -1437312.37449  -1114670.90946  22224411.3594   22224407.4454
      2447.3754
  -1039819.94349   -805967.01946  21833982.1254   21833977.0634
      1681.9224
   1031609.29649    792739.56647  21221083.3754   21221078.3754
     -2010.0474
   2051890.77247   1565720.82943  23647635.5314   23647634.2154
     -3822.0474
   1436254.24748   1095893.70443  23757316.3594   23757311.2384
     -2722.8444
   1251293.26948    953408.48745  23078408.1024   23078402.2934
     -2364.3444
  -1473280.28449  -1141095.76146  21923339.3134   21923335.3094
      2493.9694
 04  9 10 15  9 45.0000000  0  7G 1G11G14G15G19G22G25
  -1473974.69649  -1143238.95545  22217434.7734   22217430.9454
      2440.7194
  -1064980.09849   -825572.33946  21829194.6884   21829188.8834
      1672.5634
   1061805.15449    816268.78847  21226829.0634   21226824.0274
     -2016.2974
   2109252.68447   1610418.39643  23658551.8984   23658550.1374
     -3826.4374
   1477131.35848   1127745.97643  23765095.0084   23765090.4064
     -2727.6564
   1286786.68948    981065.64345  23085161.6804   23085156.8554
     -2368.4224
  -1510632.97749  -1170201.73746  21916231.5634   21916227.6374
      2486.1564
 04  9 10 15 10  0.0000000  0  7G 1G11G14G15G19G22G25
  -1510535.59649  -1171727.96345  22210477.2584   22210473.6134
      2434.2034
  -1089997.31849   -845066.29246  21824434.0164   21824428.6484
      1663.2194
   1092098.31749    839873.83547  21232593.6644   21232588.6024
     -2022.5784
   2166682.33147   1655168.71343  23669480.2734   23669479.1844
     -3830.7034
   1518084.93148   1159657.82143  23772888.2814   23772883.3524
     -2732.5624
   1322344.14548   1008772.72245  23091928.6024   23091922.7584
     -2372.4534
  -1547865.03949  -1199213.72246  21909146.6094   21909142.5354
      2478.2344
 04  9 10 15 10 15.0000000  0  7G 1G11G14G15G19G22G25
  -1546999.94749  -1200141.72345  22203538.2424   22203534.7734
      2427.5634
  -1114876.26749   -864452.49347  21819699.8834   21819694.1684
      1653.7974
   1122483.63849    863550.68647  21238376.0634   21238370.7974
     -2029.0004
   2224174.45348   1699967.71943  23680421.1484   23680419.7704
     -3835.0164
   1559109.55848   1191625.02443  23780695.1174   23780690.4844
     -2737.5784
   1357960.72848   1036525.87345  23098705.5314   23098700.2894
     -2376.5944
  -1584981.02749  -1228135.26046  21902083.4844   21902079.8714
      2470.3284
 04  9 10 15 10 30.0000000  0  7G 1G11G14G15G19G22G25
  -1583363.49449  -1228476.95645  22196618.6174   22196614.7934
      2421.0164
  -1139612.59849   -883727.56246  21814992.6804   21814987.0044
      1644.5634
   1152965.05849    887302.43247  21244176.2584   21244171.1724
     -2035.1874
   2281732.85048   1744818.38743  23691373.9614   23691373.1024
     -3839.2814
   1600209.12548   1223650.64543  23788516.6724   23788510.7074
     -2742.2344
   1393640.52648   1064328.27345  23105495.7344   23105489.7114
     -2380.6094
  -1621976.63649  -1256962.99746  21895043.3364   21895039.6214
      2462.5634
 04  9 10 15 10 45.0000000  0  7G 1G11G14G15G19G22G25
  -1619627.26249  -1256734.41945  22189717.2504   22189713.9344
      2414.3594
  -1164207.17449   -902892.17446  21810312.5704   21810306.1884
      1635.0004
   1183541.24749    911128.00247  21249995.2194   21249989.9494
     -2041.4534
   2339356.40148   1789719.79443  23702339.0004   23702338.3164
     -3843.5784
   1641382.18947   1255733.51843  23796350.7584   23796345.4384
     -2747.1414
   1429382.53548   1092179.15545  23112297.0474   23112291.8324
     -2384.7194
  -1658852.53349  -1285697.44246  21888026.1724   21888022.5634
      2454.5474
 04  9 10 15 11  0.0000000  0  7G 1G11G14G15G19G22G25
  -1655795.47749  -1284917.44546  22182834.9694   22182831.6214
      2407.8134
  -1188663.98949   -921949.44146  21805658.6804   21805652.5004
      1625.6564
   1214207.69049    935023.91947  21255830.7814   21255825.0474
     -2047.6254
   2397040.46748   1834668.37543  23713316.7034   23713315.1334
     -3847.8444
   1682623.89447   1287869.87343  23804199.1484   23804193.9774
     -2751.9534
   1465182.41348   1120075.10845  23119109.8134   23119104.3284
     -2388.7504
  -1695612.67549  -1314341.69146  21881031.0394   21881027.3524
      2446.6254
 04  9 10 15 11 15.0000000  0  7G 1G11G14G15G19G22G25
  -1691867.81249  -1313025.74845  22175971.0704   22175967.5594
      2401.4844
  -1212982.68149   -940899.08546  21801030.4924   21801024.9024
      1616.4224
   1244964.33449    958990.10847  21261683.5704   21261678.2234
     -2053.5474
   2454784.94348   1879664.03443  23724304.5084   23724302.8714
     -3851.7974
   1723934.20547   1320059.70743  23812060.7734   23812054.8094
     -2756.5474
   1501040.23348   1148016.21545  23125933.0164   23125927.9104
     -2392.6094
  -1732256.50749  -1342895.31147  21874058.2194   21874054.2584
      2438.8754
 04  9 10 15 11 30.0000000  0  7G 1G11G14G15G19G22G25
  -1727845.03549  -1341059.92946  22169125.1024   22169121.5634
      2395.3284
  -1237163.88249   -959741.58946  21796429.0164   21796423.2344
      1607.5004
   1275810.06649    983025.73347  21267552.9144   21267547.8404
     -2059.3444
   2512588.65648   1924705.84643  23735304.1884   23735302.1414
     -3855.4844
   1765311.75748   1352301.94543  23819934.4144   23819929.2234
     -2760.6724
   1536955.15948   1176001.80845  23132767.8284   23132762.5434
     -2396.2974
  -1768784.68549  -1371358.81747  21867107.0554   21867102.9264
      2431.3444
 04  9 10 15 11 45.0000000  0  7G 1G11G14G15G19G22G25
  -1763727.40149  -1369020.19645  22162296.2814   22162292.6804
      2388.8914
  -1261207.68349   -978477.03546  21791853.8284   21791848.3524
      1598.2034
   1306744.31849   1007130.31947  21273439.9384   21273434.3444
     -2065.2664
   2570451.06348   1969793.38443  23746315.0474   23746313.8914
     -3859.5474
   1806755.86447   1384596.02343  23827821.4534   23827815.7734
     -2765.2344
   1572926.88248   1204031.66545  23139612.5394   23139607.6094
     -2399.9694
  -1805197.30449  -1399732.27846  21860178.1334   21860174.3634
      2423.6564
 04  9 10 15 12  0.0000000  0  7G 1G11G14G15G19G22G25
  -1799516.27949  -1396907.64245  22155486.0004   22155482.4224
      2382.9064
  -1285115.31949   -997106.37446  21787304.0314   21787298.6414
      1589.3754
   1337765.45849   1031302.61547  21279342.9454   21279337.7664
     -2070.8754
   2628370.42348   2014925.29743  23757336.7344   23757335.5234
     -3863.1254
   1848264.65547   1416940.49043  23835718.2664   23835714.3834
     -2769.3284
   1608953.97048   1232104.65345  23146468.8364   23146463.3984
     -2403.6094
  -1841495.46549  -1428016.55246  21853270.7034   21853266.2664
      2416.1254
 04  9 10 15 12 15.0000000  0  7G 1G11G14G15G19G22G25
  -1835210.03049  -1424720.95045  22148693.9844   22148690.6174
      2376.2664
  -1308885.06349  -1015628.25746  21782780.9694   21782775.6374
      1579.9384
   1368874.74849   1055543.60647  21285262.8444   21285257.9064
     -2076.9844
   2686347.97347   2060102.56143  23768369.4694   23768368.3954
     -3867.1564
   1889839.48146   1449336.44042  23843630.2584   23843626.1764
     -2773.9694
   1645037.94048   1260221.96645  23153335.4064   23153330.3404
     -2407.5784
  -1877677.34549  -1456210.21546  21846385.2274   21846381.3094
      2408.1564
 04  9 10 15 12 30.0000000  0  7G 1G11G14G15G19G22G25
  -1870808.67649  -1452460.14045  22141919.3444   22141915.7274
      2370.2034
  -1332516.69649  -1034042.51946  21778284.1954   21778278.4454
      1570.9224
   1400071.90049   1079853.05347  21291199.7344   21291194.4264
     -2082.6254
   2744383.33647   2105324.85643  23779413.5234   23779412.7234
     -3870.7664
   1931479.76847   1481783.38743  23851553.8524   23851549.8094
     -2778.0164
   1681178.73748   1288383.58545  23160212.3674   23160206.8794
     -2411.1414
  -1913742.63149  -1484313.02546  21839522.4144   21839517.7854
      2400.5634
 04  9 10 15 12 45.0000000  0  7G 1G11G14G15G19G22G25
  -1906314.07449  -1480126.67645  22135163.0634   22135159.2344
      2363.8594
  -1356011.94149  -1052350.51447  21773813.0314   21773807.7704
      1561.7664
   1431354.73449   1104229.26847  21297152.4454   21297147.5204
     -2088.4534
   2802474.26248   2150590.47043  23790468.3674   23790466.4144
     -3874.6254
   1973183.27147   1514279.59543  23859490.6564   23859485.8914
     -2782.2974
   1717374.38748   1316587.93145  23167100.7194   23167094.9734
     -2414.9224
  -1949692.95549  -1512326.24746  21832681.3204   21832677.1254
      2392.8754
 04  9 10 15 13  0.0000000  0  7G 1G11G14G15G19G22G25
  -1941726.63349  -1507720.87045  22128424.3364   22128420.3324
      2357.6884
  -1379371.14949  -1070552.50946  21769367.9844   21769362.5354
      1552.6884
   1462722.51049   1128671.67547  21303121.5314   21303116.3674
     -2094.0004
   2860619.98048   2195898.77043  23801533.0704   23801531.4694
     -3878.1724
   2014949.09047   1546824.35243  23867437.9534   23867433.9304
     -2786.5164
   1753624.38748   1344834.63845  23173998.9064   23173993.0634
     -2418.5314
  -1985528.59349  -1540250.10246  21825861.8364   21825858.1484
      2385.2034
 04  9 10 15 13 15.0000000  0  7G 1G11G14G15G19G22G25
  -1977045.54049  -1535242.07745  22121703.5394   22121700.1254
      2351.4534
  -1402593.37149  -1088647.75046  21764948.9534   21764943.4144
      1543.5164
   1494175.75249   1153180.68047  21309106.9694   21309101.8554
     -2099.7974
   2918821.01647   2241250.19543  23812607.5004   23812606.5084
     -3881.9224
   2056777.51746   1579417.90142  23875398.1804   23875393.3134
     -2790.8124
   1789929.41348   1373124.23345  23180907.2424   23180901.4454
     -2422.2194
  -2021248.55149  -1568083.82346  21819064.6094   21819060.7774
      2377.4694
 04  9 10 15 13 30.0000000  0  7G 1G11G14G15G19G22G25
  -2012271.79849  -1562691.10046  22114999.7974   22114996.4414
      2345.0474
  -1425679.44449  -1106636.91246  21760555.7274   21760550.6484
      1534.3914
   1525713.08849   1177755.20347  21315108.0474   21315102.9534
     -2105.5004
   2977075.99547   2286643.63243  23823693.5784   23823691.7384
     -3885.5784
   2098667.17347   1612059.15042  23883369.9064   23883364.5784
     -2794.8594
   1826288.41848   1401455.86245  23187825.9384   23187821.1844
     -2425.9374
  -2056853.60649  -1595828.01146  21812289.1564   21812285.3554
      2369.6724
 04  9 10 15 13 45.0000000  0  7G 1G11G14G15G19G22G25
  -2047405.61949  -1590068.09246  22108314.0314   22108310.8134
      2339.1564
  -1448629.45449  -1124520.03846  21756188.1564   21756182.6174
      1525.4534
   1557333.98549   1202394.84347  21321125.4144   21321120.2384
     -2110.8284
   3035384.32247   2332078.63443  23834788.6564   23834788.0664
     -3888.9694
   2140617.25047   1644747.49242  23891353.2664   23891347.2894
     -2798.6564
   1862701.11348   1429829.34744  23194755.0234   23194750.4144
     -2429.3124
  -2092343.78349  -1623482.68046  21805535.5944   21805531.9924
      2362.1414
 04  9 10 15 14  0.0000000  0  7G 1G11G14G15G19G22G25
  -2082447.76049  -1617373.64946  22101645.6334   22101642.2814
      2332.9224
  -1471443.95649  -1142297.58146  21751846.9454   21751841.5594
      1516.2974
   1589037.39949   1227098.77747  21327158.6414   21327153.5204
     -2116.4534
   3093744.83947   2377554.30642  23845894.9224   23845893.7154
     -3892.6094
   2182626.61247   1677481.98442  23899346.8594   23899341.8834
     -2802.7344
   1899166.57048   1458243.93444  23201694.9694   23201689.8594
     -2432.9064
  -2127719.73349  -1651048.33447  21798804.2424   21798800.1764
      2354.3754
 04  9 10 15 14 15.0000000  0  7G 1G11G14G15G19G22G25
  -2117395.39349  -1644605.55845  22094995.2274   22094991.8054
      2326.7194
  -1494120.01049  -1159967.24646  21747531.9304   21747526.5904
      1507.1254
   1620825.80649   1251868.95947  21333207.2974   21333202.4574
     -2122.0314
   3152159.97947   2423072.53942  23857010.3674   23857009.6024
     -3896.2504
   2224697.63846   1710264.56842  23907351.8524   23907346.8014
     -2806.8284
   1935687.58948   1486701.82145  23208643.8284   23208640.0084
     -2436.5944
  -2162978.31349  -1678522.53247  21792094.5554   21792090.3954
      2346.6724
 04  9 10 15 14 30.0000000  0  7G 1G11G14G15G19G22G25
  -2152250.98449  -1671765.76246  22088362.7344   22088359.0784
      2320.7974
  -1516659.96049  -1177530.84446  21743242.6094   21743236.8554
      1498.2194
   1652696.38449   1276703.14647  21339272.3134   21339267.4774
     -2127.2974
   3210626.98747   2468631.19042  23868136.6174   23868135.4384
     -3899.3914
   2266827.32346   1743092.86042  23915369.0944   23915364.6294
     -2810.5164
   1972261.59248   1515200.99944  23215604.3284   23215598.7974
     -2439.8754
  -2198121.79949  -1705907.05547  21785406.4924   21785402.8444
      2339.1564
 04  9 10 15 14 45.0000000  0  7G 1G11G14G15G19G22G25
  -2187016.88349  -1698856.07346  22081746.7664   22081742.9884
      2314.8914
  -1539066.03349  -1194990.13346  21738979.3674   21738973.3444
      1489.3914
   1684646.64349   1301599.43347  21345352.5314   21345347.0204
     -2132.5474
   3269143.21747   2514228.22542  23879273.0944   23879270.9964
     -3902.6414
   2309013.01846   1775964.80842  23923396.3134   23923393.0864
     -2814.1094
   2008886.20948   1543739.61544  23222573.4844   23222568.1884
     -2443.1874
  -2233152.28149  -1733203.52047  21778740.2974   21778737.0044
      2331.6724
 04  9 10 15 15  0.0000000  0  7G 1G11G14G15G19G22G25
  -2221692.08649  -1725875.70846  22075148.2894   22075144.8324
      2308.6094
  -1561337.08649  -1212344.21047  21734741.2194   21734735.7274
      1480.1724
   1716677.24349   1326558.32247  21351447.5004   21351442.6214
     -2138.1094
   3327709.19247   2559863.99042  23890416.5084   23890416.2544
     -3906.0784
   2351255.15747   1808880.70442  23931436.6174   23931431.2424
     -2818.0624
   2045562.19448   1572318.24744  23229552.7974   23229547.3244
     -2446.8444
  -2268068.71149  -1760411.10447  21772096.6564   21772092.4264
      2323.9064
 04  9 10 15 15 15.0000000  0  7G 1G11G14G15G19G22G25
  -2256273.99249  -1752822.63946  22068567.8754   22068563.6994
      2302.3594
  -1583470.37249  -1229590.92847  21730529.3834   21730524.1564
      1470.9694
   1748790.50149   1351581.60547  21357558.6804   21357553.6094
     -2143.5624
   3386327.31047   2605540.38642  23901571.3524   23901570.7384
     -3909.5624
   2393555.74446   1841842.17542  23939485.3524   23939480.3984
     -2821.8754
   2082292.13648   1600938.93344  23236541.8674   23236537.3954
     -2450.4374
  -2302868.15049  -1787527.52547  21765473.9774   21765469.9804
      2316.1094
 04  9 10 15 15 30.0000000  0  7G 1G11G14G15G19G22G25
  -2290762.91649  -1779697.11846  22062004.4534   22062001.0354
      2296.1724
  -1605466.06049  -1246730.42847  21726343.7034   21726338.1334
      1461.7974
   1780985.76549   1376668.81747  21363685.3914   21363680.2154
     -2149.0474
   3444996.82747   2651256.84542  23912736.1724   23912735.3714
     -3912.9694
   2435914.21746   1874848.74042  23947545.4304   23947540.1914
     -2825.9064
   2119075.64648   1629601.35044  23243541.5164   23243537.2154
     -2454.0004
  -2337550.59249  -1814552.79146  21758874.0084   21758869.9614
      2308.2504
 04  9 10 15 15 45.0000000  0  7G 1G11G14G15G19G22G25
  -2325157.97649  -1806498.46146  22055459.6564   22055456.3204
      2289.9534
  -1627323.17249  -1263761.96546  21722184.4224   21722178.4924
      1452.5474
   1813263.44049   1401820.22647  21369827.3984   21369821.8524
     -2154.5004
   3503718.24247   2697013.74942  23923910.0704   23923908.9184
     -3916.4694
   2478330.87946   1907900.63442  23955617.0784   23955611.6524
     -2829.6254
   2155913.51148   1658306.13444  23250552.3524   23250546.9304
     -2457.6414
  -2372115.05349  -1841486.12746  21752296.5394   21752292.8164
      2300.4224
 04  9 10 15 16  0.0000000  0  7G 1G11G14G15G19G22G25
  -2359458.51749  -1833226.14246  22048932.3364   22048928.9494
      2283.4694
  -1649040.97349  -1280684.93446  21718051.2894   21718045.2734
      1443.1414
   1845624.04949   1427036.26247  21375985.2894   21375980.4654
     -2160.2814
   3562491.87947   2742811.29442  23935094.4064   23935093.4224
     -3920.0784
   2520806.08346   1940998.17842  23963700.4224   23963694.7704
     -2833.6414
   2192806.29448   1687053.70244  23257572.2814   23257567.6644
     -2461.4844
  -2406560.67049  -1868326.85147  21745742.2424   21745738.1524
      2292.3444
 04  9 10 15 16 15.0000000  0  7G 1G11G14G15G19G22G25
  -2393666.22749  -1859881.51346  22042422.9694   22042419.4144
      2277.3594
  -1670620.97849  -1297500.52647  21713944.8984   21713938.8524
      1434.0164
   1878065.55649   1452315.34247  21382158.9144   21382154.1454
     -2165.5164
   3621315.66247   2788648.01842  23946288.0474   23946287.4574
     -3923.2664
   2563337.61346   1974139.58442  23971793.8914   23971788.5554
     -2837.3754
   2229752.23548   1715842.68144  23264602.8984   23264598.0514
     -2464.9064
  -2440888.89149  -1895076.09747  21739209.5394   21739205.7704
      2284.5164
 04  9 10 15 16 30.0000000  0  7G 1G11G14G15G19G22G25
  -2427781.50949  -1886464.85046  22035931.2344   22035927.1914
      2271.4384
  -1692063.48949  -1314208.97946  21709864.4534   21709858.6134
      1425.0164
   1910587.27649   1477656.92547  21388347.3674   21388342.5784
     -2170.6724
   3680188.87847   2834523.17342  23957491.5314   23957490.8634
     -3926.4224
   2605924.46046   2007324.12242  23979898.2974   23979893.2974
     -2840.7814
   2266750.85949   1744672.73144  23271643.9844   23271638.1564
     -2468.2344
  -2475099.96649  -1921734.05647  21732699.1484   21732695.3054
      2276.9224
 04  9 10 15 16 45.0000000  0  7G 1G11G14G15G19G22G25
  -2461806.32049  -1912977.70846  22029456.4774   22029452.1604
      2265.4534
  -1713370.24949  -1330811.66447  21705810.2194   21705804.7664
      1416.1094
   1943186.81249   1503059.13347  21394550.8914   21394545.9924
     -2175.7344
   3739109.16647   2880435.03842  23968703.2114   23968702.6804
     -3929.3594
   2648564.32146   2040549.97242  23988012.2974   23988007.9774
     -2844.2344
   2303800.07548   1773542.19544  23278694.0234   23278688.3324
     -2471.4224
  -2509195.61849  -1948302.05847  21726210.8834   21726207.4184
      2269.3594
 04  9 10 15 17  0.0000000  0  7G 1G11G14G15G19G22G25
  -2495741.02449  -1939420.33546  22022998.7424   22022995.0314
      2259.3134
  -1734541.50149  -1347308.74646  21701781.3914   21701776.1914
      1406.9844
   1975863.56349   1528521.52047  21400769.4694   21400764.3484
     -2180.9694
   3798075.86947   2926383.08042  23979924.9064   23979924.1914
     -3932.5944
   2691256.44647   2073816.48942  23996137.0554   23996131.6954
     -2847.8444
   2340899.53848   1802450.82944  23285753.9304   23285748.3524
     -2474.9224
  -2543176.03949  -1974780.29847  21719744.9694   21719740.6294
      2261.5474
 04  9 10 15 17 15.0000000  0  7G 1G11G14G15G19G22G25
  -2529587.10949  -1965793.90946  22016557.8754   22016554.4184
      2253.5314
  -1755578.59349  -1363701.28446  21697778.0784   21697772.6524
      1398.1094
   2008615.71749   1554042.65647  21407001.7194   21406996.9024
     -2185.9064
   3857087.08647   2972365.78342  23991155.4774   23991154.4734
     -3935.4064
   2733998.79346   2107122.21542  24004269.5554   24004264.6054
     -2851.0944
   2378047.49948   1831397.23744  23292822.2344   23292818.0864
     -2478.0314
  -2577042.57749  -2001169.79147  21713300.6174   21713296.4304
      2254.0004
 04  9 10 15 17 30.0000000  0  7G 1G11G14G15G19G22G25
  -2563344.65649  -1992098.48646  22010134.1804   22010131.0634
      2247.5474
  -1776481.55049  -1379989.31346  21693800.5164   21693795.1414
      1389.0314
   2041443.01649   1579622.34147  21413248.8134   21413244.0434
     -2191.0004
   3916142.38247   3018382.85042  24002392.7664   24002391.4694
     -3938.3914
   2776790.89746   2140466.63342  24012412.5784   24012408.2114
     -2854.3914
   2415243.90448   1860381.41444  23299901.1484   23299895.6334
     -2481.3754
  -2610795.03449  -2027470.40147  21706877.2894   21706873.4104
      2246.3754
 04  9 10 15 17 45.0000000  0  7G 1G11G14G15G19G22G25
  -2597012.66449  -2018333.30446  22003727.5314   22003724.0164
      2241.5784
  -1797249.27849  -1396171.95646  21689848.4924   21689842.8794
      1380.0004
   2074346.02849   1605261.03647  21419510.3524   21419505.0784
     -2196.0474
   3975242.37147   3064434.74942  24013639.0004   24013637.8164
     -3941.4694
   2819633.14346   2173850.21042  24020564.7424   24020561.4804
     -2857.8284
   2452489.65448   1889404.03744  23306988.5784   23306983.6844
     -2484.7194
  -2644432.36749  -2053681.28047  21700476.4614   21700472.2814
      2238.6414
 04  9 10 15 18  0.0000000  0  8G 1G11G14G15G19G22G25G20
  -2630592.49249  -2044499.38446  21997337.7894   21997333.9024
      2235.7344
  -1817882.81649  -1412250.04446  21685922.0634   21685916.5554
      1371.0944
   2107323.19549   1630957.50547  21425785.1254   21425780.0904
     -2200.8914
   4034385.38847   3110520.13142  24024893.3674   24024892.4924
     -3944.2344
   2862523.85046   2207271.49942  24028727.1414   24028723.2974
     -2861.0314
   2489783.32948   1918463.97144  23314085.7194   23314080.9384
     -2487.8594
  -2677955.71249  -2079803.35647  21694097.0704   21694092.9024
      2231.1414
    -98768.22055    -69024.27051  24241531.9384   24241527.4144
      2903.7504
 04  9 10 15 18 15.0000000  0  8G 1G11G14G15G19G22G25G20
  -2664083.56649  -2070596.33646  21990964.2424   21990960.8714
      2229.6564
  -1838381.58749  -1428223.12546  21682021.3754   21682015.8484
      1361.9534
   2140374.69149   1656711.89447  21432074.8594   21432069.3754
     -2206.0474
   4093571.64347   3156639.24842  24036156.4614   24036154.8134
     -3947.3444
   2905463.21347   2240730.68142  24036898.6414   24036894.4574
     -2864.3754
   2527125.28248   1947561.57044  23321191.9694   23321186.1524
     -2491.1254
  -2711364.12049  -2105835.86247  21687739.8674   21687735.9304
      2223.2664
   -142316.36345   -102957.88341  24233244.2814   24233240.0824
      2902.7034
 04  9 10 15 18 30.0000000  0  8G 1G11G14G15G19G22G25G20
  -2697484.09349  -2096622.71746  21984608.1564   21984604.8674
      2223.6094
  -1858743.69549  -1444089.71846  21678146.5314   21678141.3134
      1352.7344
   2173502.01449   1682525.37047  21438378.7584   21438373.7114
     -2211.1874
   4152802.61447   3202793.19542  24047427.8134   24047426.6484
     -3950.3284
   2948452.49545   2274228.79242  24045078.3984   24045074.5044
     -2867.7974
   2564517.36548   1976698.20244  23328307.6484   23328302.2114
     -2494.7194
  -2744655.54849  -2131777.21747  21681404.3834   21681400.5044
      2215.3284
   -185847.14046   -136877.94141  24224961.5084   24224956.3484
      2901.2814
 04  9 10 15 18 45.0000000  0  8G 1G11G14G15G19G22G25G20
  -2730792.13149  -2122577.02846  21978269.6724   21978266.1024
      2217.5784
  -1878967.06449  -1459848.20046  21674298.2344   21674292.5864
      1343.7034
   2206706.76249   1708399.17247  21444697.5864   21444692.4884
     -2216.0624
   4212079.79947   3248983.16542  24058707.8134   24058707.1684
     -3953.2194
   2991493.02946   2307766.82542  24053269.6724   24053263.9414
     -2871.0624
   2601961.31748   2005875.26944  23335432.1094   23335427.1914
     -2497.9224
  -2777828.05249  -2157625.89747  21675092.0784   21675087.6914
      2207.6094
   -229358.55645   -170782.97741  24216681.6024   24216676.3444
      2900.1414
 04  9 10 15 19  0.0000000  0  7G 1G11G14G19G22G25G20
  -2764010.45349  -2148461.42846  21971948.5944   21971944.9574
      2211.5314
  -1899054.40449  -1475500.67747  21670475.8134   21670470.4454
      1334.6094
   2239985.98849   1734331.01147  21451030.4614   21451025.5354
     -2221.1094
   3034581.80246   2341342.46942  24061468.9774   24061463.7194
     -2874.1874
   2639454.37849   2035090.59544  23342567.7894   23342562.3484
     -2501.1414
  -2810884.05149  -2183383.80747  21668801.6484   21668797.3834
      2199.8914
   -272853.33046   -204675.05141  24208404.0554   24208399.2664
      2899.0944
 04  9 10 15 19 15.0000000  0  7G 1G11G14G19G22G25G20
  -2797137.64849  -2174274.83546  21965645.0234   21965641.3364
      2205.2974
  -1919004.14149  -1491045.93547  21666679.3674   21666674.2384
      1325.2664
   2273340.66549   1760321.64047  21457377.1644   21457372.5234
     -2226.2814
   3077719.71846   2374956.40842  24069678.1334   24069673.3324
     -2877.7814
   2676997.83349   2064345.18044  23349711.5944   23349706.6334
     -2504.7034
  -2843821.92249  -2209049.67147  21662533.6254   21662529.5434
      2191.7974
   -316330.16546   -238553.12441  24200131.7664   24200126.1414
      2897.7974
 04  9 10 15 19 30.0000000  0  7G 1G11G14G19G22G25G20
  -2830174.84049  -2200018.10046  21959358.4694   21959354.4964
      2199.7034
  -1938817.31249  -1506484.77947  21662909.2584   21662903.5664
      1316.5004
   2306769.50649   1786370.06347  21463738.5704   21463734.0274
     -2230.8754
   3120905.22846   2408607.37542  24077896.6174   24077890.6374
     -2880.5004
   2714590.50349   2093638.13744  23356866.0084   23356860.3244
     -2507.7034
  -2876642.63749  -2234624.24247  21656288.3674   21656284.2544
      2184.3284
   -359789.98146   -272417.86741  24191861.8054   24191856.3364
      2896.8914
 04  9 10 15 19 45.0000000  0  7G 1G11G14G19G22G25G20
  -2863120.68549  -2225690.18646  21953089.0704   21953085.1054
      2193.0474
  -1958492.30849  -1521815.95647  21659165.3134   21659159.4654
      1306.7664
   2340273.49749   1812477.04847  21470114.3754   21470109.6914
     -2236.3124
   3164139.18246   2442296.16942  24086124.1414   24086118.4024
     -2884.0944
   2752233.68349   2122970.44244  23364028.7034   23364024.1024
     -2511.5004
  -2909344.69449  -2260106.34047  21650065.0004   21650061.5314
      2175.9064
   -403231.42046   -306268.34641  24183594.9304   24183590.0474
      2895.1414
 04  9 10 15 20  0.0000000  0  7G 1G11G14G19G22G25G20
  -2895973.73049  -2251289.95146  21946837.0864   21946833.5594
      2187.2504
  -1978027.46249  -1537038.15646  21655447.4454   21655442.0204
      1297.8134
   2373853.92149   1838643.59047  21476504.6174   21476499.3134
     -2241.0314
   3207422.71345   2476023.55642  24094359.6174   24094354.8754
     -2886.9064
   2789928.83149   2152343.24044  23371202.1024   23371197.1724
     -2514.5474
  -2941926.44249  -2285494.69047  21643865.0784   21643860.9654
      2168.2814
   -446652.91346   -340103.23341  24175331.3524   24175327.5434
      2894.2344
 04  9 10 15 20 15.0000000  0  7G 1G11G14G19G22G25G20
  -2928737.44449  -2276820.10646  21940602.1024   21940598.6724
      2181.2814
  -1997426.11049  -1552154.00147  21651756.2194   21651750.5044
      1288.6564
   2407506.98149   1864866.72047  21482908.7034   21482903.1804
     -2245.9694
   3250751.77246   2509786.45642  24102604.4774   24102599.4964
     -2890.1094
   2827672.30949   2181753.70644  23378383.9774   23378379.1334
     -2517.9224
  -2974391.11749  -2310791.83347  21637687.3204   21637683.2034
      2160.4064
   -490058.08145   -373925.41841  24167070.4614   24167067.5704
      2893.1724
 04  9 10 15 20 30.0000000  0  7G 1G11G14G19G22G25G20
  -2961408.96649  -2302278.42346  21934385.0864   21934381.3284
      2175.0004
  -2016685.52949  -1567161.35446  21648091.1954   21648085.6374
      1279.3444
   2441235.12249   1891148.37747  21489326.7974   21489321.3204
     -2251.1254
   3294128.73146   2543586.66842  24110858.9454   24110854.0514
     -2893.3914
   2865466.81748   2211203.92944  23385576.6174   23385570.5004
     -2521.3754
  -3006735.68349  -2335995.36447  21631532.5234   21631527.8324
      2152.2814
   -533443.92945   -407732.63841  24158814.9534   24158811.3324
      2891.6254
 04  9 10 15 20 45.0000000  0  7G 1G11G14G19G22G25G20
  -2993988.49049  -2327665.06146  21928185.2194   21928181.6844
      2169.0944
  -2035805.70449  -1582060.20247  21644453.0394   21644447.4924
      1270.1724
   2475037.89649   1917488.17947  21495759.4924   21495754.4844
     -2255.7974
   3337553.05544   2577423.70542  24119122.2194   24119117.3674
     -2896.2974
   2903312.18148   2240693.77644  23392777.7734   23392773.4494
     -2524.5474
  -3038960.06549  -2361105.26047  21625400.2974   21625395.7894
      2144.4844
   -576810.62145   -441524.72241  24150563.7424   24150558.9844
      2890.6724
 04  9 10 15 21  0.0000000  0  7G 1G11G14G19G22G25G20
  -3026476.25449  -2352980.20246  21922003.1884   21921999.5634
      2162.7344
  -2054786.59549  -1596850.51046  21640840.8524   21640835.3014
      1260.6724
   2508914.82349   1943885.76147  21502205.7894   21502200.9614
     -2260.9844
   3381024.05545   2611297.19842  24127395.1804   24127389.2344
     -2899.7344
   2941208.08748   2270223.00344  23399989.9384   23399984.3134
     -2528.1254
  -3071064.29949  -2386121.54147  21619291.0004   21619286.6684
      2136.1724
   -620158.33745   -475302.21541  24142313.9224   24142310.4184
      2889.2194
 04  9 10 15 21 15.0000000  0  7G 1G11G14G19G22G25G20
  -3058872.60149  -2378224.09746  21915838.4844   21915834.9734
      2156.7034
  -2073628.51549  -1611532.54146  21637255.4694   21637249.5864
      1251.4694
   2542865.19649   1970340.58647  21508666.6094   21508661.7074
     -2265.7974
   3424540.95045   2645206.37742  24135675.9534   24135670.1524
     -2902.7194
   2979153.94149   2299791.17944  23407210.7274   23407204.9694
     -2531.3914
  -3103048.69949  -2411044.43247  21613204.5864   21613200.2624
      2128.3444
   -663487.49045   -509065.19141  24134068.3674   24134064.8754
      2887.9694
 04  9 10 15 21 30.0000000  0  7G 1G11G14G19G22G25G20
  -3091180.10749  -2403398.74846  21909690.3674   21909687.4494
      2150.7504
  -2092333.92449  -1626108.19447  21633695.9144   21633690.4534
      1242.3284
   2576886.19649   1996850.42947  21515140.4774   21515135.8324
     -2270.5164
   3468100.76445   2679149.10742  24143964.6094   24143959.3134
     -2905.4534
   3017147.30548   2329396.33044  23414440.1254   23414435.5164
     -2534.6094
  -3134915.30649  -2435875.53547  21607140.4144   21607136.5944
      2120.4064
   -706800.59845   -542815.66041  24125826.7974   24125822.7384
      2886.9064
 04  9 10 15 21 45.0000000  0  7G 1G11G14G19G22G25G20
  -3123397.02849  -2428502.82246  21903559.6094   21903556.4494
      2144.8444
  -2110901.06649  -1640576.10747  21630162.8204   21630157.8404
      1233.1884
   2610979.27049   2023416.44647  21521627.8054   21521622.8164
     -2275.2344
   3511704.78644   2713126.24542  24152261.2424   24152257.7774
     -2908.3914
   3055189.79748   2359039.79144  23421679.3444   23421674.6334
     -2537.7194
  -3166662.19349  -2460613.35347  21601099.3524   21601094.9494
      2112.5004
   -750095.84245   -576552.24241  24117589.0084   24117583.6374
      2885.8594
 04  9 10 15 22  0.0000000  0  7G 1G11G14G19G22G25G20
  -3155522.21049  -2453535.41046  21897446.3594   21897443.3524
      2138.7664
  -2129328.46349  -1654935.12247  21626656.0474   21626650.5434
      1223.9384
   2645145.31649   2050039.31147  21528129.8674   21528125.1484
     -2280.0624
   3555353.58844   2747138.25242  24160568.5084   24160563.6684
     -2911.1254
   3093282.54049   2388722.40444  23428928.7344   23428924.3244
     -2541.0474
  -3198288.31949  -2485257.07347  21595080.7664   21595076.7154
      2104.4694
   -793372.09144   -610273.94941  24109351.4774   24109347.9304
      2884.5634
 04  9 10 15 22 15.0000000  0  7G 1G11G14G19G22G25G20
  -3187556.90149  -2478497.48446  21891350.4534   21891346.7424
      2132.7194
  -2147617.31349  -1669186.18747  21623175.7894   21623170.4614
      1214.7664
   2679382.81449   2076717.86047  21534645.0004   21534640.2384
     -2284.7974
   3599045.59745   2781183.96542  24168884.2894   24168878.6334
     -2914.2034
   3131424.04749   2418443.01544  23436186.6024   23436182.5704
     -2544.3124
  -3229794.71249  -2509807.49347  21589085.3594   21589080.9574
      2096.4694
   -836630.47845   -643981.76241  24101120.6564   24101116.1684
      2883.4064
 04  9 10 15 22 30.0000000  0  7G 1G11G14G19G22G25G20
  -3219501.17149  -2503389.10246  21885271.5634   21885268.1484
      2126.6884
  -2165767.47449  -1683329.18247  21619721.7734   21619716.9734
      1205.5164
   2713691.47649   2103451.87147  21541173.5084   21541168.6564
     -2289.4534
   3642780.24545   2815262.79742  24177207.4694   24177201.7664
     -2916.9064
   3169614.33648   2448201.64844  23443453.5864   23443449.4144
     -2547.4844
  -3261181.11849  -2534264.42647  21583112.7664   21583108.8054
      2088.5634
   -879870.96945   -677675.61341  24092891.5864   24092887.7154
      2882.1564
 04  9 10 15 22 45.0000000  0  7G 1G11G14G19G22G25G20
  -3251355.18749  -2528210.40346  21879210.1884   21879206.7074
      2120.5944
  -2183779.07549  -1697364.21047  21616294.4304   21616289.3594
      1196.1884
   2748070.71949   2130240.87147  21547715.9224   21547710.8444
     -2294.2664
   3686556.98044   2849374.57442  24185535.9064   24185531.6024
     -2919.5944
   3207853.17448   2477998.10444  23450730.4614   23450725.5824
     -2550.8754
  -3292447.43249  -2558627.77147  21577162.8834   21577158.6764
      2080.4064
   -923093.75045   -711355.68041  24084668.4304   24084662.2704
      2880.8284
 04  9 10 15 23  0.0000000  0  7G 1G11G14G19G22G25G20
  -3283118.16649  -2552960.74946  21873165.8834   21873162.1294
      2114.5634
  -2201651.37449  -1711290.68047  21612893.6024   21612888.5044
      1186.9224
   2782521.01849   2157085.24347  21554271.9384   21554266.3324
     -2298.9374
   3730376.16344   2883519.38841  24193874.6884   24193869.5744
     -2922.8594
   3246141.09848   2507832.80744  23458016.7894   23458011.4104
     -2554.1564
  -3323592.77749  -2582896.85947  21571236.1414   21571232.2544
      2072.3754
   -966298.01845   -745021.40641  24076446.4774   24076440.8674
      2879.5474
 04  9 10 15 23 15.0000000  0  7G 1G11G14G19G22G25G20
  -3314790.58149  -2577640.54646  21867138.4224   21867135.3134
      2108.7194
  -2219384.52649  -1725108.73347  21609519.1884   21609513.7544
      1177.7664
   2817041.66149   2183984.42747  21560840.7894   21560835.5824
     -2303.5004
   3774236.72044   2917696.41542  24202220.5704   24202215.3244
     -2925.1414
   3284477.66248   2537705.41044  23465311.2504   23465306.0434
     -2557.2034
  -3354617.44249  -2607071.89247  21565332.4384   21565328.3054
      2064.4064
  -1009484.30645   -778672.97741  24068229.2584   24068222.5044
      2878.6564
 04  9 10 15 23 30.0000000  0  7G 1G11G14G19G22G25G20
  -3346376.40949  -2602252.86946  21861128.0474   21861124.9804
      2102.7974
  -2236982.38449  -1738821.36247  21606170.6254   21606164.9804
      1168.6254
   2851628.38449   2210935.09547  21567422.3914   21567417.4844
     -2307.9694
   3818134.49545   2951902.37342  24210575.9844   24210569.2544
     -2927.8444
   3322858.86648   2567612.78044  23472615.7424   23472610.5044
     -2560.2814
  -3385525.18349  -2631155.84547  21559451.3444   21559446.5274
      2056.5944
  -1052656.33445   -812313.57841  24060015.8594   24060007.1884
      2877.5784
 04  9 10 15 23 45.0000000  0  7G 1G11G14G19G22G25G20
  -3377872.21249  -2626795.04346  21855134.4384   21855131.5084
      2096.5784
  -2254441.50649  -1752425.87347  21602848.0394   21602842.6294
      1159.1724
   2886284.36549   2237939.73047  21574016.9844   21574011.7624
     -2312.8754
   3862072.29444   2986139.64342  24218935.7034   24218931.0984
     -2930.6414
   3361287.99548   2597557.53144  23479928.2734   23479923.4964
     -2563.6564
  -3416312.27249  -2655145.77247  21553592.2504   21553587.8404
      2048.3284
  -1095810.73045   -845940.37141  24051801.9774   24051794.7624
      2876.2034
 04  9 10 15 24  0.0000000  0  6G 1G11G14G22G25G20
  -3409276.66449  -2651266.02246  21849158.6484   21849154.7734
      2090.5004
  -2271760.30349  -1765921.05747  21599552.2894   21599546.4614
      1149.8284
   2921010.69649   2264999.18647  21580625.4924   21580620.2974
     -2317.5314
   3399766.29548   2627540.57644  23487250.6174   23487246.2114
     -2567.0164
  -3446977.30549  -2679040.59447  21547756.9924   21547752.7814
      2040.1724
  -1138946.14145   -879552.33641  24043595.2584   24043586.5634
      2875.0474
 04  9 10 15 24 15.0000000  0  6G 1G11G14G22G25G20
  -3440589.83049  -2675665.88746  21843200.0004   21843196.0904
      2084.5474
  -2288938.80449  -1779306.90747  21596283.4384   21596277.6374
      1140.6254
   2955807.01949   2292113.19547  21587247.1954   21587241.8954
     -2321.9844
   3438293.64748   2657561.83744  23494582.0314   23494577.2234
     -2570.0784
  -3477520.09749  -2702840.15147  21541944.6724   21541940.7504
      2032.2194
  -1182062.55744   -913149.55541  24035389.5004   24035381.6564
      2873.8594
 04  9 10 15 24 30.0000000  0  6G 1G11G14G22G25G20
  -3471813.14549  -2699995.73246  21837258.3284   21837254.5704
      2078.3284
  -2305978.25749  -1792584.40947  21593040.7584   21593035.4064
      1131.1254
   2990671.56049   2319280.34247  21593881.3524   21593876.0704
     -2326.7664
   3476868.60948   2687620.20344  23501922.3984   23501918.0904
     -2573.4694
  -3507941.84549  -2726545.40747  21536155.4614   21536151.5944
      2023.8914
  -1225161.29544   -946733.02341  24027186.4304   24027180.9574
      2872.3914
 04  9 10 15 24 45.0000000  0  6G 1G11G14G22G25G20
  -3502943.56348  -2724253.18546  21831333.8594   21831331.1804
      2072.2504
  -2322875.64149  -1805751.21846  21589825.4064   21589819.7194
      1121.7504
   3025607.10249   2346502.82447  21600529.7034   21600524.0474
     -2331.3594
   3515494.05548   2717717.91944  23509272.8134   23509268.8364
     -2576.6724
  -3538239.37649  -2750153.85847  21530390.8054   21530385.9924
      2015.7194
                                  24018985.0164   24018982.8484
      2871.4224
 04  9 10 15 25  0.0000000  0  6G 1G11G14G22G25G20
  -3533981.18948  -2748438.33246  21825427.8364   21825425.0084
      2066.1094
  -2339630.76349  -1818807.16447  21586636.9064   21586631.3054
      1112.2814
   3060613.26949   2373780.33147  21607191.2504   21607186.0234
     -2336.0164
   3554169.82448   2747854.82144  23516632.2504   23516628.3874
     -2579.9844
  -3568412.70149  -2773665.52747  21524648.4774   21524644.2544
      2007.4384
  -1311296.63253  -1013851.45351  24010794.5004   24010789.3444
      2869.8134
 04  9 10 15 25 15.0000000  0  6G 1G11G14G22G25G20
  -3564927.90048  -2772552.64146  21819538.8204   21819535.8054
      2060.0474
  -2356245.45449  -1831753.68947  21583475.4454   21583469.7934
      1102.8594
   3095688.01649   2401111.27747  21613865.5234   21613860.1994
     -2340.7034
   3592894.07648   2778029.51144  23524001.4384   23523996.8484
     -2583.2814
  -3598463.35849  -2797081.60047  21518929.8754   21518925.7624
      1999.2344
  -1354335.15344  -1047387.97741  24002604.1414   24002600.0434
      2868.6724
 04  9 10 15 25 30.0000000  0  6G 1G11G14G22G25G20
  -3595784.09648  -2796596.41446  21813667.0474   21813663.8954
      2054.1094
  -2372719.98149  -1844590.98847  21580340.3284   21580334.4804
      1093.7194
   3130830.39949   2428494.94147  21620552.5234   21620547.5514
     -2345.0004
   3631666.28948   2808241.58744  23531379.7894   23531375.3834
     -2586.4064
  -3628391.64248  -2820402.33247  21513234.7584   21513230.5354
      1991.1884
  -1397355.25843  -1080910.14541  23994417.2664   23994413.3674
      2867.4534
 04  9 10 15 25 45.0000000  0  6G 1G11G14G22G25G20
  -3626547.38748  -2820567.79646  21807813.0704   21807809.5594
      2047.9064
  -2389051.83748  -1857317.11947  21577232.3444   21577227.2114
      1084.0784
   3166042.69149   2455933.06646  21627253.7974   21627248.2974
     -2349.7814
   3670488.78748   2838492.84944  23538767.5394   23538762.6484
     -2589.7814
  -3658194.79549  -2843625.56447  21507563.6644   21507559.1954
      1982.7814
  -1440354.35943  -1114415.94541  23986236.0004   23986230.6024
      2865.7814
 04  9 10 15 26  0.0000000  0  6G 1G11G14G22G25G20
  -3657220.08648  -2844468.58646  21801976.2114   21801972.2384
      2041.7664
  -2405243.37448  -1869933.90547  21574151.1254   21574145.6374
      1074.6884
   3201322.37549   2483423.71746  21633966.6094   21633961.8554
     -2354.2814
   3709359.04048   2868781.29844  23546164.4064   23546159.3054
     -2592.9694
  -3687875.04249  -2866753.02047  21501915.4924   21501910.8524
      1974.5314
  -1483334.93743  -1147907.19941  23978056.4844   23978051.7074
      2864.6414
 04  9 10 15 26 15.0000000  0  6G 1G11G14G22G25G20
  -3687799.41748  -2868296.61546  21796157.3594   21796153.6724
      2035.7194
  -2421291.54049  -1882438.97047  21571097.7584   21571091.6644
      1065.2664
   3236671.90749   2510968.78646  21640693.8054   21640688.6604
     -2358.7814
   3748279.85048   2899109.18144  23553570.0634   23553565.9654
     -2596.2034
  -3717429.35749  -2889782.34047  21496291.4224   21496287.4734
      1966.2504
  -1526293.96144  -1181381.82441  23969880.6334   23969877.1914
      2863.2034
 04  9 10 15 26 30.0000000  0  6G 1G11G14G22G25G20
  -3718289.96848  -2892055.47746  21790355.0474   21790351.6024
      2029.6884
  -2437200.91149  -1894835.90846  21568069.8914   21568064.0944
      1055.8914
   3272086.36449   2538564.43746  21647433.1954   21647428.0984
     -2363.1724
   3787246.74748   2929472.92244  23560986.3364   23560981.7624
     -2599.3594
  -3746862.23449  -2912717.03447  21490690.8914   21490686.8984
      1958.0944
  -1569236.09044  -1214843.24241  23961711.2894   23961705.4924
      2862.2974
 04  9 10 15 26 45.0000000  0  6G 1G11G14G22G25G20
  -3748688.31748  -2915742.48946  21784570.4384   21784567.2664
      2023.6564
  -2452967.81549  -1907121.81547  21565069.6804   21565064.0434
      1046.5474
   3307568.86349   2566213.11247  21654185.0314   21654180.1914
     -2367.6094
   3826262.89948   2959875.07944  23568410.5004   23568406.0984
     -2602.5474
  -3776169.99949  -2935554.24147  21485113.5394   21485109.5634
      1949.9064
  -1612157.64944  -1248288.58641  23953541.8674   23953538.3484
      2861.0314
 04  9 10 15 27  0.0000000  0  6G 1G11G14G22G25G20
  -3778997.37048  -2939359.91746  21778802.9844   21778799.4304
      2017.6254
  -2468595.03649  -1919298.87647  21562095.9454   21562090.5044
      1037.0784
   3343116.26549   2593912.37247  21660949.2424   21660944.5664
     -2372.0474
   3865325.40549   2990313.34544  23575843.8984   23575838.8524
     -2605.7194
  -3805355.32349  -2958296.04047  21479559.9924   21479555.5594
      1941.5784
  -1655061.60144  -1281720.23441  23945377.3594   23945373.7424
      2859.5314
 04  9 10 15 27 15.0000000  0  6G 1G11G14G22G25G20
  -3809213.50549  -2962904.94446  21773053.1414   21773049.4384
      2011.3444
  -2484078.94649  -1931364.27747  21559149.7664   21559143.5164
      1027.5164
   3378731.93849   2621664.81747  21667727.2034   21667721.8634
     -2376.6254
   3904437.74348   3020790.44844  23583286.1334   23583282.1174
     -2609.1254
  -3834414.47549  -2980939.53647  21474030.0394   21474025.6054
      1933.1414
  -1697944.25345  -1315135.26641  23937219.2664   23937213.6804
      2858.0784
 04  9 10 15 27 30.0000000  0  6G 1G11G14G22G25G20
  -3839338.66649  -2986379.09246  21767320.2274   21767316.5634
      2005.3284
  -2499421.30749  -1943319.36347  21556229.9224   21556223.9884
      1018.1254
   3414413.75449   2649468.80847  21674517.0864   21674511.6994
     -2380.9694
   3943597.91348   3051304.82344  23590738.6334   23590734.1804
     -2612.2504
  -3863349.19049  -3003486.05147  21468523.8984   21468519.5394
      1924.8134
  -1740807.54645  -1348535.23942  23929062.6254   23929057.2544
      2856.9064
 04  9 10 15 27 45.0000000  0  6G 1G11G14G22G25G20
  -3869372.99549  -3009782.45946  21761604.8834   21761601.3634
      1999.2974
  -2514622.17949  -1955164.21347  21553337.3204   21553331.3834
      1008.7194
   3450161.27749   2677323.99446  21681319.6024   21681314.5744
     -2385.3284
   3982805.87648   3081856.41644  23598199.8284   23598194.8594
     -2615.4374
  -3892159.38949  -3025935.55247  21463041.5314   21463037.3444
      1916.5634
  -1783651.47545  -1381920.09242  23920909.0474   23920904.2854
      2855.5314
 04  9 10 15 28  0.0000000  0  6G 1G11G14G22G25G20
  -3899316.87549  -3033115.32246  21755906.9384   21755903.3244
      1993.1094
  -2529681.85849  -1966899.03147  21550471.8134   21550466.1374
       999.1884
   3485973.80449   2705229.84146  21688134.3054   21688129.5234
     -2389.7664
   4022061.05748   3112444.83744  23605670.3914   23605664.9574
     -2618.7344
  -3920845.32549  -3048288.21647  21457582.6094   21457578.5434
      1908.1094
  -1826476.36845  -1415290.17542  23912758.4534   23912755.8524
      2854.2034
 04  9 10 15 28 15.0000000  0  6G 1G11G14G22G25G20
  -3929168.49849  -3056376.32146  21750225.8444   21750222.7894
      1987.1094
  -2544598.40249  -1978522.32047  21547633.0784   21547627.6914
       989.7664
   3521852.89949   2733187.56546  21694962.1564   21694957.3594
     -2394.0314
   4061365.16948   3143071.37544  23613149.2664   23613144.2074
     -2621.8284
  -3949404.99849  -3070542.49547  21452148.0314   21452143.2664
      1899.8134
  -1869280.38645  -1448643.93342  23904613.6724   23904610.3874
      2852.9534
 04  9 10 15 28 30.0000000  0  6G 1G11G14G22G25G20
  -3958930.45049  -3079567.43446  21744562.7344   21744559.7034
      1981.0634
  -2559374.22149  -1990035.95647  21544820.9534   21544815.9264
       980.2664
   3557795.83749   2761195.02147  21701801.6414   21701796.8874
     -2398.3594
   4100715.63548   3173734.02444  23620636.9304   23620632.8404
     -2624.9694
  -3977840.77049  -3092700.23447  21446736.6094   21446732.5664
      1891.5634
  -1912066.06146  -1481983.37142  23896472.4224   23896468.1804
      2851.6724
 04  9 10 15 28 45.0000000  0  6G 1G11G14G22G25G20
  -3988601.83949  -3102687.98746  21738916.7114   21738912.9774
      1975.1414
  -2574008.41149  -2001439.23347  21542036.1884   21542031.4344
       970.9694
   3593803.08549   2789252.59746  21708653.8284   21708649.0164
     -2402.5784
   4140113.24648   3204433.40944  23628134.5554   23628129.8874
     -2628.0624
  -4006151.56949  -3114760.58547  21441349.6564   21441345.3754
      1883.2504
  -1954832.40045  -1515307.79042  23888335.1804   23888329.5944
      2850.4384
 04  9 10 15 29  0.0000000  0  6G 1G11G14G22G25G20
  -4018183.91949  -3125738.95146  21733287.0784   21733283.8364
      1968.9694
  -2588502.01149  -2012732.96447  21539277.7894   21539272.5474
       961.3594
   3629873.18249   2817359.13746  21715517.5554   21715513.0234
     -2406.9844
   4179556.70848   3235168.53544  23635640.6724   23635635.4064
     -2631.3124
  -4034338.56349  -3136724.45547  21435985.6024   21435981.5234
      1874.8134
  -1997580.63646  -1548618.12142  23880199.8444   23880195.0434
      2849.0314
 04  9 10 15 29 15.0000000  0  6G 1G11G14G22G25G20
  -4047671.11449  -3148715.95546  21727675.4454   21727672.5784
      1962.6884
  -2602849.46849  -2023912.80747  21536548.3984   21536542.6844
       951.7034
   3666011.34749   2845518.72346  21722394.3364   21722389.4024
     -2411.4694
   4219051.40548   3265943.57644  23643156.0084   23643151.0204
     -2634.5784
  -4062395.92849  -3158587.34147  21430646.3364   21430642.5274
      1866.2034
  -2040305.06846  -1581909.87842  23872070.2504   23872064.6914
      2847.6564
 04  9 10 15 29 30.0000000  0  6G 1G11G14G22G25G20
  -4077068.48449  -3171622.96846  21722081.6884   21722077.8324
      1957.0164
  -2617055.60749  -2034982.52747  21533845.1024   21533839.7234
       942.5314
   3702212.40849   2873727.32447  21729283.3834   21729278.6994
     -2415.3594
   4258592.27548   3296754.60944  23650679.8984   23650676.1454
     -2637.4374
  -4090328.37249  -3180352.86647  21425331.1334   21425327.1804
      1858.1254
  -2083010.71046  -1615187.01442  23863942.6334   23863938.1684
      2846.6564
 04  9 10 15 29 45.0000000  0  6G 1G11G14G22G25G20
  -4106375.77748  -3194459.81446  21716504.1724   21716501.2814
      1950.5784
  -2631120.20449  -2045941.96547  21531168.9384   21531163.1764
       932.5944
   3738476.24949   2901984.84547  21736184.1884   21736179.2664
     -2420.0004
   4298179.49748   3327601.75144  23658213.8204   23658209.3874
     -2640.9534
  -4118135.57049  -3202020.79947  21420039.6174   21420035.2384
      1849.3444
  -2125697.29146  -1648449.25442  23855819.8364   23855815.5664
      2844.7664
 04  9 10 15 30  0.0000000  0  6G 1G11G14G22G25G20
  -4135587.24048  -3217221.96247  21710945.8754   21710942.6134
      1944.4844
  -2645037.39249  -2056786.53347  21528519.8914   21528514.6884
       923.1564
   3774808.34349   2930295.52547  21743097.9614   21743093.3674
     -2424.2194
   4337818.79748   3358489.46544  23665757.5784   23665752.3054
     -2644.0944
  -4145811.61849  -3223586.53547  21414772.9694   21414768.4264
      1840.8914
  -2168359.01646  -1681692.18942  23847701.2504   23847696.6054
      2843.3914
 04  9 10 15 30 15.0000000  0  6G 1G11G14G22G25G20
  -4164707.69748  -3239913.21147  21705404.7424   21705401.3364
      1938.1564
  -2658812.06249  -2067520.05247  21525899.0084   21525893.6644
       913.4384
   3811203.55649   2958655.42347  21750024.0004   21750019.1334
     -2428.5944
   4377505.21549   3389413.92044  23673309.7894   23673304.4534
     -2647.4534
  -4173361.15049  -3245053.69047  21409530.2734   21409526.3984
      1832.2504
  -2211000.58445  -1714919.33742  23839586.1484   23839581.9224
      2841.8914
 04  9 10 15 30 30.0000000  0  6G 1G11G14G22G25G20
  -4193738.36948  -3262534.50246  21699879.9534   21699876.5634
      1932.3754
  -2672444.89649  -2078143.05347  21523304.7584   21523299.1884
       904.1884
   3847660.59249   2987063.47347  21756960.8054   21756956.2854
     -2432.5164
   4417237.59148   3420374.15644  23680870.3204   23680865.3714
     -2650.2974
  -4200785.19949  -3266423.06347  21404311.9304   21404307.7194
      1824.1094
  -2253623.04246  -1748131.66442  23831476.2274   23831470.5704
      2841.0004
 04  9 10 15 30 45.0000000  0  6G 1G11G14G22G25G20
  -4222680.38548  -3285086.70446  21694372.5554   21694369.1484
      1926.5634
  -2685937.15448  -2088656.51147  21520737.5634   21520731.8244
       894.9064
   3884178.04749   3015518.61147  21763910.5314   21763906.0824
     -2436.4064
   4457014.71048   3451369.27644  23688439.5394   23688434.6454
     -2653.2504
  -4228084.76749  -3287695.44247  21399117.2894   21399112.4414
      1815.9384
  -2296227.55146  -1781329.96642  23823368.5234   23823363.5704
      2839.7194
 04  9 10 15 31  0.0000000  0  6G 1G11G14G22G25G20
  -4251531.46548  -3307568.05146  21688882.4844   21688878.6524
      1920.3754
  -2699286.34949  -2099058.49747  21518196.9064   21518191.6994
       885.2344
   3920757.94649   3044022.40047  21770871.3674   21770866.6294
     -2440.7034
   4496838.86748   3482401.03344  23696017.8054   23696012.8874
     -2656.4374
  -4255257.11449  -3308868.68847  21393946.1724   21393941.8134
      1807.1724
  -2338811.78346  -1814512.50542  23815264.8204   23815259.7664
      2838.1884
 04  9 10 15 31 15.0000000  0  6G 1G11G14G22G25G20
  -4280293.07948  -3329979.69846  21683409.4064   21683405.4774
      1914.3284
  -2712493.82049  -2109350.03847  21515683.9454   21515678.2194
       875.6254
   3957398.42749   3072573.40647  21777843.8054   21777838.5824
     -2444.8914
   4536708.42848   3513468.14444  23703604.6724   23703600.4344
     -2659.6254
  -4282303.75049  -3329943.98147  21388799.1724   21388794.6644
      1798.7504
  -2381377.04245  -1847680.22942  23807164.7344   23807160.6454
      2836.9064
 04  9 10 15 31 30.0000000  0  6G 1G11G14G22G25G20
  -4308961.63748  -3352318.82246  21677953.6884   21677950.6884
      1907.9384
  -2725555.79649  -2119528.21247  21513198.5234   21513192.3834
       865.8134
   3994102.90749   3101174.27546  21784828.5004   21784823.4494
     -2449.2664
   4576626.90148   3544573.41044  23711200.7344   23711196.3714
     -2663.0004
  -4309220.96549  -3350918.41747  21383677.4144   21383672.9344
      1790.0474
  -2423919.71146  -1880830.35742  23799069.7894   23799065.7274
      2835.1884
 04  9 10 15 31 45.0000000  0  6G 1G11G14G22G25G20
  -4337539.62548  -3374587.37246  21672515.5784   21672511.7814
      1902.1254
  -2738474.93848  -2129595.07847  21510739.6804   21510734.0434
       856.4384
   4030868.58049   3129822.83246  21791824.7734   21791819.6294
     -2453.1414
   4616591.80748   3575714.84244  23718806.3204   23718801.5234
     -2665.9534
  -4336011.05449  -3371793.79847  21378578.7114   21378575.0664
      1781.6414
  -2466442.24846  -1913964.80242  23790978.2504   23790973.7504
      2834.0474
 04  9 10 15 32  0.0000000  0  6G 1G11G14G22G25G20
  -4366025.58048  -3396784.21346  21667095.0704   21667091.2624
      1895.9694
  -2751249.64949  -2139549.40947  21508308.8984   21508303.4454
       846.8284
   4067696.78949   3158520.11346  21798832.9384   21798828.3594
     -2457.2974
   4656604.50348   3606893.51043  23726420.5704   23726415.1334
     -2669.1094
  -4362672.36449  -3392568.83547  21373505.5004   21373501.3484
      1773.1254
  -2508943.02246  -1947082.28742  23782891.1644   23782886.4924
      2832.6414
 04  9 10 15 32 15.0000000  0  6G 1G11G14G22G25G20
  -4394419.32749  -3418909.19647  21661692.0234   21661688.0234
      1890.0164
  -2763879.44049  -2149390.83047  21505905.4224   21505899.9344
       837.1884
   4104587.36349   3187265.99246  21805853.0634   21805848.4614
     -2461.3124
   4696665.06548   3638109.45043  23734043.5314   23734039.0664
     -2672.2034
  -4389204.29449  -3413243.05247  21368456.4694   21368452.5634
      1764.5784
  -2551421.84446  -1980182.65642  23774807.1094   23774802.8404
      2831.3134
 04  9 10 15 32 30.0000000  0  6G 1G11G14G22G25G20
  -4422723.34549  -3440964.24946  21656305.3984   21656301.9414
      1883.8134
  -2776366.93349  -2159121.34547  21503528.9454   21503524.1174
       827.6254
   4141537.55249   3216058.32246  21812884.4384   21812879.7384
     -2465.5474
   4736771.02348   3669360.79744  23741675.7194   23741671.2074
     -2675.3914
  -4415609.31149  -3433818.37747  21363431.9304   21363428.1294
      1755.8914
  -2593881.08246  -2013267.78042  23766726.3984   23766722.7234
      2829.8444
 04  9 10 15 32 45.0000000  0  6G 1G11G14G22G25G20
  -4450935.79549  -3462947.96546  21650937.0234   21650932.9804
      1877.8914
  -2788710.02549  -2168739.35147  21501180.4614   21501174.7344
       818.1564
   4178549.02249   3244898.41847  21819927.5474   21819922.7504
     -2469.4224
   4776924.12348   3700648.89744  23749316.8364   23749312.0354
     -2678.3594
  -4441885.33249  -3454293.18847  21358431.5084   21358427.1764
      1747.5314
  -2636318.79546  -2046336.11342  23758652.2114   23758646.8524
      2828.5944
 04  9 10 15 33  0.0000000  0  6G 1G11G14G22G25G20
  -4479059.94948  -3484862.88146  21645585.0784   21645581.4574
      1871.6254
  -2800911.94949  -2178247.35447  21498858.1334   21498853.0204
       808.3754
   4215618.18249   3273783.44447  21826981.6884   21826976.6954
     -2473.5474
   4817121.09448   3731971.11744  23756965.0704   23756961.2774
     -2681.5944
  -4468035.42249  -3474669.86647  21353455.3914   21353451.4614
      1738.7664
  -2678738.16246  -2079390.15342  23750580.4454   23750575.0904
      2827.0314
 04  9 10 15 33 15.0000000  0  6G 1G11G14G22G25G20
  -4507091.16649  -3506705.36946  21640250.8364   21640246.8324
      1865.7034
  -2812967.89249  -2187641.59947  21496564.2274   21496558.8834
       798.8444
   4252749.47149   3302716.89347  21834047.2424   21834042.4614
     -2477.4224
   4857366.56648   3763331.18943  23764624.1254   23764619.9804
     -2684.5314
  -4494054.84749  -3494944.73547  21348504.7274   21348500.3524
      1730.3444
  -2721134.42046  -2112426.22042  23742512.0004   23742507.1764
      2825.6564
 04  9 10 15 33 30.0000000  0  6G 1G11G14G22G25G20
  -4535034.43449  -3528479.33946  21634933.3914   21634929.7074
      1860.2504
  -2824882.71149  -2196925.88047  21494296.4924   21494291.1254
       789.9534
   4289937.75449   3331694.75046  21841124.2814   21841119.3874
     -2480.7974
   4897655.47248   3794725.07843  23772290.3754   23772285.9414
     -2687.0784
  -4519948.40749  -3515121.51847  21343576.8834   21343572.4384
      1722.4224
  -2763512.51446  -2145448.09142  23734447.6644   23734442.1644
      2824.9534
 04  9 10 15 33 45.0000000  0  6G 1G11G14G22G25G20
  -4562886.97249  -3550182.59046  21629632.9924   21629630.0904
      1853.7194
  -2836653.68049  -2206098.08047  21492056.7974   21492051.1564
       779.8594
   4327185.38349   3360718.85046  21848211.8754   21848207.5314
     -2485.2194
   4937990.36848   3826154.79443  23779966.6094   23779961.6884
     -2690.6724
  -4545713.33249  -3535198.07547  21338673.8054   21338669.7504
      1713.1884
  -2805869.64546  -2178453.62542  23726387.5704   23726382.6134
      2823.0314
 04  9 10 15 34  0.0000000  0  6G 1G11G14G22G25G20
  -4590647.89849  -3571814.47247  21624350.7894   21624347.0784
      1847.5944
  -2848279.70849  -2215157.33347  21489844.4694   21489838.7584
       770.2194
   4364493.11549   3389789.79446  21855311.3674   21855307.0664
     -2489.2504
   4978372.16748   3857621.06044  23787651.3674   23787646.8634
     -2693.7034
  -4571348.34249  -3555173.39347  21333795.4224   21333791.5864
      1704.6094
  -2848204.75346  -2211442.03742  23718330.9304   23718326.6254
      2821.5314
 04  9 10 15 34 15.0000000  0  6G 1G11G14G22G25G20
  -4618318.14149  -3593375.70147  21619085.2974   21619081.5164
      1841.4694
  -2859761.67049  -2224104.32847  21487659.7664   21487653.6844
       760.4534
   4401859.72449   3418906.61146  21862422.4774   21862417.6254
     -2493.3124
   5018799.92548   3889123.15344  23795344.2424   23795339.3984
     -2696.9064
  -4596854.10549  -3575047.99747  21328942.4614   21328937.7234
      1695.8284
  -2890518.77546  -2244413.98542  23710278.7584   23710274.7504
      2820.0784
 04  9 10 15 34 30.0000000  0  6G 1G11G14G22G25G20
  -4645896.02849  -3614864.96047  21613837.2424   21613833.5204
      1835.5784
  -2871097.76949  -2232937.67147  21485502.6644   21485497.0434
       750.9224
   4439286.68949   3448070.44046  21869544.1724   21869539.3754
     -2497.0624
   5059275.30648   3920662.34244  23803046.3524   23803042.3164
     -2699.8444
  -4622228.77549  -3594820.46347  21324113.4304   21324109.2234
      1687.2974
  -2932809.84645  -2277368.05642  23702230.7894   23702226.7304
      2818.6254
 04  9 10 15 34 45.0000000  0  6G 1G11G14G22G25G20
  -4673384.16149  -3636284.27446  21608606.4144   21608602.5394
      1829.5784
  -2882290.61749  -2241659.37047  21483372.6564   21483367.1174
       741.4064
   4476771.15849   3477279.10746  21876677.2734   21876672.8094
     -2500.8444
   5099795.62248   3952236.56344  23810757.3834   23810752.7934
     -2702.9064
  -4647474.88949  -3614492.74847  21319309.0704   21319305.1524
      1678.7814
  -2975080.53846  -2310306.25542  23694186.3594   23694182.8364
      2817.3284
 04  9 10 15 35  0.0000000  0  6G 1G11G14G22G25G20
  -4700781.43449  -3657632.78146  21603392.9224   21603389.2194
      1823.0944
  -2893338.83149  -2250268.37447  21481270.3594   21481264.5354
       731.3594
   4514313.99049   3506533.23646  21883821.2894   21883816.9654
     -2505.1414
   5140361.91148   3983846.58844  23818476.8914   23818472.7384
     -2706.2194
  -4672591.14749  -3634063.84047  21314530.0314   21314525.6604
      1669.7664
  -3017329.59446  -2343227.57242  23686147.5234   23686143.5824
      2815.4224
 04  9 10 15 35 15.0000000  0  6G 1G11G14G22G25G20
  -4728083.35449  -3678906.98846  21598197.2114   21598193.4384
      1817.0784
  -2904237.97049  -2258761.22347  21479196.3594   21479190.4264
       721.7974
   4551919.37849   3535836.11246  21890977.4774   21890972.4694
     -2508.9224
   5180978.58348   4015495.88343  23826205.1644   23826202.0514
     -2709.3284
  -4697572.93749  -3653530.15147  21309775.8364   21309771.9304
      1661.1414
  -3059552.44347  -2376128.47642  23678112.8444   23678108.2734
      2814.1724
 04  9 10 15 35 30.0000000  0  6G 1G11G14G22G25G20
  -4755293.70449  -3700109.84646  21593019.5084   21593015.1724
      1811.0634
  -2914991.69849  -2267140.75347  21477150.1024   21477143.9144
       712.0944
   4589583.36949   3565184.65046  21898144.5004   21898139.9844
     -2512.7974
   5221641.85748   4047181.48943  23833943.2974   23833939.7704
     -2712.4224
  -4722423.81849  -3672894.45547  21305047.1414   21305042.8134
      1652.4694
  -3101752.79846  -2409011.87342  23670082.7734   23670078.0234
      2812.7814
 04  9 10 15 35 45.0000000  0  6G 1G11G14G22G25G20
  -4782412.43549  -3721241.31346  21587858.8834   21587855.2304
      1804.9384
  -2925599.88549  -2275406.88447  21475131.3914   21475125.8524
       702.3914
   4627305.72049   3594578.66346  21905323.3204   21905318.1414
     -2516.6874
   5262351.63748   4078903.32944  23841690.6644   23841687.6374
     -2715.4694
  -4747143.55249  -3692156.57347  21300342.9454   21300338.6724
      1643.7194
  -3143930.51747  -2441877.60642  23662056.1724   23662050.8524
      2811.1564
 04  9 10 15 36  0.0000000  0  6G 1G11G14G22G25G20
  -4809439.95749  -3742301.70747  21582715.7504   21582712.0314
      1798.8134
  -2936062.64149  -2283559.69047  21473139.7504   21473134.4494
       692.6724
   4665085.86449   3624017.71846  21912512.6174   21912507.6094
     -2520.6094
   5303107.57448   4110661.13444  23849446.2894   23849442.3554
     -2718.6094
  -4771732.48049  -3711316.76347  21295664.0004   21295659.8204
      1634.8754
  -3186085.97346  -2474725.98542  23654034.1804   23654029.8284
      2809.6884
 04  9 10 15 36 15.0000000  0  6G 1G11G14G22G25G20
  -4836375.76749  -3763290.62447  21577590.1094   21577586.1564
      1792.5474
  -2946379.54149  -2291598.82647  21471176.5704   21471171.5314
       682.7814
   4702924.01749   3653501.96946  21919712.6254   21919708.1884
     -2524.5944
   5343910.09448   4142455.22943  23857211.6334   23857206.9384
     -2721.8444
  -4796189.82248  -3730374.41847  21291009.8134   21291005.9614
      1625.9224
  -3228218.43846  -2507556.49442  23646016.7274   23646012.7894
      2808.0004
 04  9 10 15 36 30.0000000  0  6G 1G11G14G22G25G20
  -4863222.08449  -3784209.81947  21572481.1564   21572478.0314
      1786.9224
  -2956552.69448  -2299525.96647  21469241.1884   21469235.6454
       673.5634
   4740817.73149   3683029.50746  21926924.3754   21926919.6414
     -2527.8754
   5384756.88748   4174283.84043  23864982.8364   23864979.8834
     -2724.3754
  -4820517.61148  -3749331.12547  21286380.2664   21286375.7344
      1617.7664
  -3270330.12747  -2540370.78842  23638002.3754   23637999.1524
      2807.0004
 04  9 10 15 36 45.0000000  0  6G 1G11G14G22G25G20
  -4889980.20849  -3805060.29147  21567389.3134   21567385.5394
      1780.6254
  -2966583.35849  -2307342.09047  21467332.4844   21467326.9694
       663.5944
   4778765.46649   3712599.14346  21934145.2504   21934140.5824
     -2531.9844
   5425646.55448   4206145.87443  23872765.1334   23872760.4344
     -2727.7194
  -4844717.05749  -3768187.81847  21281775.4454   21281770.8164
      1608.7034
  -3312422.24346  -2573169.80942  23629992.9924   23629989.5354
      2805.2034
 04  9 10 15 37  0.0000000  0  6G 1G11G14G22G25G20
  -4916647.21549  -3825839.75747  21562314.7344   21562311.3054
      1774.7814
  -2976468.51149  -2315044.81647  21465451.1254   21465445.2734
       654.1724
   4816769.90149   3742212.96146  21941376.9224   21941373.0274
     -2535.5004
   5466582.04948   4238043.59743  23880554.1414   23880549.4534
     -2730.5314
  -4868784.99149  -3786942.03447  21277195.3594   21277190.6134
      1600.2194
  -3354491.64146  -2605951.16642  23621986.6334   23621983.3404
      2803.8444
 04  9 10 15 37 15.0000000  0  6G 1G11G14G22G25G20
  -4943223.89249  -3846548.84847  21557257.2114   21557253.6724
      1768.6254
  -2986208.83949  -2322634.69147  21463597.7034   21463592.5824
       644.3914
   4854830.02149   3771870.17846  21948619.7424   21948615.3324
     -2539.3284
   5507562.63348   4269976.46243  23888353.0944   23888347.9344
     -2733.6874
  -4892721.96849  -3805594.21847  21272640.5394   21272635.7424
      1591.3754
  -3396539.15046  -2638715.45942  23613986.4614   23613982.6134
      2802.3444
 04  9 10 15 37 30.0000000  0  6G 1G11G14G22G25G20
  -4969708.67349  -3867186.33447  21552217.7114   21552213.8674
      1762.5474
  -2995802.66249  -2330110.39647  21461772.4924   21461765.9964
       634.6564
   4892947.16849   3801571.83246  21955873.1174   21955868.3914
     -2543.1094
   5548589.72148   4301945.55844  23896159.6954   23896156.1214
     -2736.8284
  -4916526.47248  -3824143.17247  21268110.2274   21268105.7934
      1582.4534
  -3438563.15746  -2671461.39342  23605989.3364   23605984.9144
      2800.8914
 04  9 10 15 37 45.0000000  0  6G 1G11G14G22G25G20
  -4996102.76449  -3887753.15447  21547195.2034   21547191.3134
      1756.5784
  -3005251.20349  -2337472.91147  21459974.1024   21459968.5944
       625.0004
   4931119.88349   3831316.76846  21963137.0474   21963132.8014
     -2546.7034
   5589661.80648   4333949.72444  23903976.3834   23903971.9924
     -2739.7194
  -4940199.46948  -3842589.64447  21263605.6484   21263601.4454
      1573.7974
  -3480564.71546  -2704189.92142  23597996.5554   23597992.2934
      2799.3594
 04  9 10 15 38  0.0000000  0  6G 1G11G14G22G25G20
  -5022405.88249  -3908249.06747  21542189.3984   21542185.7814
      1750.3444
  -3014553.96548  -2344721.82047  21458203.2894   21458198.1914
       615.2034
   4969348.07949   3861104.96046  21970412.2344   21970407.6254
     -2550.4694
   5630779.29548   4365989.26543  23911800.3054   23911797.0044
     -2742.7814
  -4963740.42748  -3860933.23347  21259125.8754   21259122.1604
      1564.8754
  -3522543.44846  -2736900.60142  23590008.5474   23590004.2034
      2797.7504
 04  9 10 15 38 15.0000000  0  6G 1G11G14G22G25G20
  -5048617.10349  -3928673.39547  21537201.9924   21537197.9064
      1744.4384
  -3023709.95649  -2351856.37347  21456460.9534   21456455.9224
       605.6254
   5007632.61949   3890937.03646  21977697.3204   21977692.9144
     -2554.0944
   5671943.11748   4398064.92743  23919633.8834   23919630.0164
     -2745.5944
  -4987148.32349  -3879173.14047  21254671.7274   21254667.5004
      1556.1724
  -3564498.25845  -2769592.67642  23582024.2114   23582019.7034
      2796.1724
 04  9 10 15 38 30.0000000  0  6G 1G11G14G22G25G20
  -5074736.67849  -3949026.28847  21532231.3134   21532227.5784
      1738.2974
  -3032719.45249  -2358876.77147  21454746.6334   21454741.1764
       595.7344
   5045972.93749   3920812.58346  21984993.1724   21984988.7344
     -2557.8444
   5713152.95548   4430176.45143  23927475.9304   23927472.1254
     -2748.7664
  -5010423.25749  -3897309.44147  21250242.6884   21250238.1954
      1547.2504
  -3606429.34846  -2802266.27542  23574045.1174   23574040.5124
      2794.6724
 04  9 10 15 38 45.0000000  0  6G 1G11G14G22G25G20
  -5100766.25249  -3969309.05147  21527278.1094   21527274.3284
      1732.3134
  -3041583.94249  -2365784.16747  21453060.0864   21453054.3364
       586.1414
   5084367.32349   3950730.25446  21992299.0314   21992294.8714
     -2561.4374
   5754407.11748   4462322.49843  23935326.1254   23935322.4884
     -2751.7194
  -5033566.57849  -3915343.17747  21245838.2424   21245834.2734
      1538.5314
  -3648338.17846  -2834922.46242  23566070.7424   23566066.2664
      2793.1254
 04  9 10 15 39  0.0000000  0  6G 1G11G14G22G25G20
  -5126704.50149  -3989520.65147  21522342.2504   21522338.2154
      1726.2344
  -3050302.03149  -2372577.48447  21451400.9614   21451395.3404
       576.3754
   5122816.79749   3980690.85846  21999616.0864   21999611.4844
     -2565.1254
   5795706.98348   4494504.16943  23943185.4694   23943181.1644
     -2754.7814
  -5056576.75249  -3933273.18347  21241459.6724   21241455.5354
      1529.5474
  -3690223.35346  -2867560.27642  23558100.5474   23558094.9304
      2791.5944
 04  9 10 15 39 15.0000000  0  6G 1G11G14G22G25G20
  -5152551.09049  -4009660.83447  21517423.6564   21517420.1564
      1720.0784
  -3058873.25548  -2379256.37047  21449769.6954   21449764.3914
       566.6414
   5161321.48449   4010694.48946  22006943.5314   22006938.5234
     -2568.7504
   5837052.76148   4526721.59943  23951053.4844   23951049.1724
     -2757.8914
  -5079453.44448  -3951099.15947  21237106.5084   21237102.5354
      1520.7344
  -3732084.45147  -2900179.32342  23550134.2894   23550129.2464
      2790.0944
 04  9 10 15 39 30.0000000  0  6G 1G11G14G22G25G20
  -5178306.06749  -4029729.61747  21512522.7504   21512519.0274
      1713.8284
  -3067297.55149  -2385820.77047  21448166.9534   21448161.2854
       556.6094
   5199881.00849   4040740.83746  22014281.1174   22014276.0394
     -2572.6724
   5878444.28348   4558974.68043  23958930.1414   23958924.8054
     -2761.0474
  -5102196.49049  -3968821.01147  21232778.6564   21232774.9144
      1511.6094
  -3773921.40246  -2932779.53842  23542172.8524   23542168.5984
      2788.0634
 04  9 10 15 39 45.0000000  0  6G 1G11G14G22G25G20
  -5203969.43749  -4049727.03047  21507639.1564   21507635.3364
      1707.7034
  -3075574.69449  -2392270.49847  21446592.1644   21446586.4144
       546.7814
   5238495.18049   4070829.77846  22021629.0004   22021624.1884
     -2576.2034
   5919881.47348   4591263.34643  23966815.3364   23966811.2584
     -2764.0944
  -5124805.61249  -3986438.49747  21228476.0314   21228472.1094
      1502.7034
  -3815734.09547  -2965360.82342  23534216.2344   23534211.6094
      2786.5944
 04  9 10 15 40  0.0000000  0  6G 1G11G14G22G25G20
  -5229540.32349  -4069652.37847  21502773.1024   21502769.1174
      1701.7034
  -3083704.07049  -2398605.08047  21445045.1564   21445039.2154
       537.0784
   5277164.69149   4100961.83946  22028987.3444   22028982.9614
     -2579.7814
   5961365.23848   4623588.31943  23974709.9694   23974705.5904
     -2767.1094
  -5147279.79049  -4003950.82347  21224199.4454   21224195.0944
      1493.8134
  -3857521.48547  -2997922.44642  23526263.6954   23526260.1484
      2785.0314
 04  9 10 15 40 15.0000000  0  6G 1G11G14G22G25G20
  -5255022.36349  -4089508.48046  21497923.6484   21497920.1914
      1695.9224
  -3091689.15548  -2404827.23647  21443525.5704   21443519.8014
       527.6254
   5315885.77049   4131134.07946  22036356.0474   22036351.3794
     -2583.0314
   6002891.97748   4655946.75043  23982612.4924   23982608.5204
     -2769.7504
  -5169622.55848  -4021360.76347  21219947.7034   21219943.8594
      1485.2664
  -3899287.08747  -3030467.06242  23518316.7424   23518312.2074
      2783.8134
 04  9 10 15 40 30.0000000  0  6G 1G11G14G22G25G20
  -5280415.60649  -4109295.40847  21493091.7584   21493088.1174
      1689.4534
  -3099529.80749  -2410936.84047  21442033.4774   21442027.9454
       517.4384
   5354658.12049   4161346.27946  22043734.1644   22043729.8094
     -2586.9534
   6044461.50548   4688338.53743  23990522.2194   23990518.8524
     -2773.1414
  -5191833.90248  -4038668.30047  21215721.0394   21215716.6524
      1475.9224
  -3941030.91047  -3062994.69642  23510372.8284   23510368.5474
      2781.8284
 04  9 10 15 40 45.0000000  0  6G 1G11G14G22G25G20
  -5305713.57749  -4129008.10347  21488278.0234   21488274.0204
      1683.5164
  -3107219.45049  -2416928.77247  21440570.1094   21440564.7074
       507.7664
   5393488.00248   4191603.29946  22051123.4454   22051118.4964
     -2590.4374
   6086080.25848   4720768.68243  23998442.1414   23998439.1844
     -2776.0944
  -5213907.11348  -4055868.18847  21211520.7894   21211516.3094
      1467.0634
  -3982746.29747  -3095500.19442  23502434.7814   23502430.4454
      2780.2664
 04  9 10 15 41  0.0000000  0  6G 1G11G14G22G25G20
  -5330921.56949  -4148650.68147  21483480.8204   21483476.7234
      1677.4064
  -3114763.43248  -2422807.20847  21439134.7114   21439128.8524
       498.0004
   5432369.73448   4221900.72546  22058521.9384   22058517.5394
     -2594.0004
   6127742.90448   4753233.06943  24006370.0314   24006366.4304
     -2779.0784
  -5235847.38248  -4072964.48747  21207345.6414   21207341.1454
      1458.2194
  -4024438.53247  -3127987.66942  23494501.3054   23494496.3794
      2778.5314
 04  9 10 15 41 15.0000000  0  6G 1G11G14G22G25G20
  -5356036.04749  -4168220.39447  21478701.5784   21478698.0204
      1671.2664
  -3122158.09649  -2428569.28747  21437727.4614   21437721.9924
       488.0314
   5471306.68448   4252241.17546  22065931.5004   22065927.3984
     -2597.4694
   6169452.91848   4785734.31443  24014307.3524   24014303.0824
     -2782.0944
  -5257650.98248  -4089954.29547  21203196.4064   21203192.2704
      1449.1094
  -4066104.02847  -3160454.27042  23486572.0864   23486567.7504
      2776.9534
 04  9 10 15 41 30.0000000  0  6G 1G11G14G22G25G20
  -5381057.61149  -4187717.69247  21473940.2664   21473936.7194
      1664.8754
  -3129403.94049  -2434215.41847  21436348.6174   21436342.8444
       477.8914
   5510298.07648   4282624.04746  22073350.8914   22073347.3404
     -2601.4224
   6211209.60548   4818271.94343  24022252.7424   24022248.7734
     -2785.5784
  -5279318.33149  -4106837.93847  21199073.5474   21199068.9384
      1439.7664
  -4107743.03547  -3192900.26242  23478648.9694   23478643.6804
      2774.7974
 04  9 10 15 41 45.0000000  0  6G 1G11G14G22G25G20
  -5405987.13249  -4207143.27347  21469196.0704   21469192.8444
      1659.0004
  -3136501.72049  -2439746.15547  21434997.7344   21434992.2584
       468.3284
   5549342.85748   4313048.53246  22080782.0704   22080776.8834
     -2604.6874
   6253012.12948   4850845.27943  24030207.7734   24030203.1414
     -2788.3124
  -5300850.15448  -4123615.96447  21194975.9384   21194971.1024
      1431.0474
  -4149356.41347  -3225326.24142  23470729.9774   23470725.3524
      2773.4844
 04  9 10 15 42  0.0000000  0  6G 1G11G14G22G25G20
  -5430825.11549  -4226497.53347  21464469.7894   21464466.3524
      1652.9224
  -3143451.96449  -2445161.93947  21433675.4614   21433670.0824
       458.5634
   5588440.33848   4343514.06746  22088221.8524   22088217.1884
     -2608.1094
   6294859.91448   4883453.90543  24038171.7424   24038166.6094
     -2791.2664
  -5322246.63049  -4140288.54447  21190904.4774   21190899.7154
      1422.0314
  -4190944.55847  -3257732.58742  23462815.4384   23462811.4144
      2771.8134
 04  9 10 15 42 15.0000000  0  6G 1G11G14G22G25G20
  -5455572.85149  -4245781.45947  21459760.3914   21459756.5634
      1646.6094
  -3150255.77748  -2450463.61547  21432380.6804   21432375.3914
       448.5004
   5627588.96748   4374019.46546  22095671.5004   22095666.6764
     -2611.8754
   6336751.69347   4916096.81543  24046142.3054   24046139.2344
     -2794.4844
  -5343508.98348  -4156856.59847  21186858.2734   21186853.7774
      1412.7974
  -4232508.74248  -3290120.23842  23454906.2664   23454901.8834
      2769.9384
 04  9 10 15 42 30.0000000  0  6G 1G11G14G22G25G20
  -5480225.32049  -4264991.16847  21455069.5394   21455065.6764
      1640.3444
  -3156907.92549  -2455647.11347  21431114.5704   21431109.1884
       438.4384
   5666793.55948   4404568.47146  22103131.9384   22103127.2074
     -2615.5004
   6378692.33948   4948777.74943  24054124.8204   24054120.5314
     -2797.6094
  -5364632.14949  -4173316.19247  21182838.1804   21182834.2234
      1403.5944
  -4274043.65048  -3322485.12543  23447003.7814   23446998.5474
      2768.0314
 04  9 10 15 42 45.0000000  0  6G 1G11G14G22G25G20
  -5504784.14349  -4284127.89147  21450396.1414   21450391.9534
      1634.3134
  -3163410.20549  -2460713.82847  21429877.2734   21429872.0704
       428.7194
   5706052.22948   4435159.62646  22110602.1484   22110598.1334
     -2618.8594
   6420680.20948   4981495.53643  24062115.7344   24062110.9224
     -2800.5784
  -5385617.62249  -4189668.50847  21178845.2734   21178841.0594
      1394.6564
  -4315550.77447  -3354828.32242  23439104.0394   23439099.7544
      2766.4844
 04  9 10 15 43  0.0000000  0  6G 1G11G14G22G25G20
  -5529252.41149  -4303194.05447  21445739.6174   21445735.5704
      1628.1564
  -3169765.72548  -2465666.18947  21428667.7734   21428662.3404
       418.6884
   5745361.70448   4465790.34946  22118083.1094   22118078.0004
     -2622.3914
   6462712.23248   5014247.67143  24070112.7274   24070109.7194
     -2803.7194
  -5406468.18848  -4205915.68547  21174877.3204   21174873.4184
      1385.4844
  -4357033.12447  -3387152.23743  23431209.9064   23431206.2344
      2764.5314
 04  9 10 15 43 15.0000000  0  6G 1G11G14G22G25G20
  -5553627.46549  -4322187.59847  21441101.6884   21441097.4494
      1622.1094
  -3175971.65048  -2470501.98547  21427486.9224   21427481.3444
       408.9844
   5784724.43248   4496462.57846  22125573.2344   22125568.8484
     -2625.7974
   6504790.94448   5047036.23743  24078120.6724   24078115.7544
     -2806.5624
  -5427180.97449  -4222055.52047  21170936.1174   21170931.8554
      1376.4384
  -4398488.06948  -3419454.74743  23423321.0704   23423316.9844
      2762.8444
 04  9 10 15 43 30.0000000  0  6G 1G11G14G22G25G20
  -5577910.93549  -4341109.77347  21436479.9844   21436476.0204
      1615.7814
  -3182029.42048  -2475222.33447  21426334.5704   21426329.5354
       398.8444
   5824138.60048   4527174.88646  22133073.7814   22133068.8634
     -2629.3284
   6546914.67347   5079859.88442  24086135.6884   24086131.8554
     -2809.7974
  -5447757.61649  -4238089.25347  21167020.3134   21167015.4924
      1367.2664
  -4439916.95548  -3451737.03643  23415438.2584   23415432.8874
      2760.9694
 04  9 10 15 43 45.0000000  0  6G 1G11G14G22G25G20
  -5602104.40849  -4359961.81547  21431876.4224   21431872.7424
      1609.7504
  -3187940.67048  -2479828.50247  21425209.4144   21425204.1374
       389.0634
   5863602.39548   4557925.86746  22140583.2974   22140578.5744
     -2632.6254
   6589081.87748   5112717.37243  24094160.0944   24094156.1174
     -2812.6874
  -5468199.49848  -4254017.98947  21163130.1954   21163126.1604
      1358.1724
  -4481321.27148  -3484000.14343  23407559.3284   23407554.7774
      2759.3444
 04  9 10 15 44  0.0000000  0  6G 1G11G14G22G25G20
  -5626208.39949  -4378744.13547  21427289.2424   21427285.5904
      1603.9064
  -3193705.85549  -2484320.86747  21424112.0704   21424106.3954
       379.3754
   5903115.14748   4588715.00146  22148102.7974   22148098.3674
     -2635.9064
   6631291.89548   5145608.26243  24102192.7114   24102188.9654
     -2815.6094
  -5488506.95849  -4269841.97547  21159266.3284   21159261.8364
      1349.2504
  -4522701.34648  -3516244.34043  23399684.1954   23399681.1254
      2757.7814
 04  9 10 15 44 15.0000000  0  6G 1G11G14G22G25G20
  -5650222.00749  -4397456.02547  21422719.7974   21422715.8594
      1597.7034
  -3199324.09548  -2488698.72147  21423043.4064   21423037.7854
       369.4844
   5942677.51748   4619542.80046  22155631.1254   22155626.5784
     -2639.2504
   6673545.63448   5178533.19143  24110233.7194   24110229.4884
     -2818.5314
  -5508679.10648  -4285560.52747  21155427.6564   21155423.3674
      1340.2034
  -4564056.29448  -3548468.97543  23391815.4384   23391811.4734
      2755.9844
 04  9 10 15 44 30.0000000  0  6G 1G11G14G22G25G20
  -5674143.59849  -4416096.21847  21418168.0164   21418163.6954
      1591.7974
  -3204793.45649  -2492960.56147  21422002.9064   21421997.2504
       359.7974
   5982290.88748   4650410.33646  22163168.8204   22163164.8404
     -2642.4844
   6715844.67648   5211493.42243  24118282.6564   24118278.4104
     -2821.2344
  -5528714.01449  -4301172.13847  21151614.9224   21151610.1604
      1331.1884
  -4605384.29548  -3580672.58443  23383950.5944   23383946.6954
      2754.4384
 04  9 10 15 44 45.0000000  0  6G 1G11G14G22G25G20
  -5697975.55049  -4434666.55447  21413632.5704   21413629.0204
      1585.6254
  -3210116.25549  -2497108.20647  21420989.6024   21420984.7234
       349.7194
   6021952.69448   4681315.61746  22170716.4614   22170711.9144
     -2645.9064
   6758186.70647   5244487.14543  24126340.1484   24126336.7894
     -2824.4374
  -5548613.95648  -4316678.57747  21147828.0704   21147823.3674
      1321.9224
  -4646687.49648  -3612856.91743  23376091.1484   23376086.0354
      2752.5004
 04  9 10 15 45  0.0000000  0  6G 1G11G14G22G25G20
  -5721714.99949  -4453164.83147  21409115.0634   21409111.0434
      1579.5474
  -3215289.64548  -2501139.44047  21420005.1804   21420000.1644
       339.8914
   6061665.68248   4712260.77346  22178273.5234   22178268.8284
     -2649.2814
   6800574.50548   5277516.54843  24134406.2974   24134403.0234
     -2827.4374
  -5568375.87948  -4332077.47347  21144067.1254   21144062.8324
      1312.8284
  -4687962.98248  -3645019.62043  23368236.4694   23368232.0004
      2750.8444
 04  9 10 15 45 15.0000000  0  6G 1G11G14G22G25G20
  -5745360.20249  -4471589.64947  21404615.7974   21404612.0274
      1572.9844
  -3220311.97148  -2505052.94147  21419049.2734   21419043.9804
       329.5474
   6101431.30948   4743246.95146  22185840.3524   22185836.0474
     -2653.0474
   6843009.56647   5310582.76943  24142481.8284   24142478.3524
     -2830.8444
  -5587997.87348  -4347367.34547  21140333.5084   21140328.7074
      1303.2504
  -4729208.90748  -3677159.28344  23360387.5004   23360383.2384
      2748.4844
 04  9 10 15 45 30.0000000  0  6G 1G11G14G22G25G20
  -5768912.79049  -4489942.30147  21400133.7424   21400129.7934
      1567.2974
  -3225184.70148  -2508849.87947  21418122.2664   21418117.0234
       320.0474
   6141247.63748   4774272.64246  22193417.4064   22193413.2424
     -2655.8444
   6885490.40248   5343684.66743  24150566.2274   24150561.6334
     -2833.3444
  -5607481.33048  -4362549.23847  21136625.7814   21136621.7544
      1294.4534
  -4770426.74048  -3709277.04844  23352544.1724   23352539.9414
      2747.0634
 04  9 10 15 45 45.0000000  0  6G 1G11G14G22G25G20
  -5792377.31649  -4508226.33947  21395668.8674   21395664.4024
      1561.4384
  -3229912.18449  -2512533.64047  21417222.8594   21417217.2894
       310.3754
   6181110.06948   4805334.25046  22201002.9774   22200998.6374
     -2658.9534
   6928012.40747   5376818.67943  24158656.3364   24158653.4924
     -2836.0314
  -5626830.77749  -4377626.73547  21132943.6804   21132939.1804
      1285.5314
  -4811620.96248  -3741376.43844  23344704.7034   23344700.5824
      2745.5474
 04  9 10 15 46  0.0000000  0  6G 1G11G14G22G25G20
  -5815752.34349  -4526440.64347  21391220.2814   21391216.4344
      1555.2814
  -3234492.99149  -2516103.11947  21416351.0944   21416345.5664
       300.3284
   6221019.79448   4836432.70946  22208597.6804   22208593.4774
     -2662.3124
   6970576.95548   5409985.79243  24166756.4384   24166753.3554
     -2839.1874
  -5646044.67749  -4392598.59247  21129287.4844   21129283.3874
      1276.2664
  -4852789.93748  -3773456.16044  23336871.2194   23336866.8014
      2743.6564
 04  9 10 15 46 15.0000000  0  6G 1G11G14G22G25G20
  -5839037.39549  -4544584.83347  21386789.3134   21386785.6134
      1549.4064
  -3238926.58149  -2519557.86947  21415507.1414   21415501.9344
       290.6724
   6260977.16348   4867568.29546  22216201.2034   22216197.1804
     -2665.3594
   7013184.50648   5443186.43043  24174864.1884   24174860.6094
     -2841.9064
  -5665122.20249  -4407464.19847  21125657.3054   21125653.0004
      1267.2814
  -4893933.06148  -3805515.70843  23329041.1564   23329036.8674
      2741.9844
 04  9 10 15 46 30.0000000  0  6G 1G11G14G22G25G20
  -5862231.51949  -4562658.16547  21382375.8204   21382372.2624
      1543.2344
  -3243212.06949  -2522897.21347  21414691.5554   21414686.5274
       280.7034
   6300982.87348   4898741.55645  22223814.0084   22223809.6914
     -2668.6414
   7055835.93448   5476421.25343  24182981.8524   24182977.3634
     -2844.8914
  -5684062.45349  -4422222.82347  21122053.0634   21122048.7704
      1258.1254
  -4935049.29948  -3837554.32744  23321217.1884   23321212.8914
      2740.1724
 04  9 10 15 46 45.0000000  0  6G 1G11G14G22G25G20
  -5885333.24949  -4580659.50047  21377979.4384   21377975.2734
      1537.0004
  -3247347.79748  -2526119.87847  21413904.7344   21413899.6134
       270.7344
   6341038.09248   4929953.38646  22231436.8754   22231432.4844
     -2671.9844
   7098532.72448   5509691.40843  24191105.5004   24191102.5594
     -2848.0164
  -5702863.71048  -4436873.14847  21118475.1564   21118470.7664
      1248.7344
  -4976136.95548  -3869570.67344  23313398.2974   23313394.4774
      2738.2034
 04  9 10 15 47  0.0000000  0  6G 1G11G14G22G25G20
  -5908342.16249  -4598588.52547  21373601.2194   21373596.9224
      1531.0164
  -3251333.47149  -2529225.60347  21413146.3834   21413140.8984
       260.8594
   6381143.17848   4961204.07846  22239068.6724   22239063.8244
     -2675.1254
   7141275.19348   5542997.15443  24199239.6564   24199236.0084
     -2850.7664
  -5721525.36249  -4451414.69047  21114924.1254   21114919.6334
      1239.6254
  -5017195.40748  -3901564.27344  23305585.4534   23305580.5164
      2736.3914
 04  9 10 15 47 15.0000000  0  6G 1G11G14G22G25G20
  -5931257.80149  -4616444.86447  21369240.5784   21369236.0904
      1524.6254
  -3255168.42449  -2532213.89147  21412416.4064   21412411.1884
       250.6094
   6421298.39349   4992493.82046  22246710.0164   22246705.1684
     -2678.6874
   7184063.81048   5576338.90843  24207382.0004   24207378.6804
     -2854.1414
  -5740047.03849  -4465847.17647  21111399.3444   21111394.8484
      1230.1414
  -5058224.18448  -3933534.75144  23297777.9694   23297773.4884
      2734.3134
 04  9 10 15 47 30.0000000  0  6G 1G11G14G22G25G20
  -5954082.26049  -4634230.14147  21364896.8674   21364892.7854
      1518.0634
  -3258854.69049  -2535086.29947  21411715.3204   21411709.9264
       240.3444
   6461501.40949   5023820.81746  22254360.1564   22254355.2384
     -2682.2344
   7226896.48848   5609714.97343  24215532.2974   24215529.1054
     -2857.4534
  -5758430.58649  -4480171.99547  21107901.3524   21107896.6954
      1220.4384
  -5099225.13748  -3965483.51944  23289975.4384   23289971.2544
      2732.0164
 04  9 10 15 47 45.0000000  0  6G 1G11G14G22G25G20
  -5976811.35749  -4651941.12447  21360571.5004   21360567.6604
      1512.4064
  -3262387.99049  -2537839.53947  21411043.0004   21411037.0004
       230.7814
   6501756.19549   5055188.16146  22262020.5704   22262016.0164
     -2685.0784
   7269777.37648   5643128.59243  24223692.7814   24223689.5434
     -2860.1094
  -5776671.60949  -4494385.77647  21104430.1724   21104425.8984
      1211.6094
  -5140193.98548  -3997407.29444  23282179.7584   23282174.5984
      2730.4844
 04  9 10 15 48  0.0000000  0  6G 1G11G14G22G25G20
  -5999451.38849  -4669582.69547  21356263.6024   21356259.6214
      1506.6254
  -3265774.54549  -2540478.41147  21410398.0084   21410392.8204
       221.0784
   6542056.25849   5086590.78746  22269689.2734   22269684.3404
     -2687.9694
   7312700.01648   5676574.74643  24231861.4844   24231857.3134
     -2862.7344
  -5794776.26849  -4508493.29247  21100984.8834   21100980.5124
      1202.7034
  -5181136.90248  -4029310.85344  23274388.4844   23274384.0744
      2728.8914
 04  9 10 15 48 15.0000000  0  6G 1G11G14G22G25G20
  -6021999.88349  -4687152.95147  21351972.9064   21351968.9494
      1499.9064
  -3269011.85949  -2543001.01547  21409782.2194   21409776.4774
       210.6414
   6582403.97049   5118030.53446  22277366.7814   22277362.4734
     -2691.6414
   7355666.83348   5710055.34943  24240037.8054   24240033.8714
     -2866.1564
  -5812741.97549  -4522492.55447  21097566.0474   21097561.2624
      1192.8284
  -5222051.34048  -4061192.22344  23266602.5554   23266598.8984
      2726.4694
 04  9 10 15 48 30.0000000  0  6G 1G11G14G22G25G20
  -6044456.93149  -4704651.92947  21347699.2894   21347695.2464
      1494.1414
  -3272100.07149  -2545407.41647  21409194.4454   21409189.3874
       201.0474
   6622798.92149   5149507.08146  22285053.8674   22285049.8134
     -2694.4694
   7398677.70947   5743570.26943  24248222.3134   24248218.6644
     -2868.7974
  -5830568.68549  -4536383.48747  21094173.8914   21094169.5234
      1183.8284
  -5262937.21548  -4093051.33044  23258822.2504   23258818.4964
      2724.7974
 04  9 10 15 48 45.0000000  0  6G 1G11G14G22G25G20
  -6066823.43449  -4722080.37647  21343443.2034   21343439.0824
      1488.1414
  -3275039.97649  -2547698.25147  21408635.0554   21408629.6644
       191.1414
   6663240.06749   5181019.63646  22292749.3984   22292745.2544
     -2697.5474
   7441731.75047   5777118.83743  24256414.8984   24256411.5824
     -2871.6874
  -5848257.16249  -4550166.70747  21090807.8134   21090803.4384
      1174.6724
  -5303795.16148  -4124888.69244  23251047.4304   23251042.2854
      2722.9694
 04  9 10 15 49  0.0000000  0  6G 1G11G14G22G25G20
  -6089100.45249  -4739439.07747  21339203.5704   21339199.9064
      1482.0004
  -3277832.54549  -2549874.29147  21408103.6254   21408098.4844
       181.0944
   6703726.31249   5212567.34446  22300454.4534   22300449.9184
     -2700.7344
   7484827.93247   5810700.21643  24264616.4144   24264611.7384
     -2874.6564
  -5865808.24349  -4563842.86647  21087467.7974   21087463.3134
      1165.3594
  -5344626.15848  -4156705.05244  23243277.4844   23243272.9614
      2720.9694
 04  9 10 15 49 15.0000000  0  6G 1G11G14G22G25G20
  -6111283.22249  -4756724.35147  21334982.7114   21334978.6294
      1475.4694
  -3280473.13348  -2551931.90047  21407601.1484   21407596.0664
       170.7344
   6744262.05149   5244153.59946  22308168.1804   22308163.4414
     -2704.2814
   7527970.97347   5844318.11143  24272826.5704   24272822.4184
     -2878.0624
  -5883217.13648  -4577408.23247  21084155.2974   21084151.0084
      1155.6564
  -5385425.38148  -4188496.64144  23235513.9694   23235509.0704
      2718.6564
 04  9 10 15 49 30.0000000  0  6G 1G11G14G22G25G20
  -6133371.74849  -4773936.19247  21330779.3594   21330775.3914
      1469.3444
  -3282961.58149  -2553870.96347  21407127.7664   21407122.7304
       160.7504
   6784847.10649   5275778.28246  22315890.6484   22315886.8524
     -2707.4374
   7571160.71047   5877972.41043  24281044.4844   24281041.3524
     -2880.9064
  -5900483.63349  -4590862.64447  21080869.2114   21080864.6644
      1146.2974
  -5426192.59248  -4220263.28444  23227756.3674   23227751.2274
      2716.6884
 04  9 10 15 49 45.0000000  0  6G 1G11G14G22G25G20
  -6155368.45649  -4791076.47647  21326593.5314   21326589.8364
      1463.2814
  -3285300.19149  -2555693.27547  21406682.7894   21406677.7034
       150.8284
   6825478.85049   5307439.35346  22323622.4384   22323618.1644
     -2710.4374
   7614394.77646   5911661.24943  24289272.5554   24289268.7344
     -2883.8594
  -5917610.10949  -4604207.93747  21077610.2194   21077605.6134
      1136.9694
  -5466930.11748  -4252006.80144  23220003.3364   23219999.3164
      2714.7814
 04  9 10 15 50  0.0000000  0  6G 1G11G14G22G25G20
  -6177274.10149  -4808145.80247  21322425.1174   21322421.2344
      1457.4064
  -3287489.81849  -2557399.48347  21406266.2974   21406260.6374
       141.0004
   6866156.44749   5339136.15045  22331363.4064   22331359.2034
     -2713.3444
   7657672.31346   5945383.96243  24297506.3594   24297504.5784
     -2886.6724
  -5934597.18049  -4617444.61147  21074377.9844   21074373.2934
      1127.7974
  -5507638.51348  -4283727.62644  23212256.9534   23212253.1134
      2712.9534
 04  9 10 15 50 15.0000000  0  6G 1G11G14G22G25G20
  -6199088.98049  -4825144.41547  21318273.9924   21318269.9024
      1451.2814
  -3289530.59649  -2558989.71747  21405877.7194   21405872.2154
       131.2034
   6906879.36549   5370868.26145  22339113.0234   22339108.1294
     -2716.3124
   7700992.98546   5979140.27643  24305751.3834   24305748.0234
     -2889.4064
  -5951444.97849  -4630572.76647  21071171.9534   21071167.3364
      1118.5634
  -5548317.98648  -4315425.90644  23204516.2734   23204511.5984
      2711.0314
 04  9 10 15 50 30.0000000  0  6G 1G11G14G22G25G20
  -6220813.29449  -4842072.45147  21314139.6954   21314135.9384
      1445.1564
  -3291422.61748  -2560464.02647  21405517.2664   21405512.2304
       121.1254
   6947647.18649   5402635.36245  22346870.6884   22346866.6764
     -2719.4224
   7744356.68847   6012930.13843  24314003.3204   24313999.5234
     -2892.3444
  -5968153.57549  -4643592.44647  21067992.1724   21067988.0084
      1109.1884
  -5588968.43248  -4347101.56944  23196781.1094   23196776.1024
      2709.0004
 04  9 10 15 50 45.0000000  0  6G 1G11G14G22G25G20
  -6242445.64049  -4858928.81747  21310023.3284   21310019.7584
      1439.4694
  -3293164.54849  -2561821.38547  21405185.4774   21405181.1684
       111.3914
   6988461.19749   5434438.45646  22354637.3754   22354633.3094
     -2722.1094
   7787764.78347   6046754.55642  24322263.7814   24322259.5784
     -2894.9844
  -5984721.42749  -4656502.45447  21064839.2344   21064834.5354
      1100.2194
  -5629588.29448  -4378753.40844  23189051.2424   23189046.2424
      2707.2504
 04  9 10 15 51  0.0000000  0  6G 1G11G14G22G25G20
  -6263987.38449  -4875714.57947  21305924.2424   21305920.5744
      1433.1094
  -3294757.71849  -2563062.82947  21404882.7194   21404878.0864
       101.2344
   7029319.84749   5466276.33246  22362413.0394   22362408.2194
     -2725.3594
   7831215.66146   6080612.42742  24330531.7584   24330527.7814
     -2898.0314
  -6001149.65449  -4669303.66247  21061713.4144   21061708.6294
      1090.6414
  -5670178.97748  -4410382.50544  23181326.7504   23181322.5164
      2705.1724
 04  9 10 15 51 15.0000000  0  6G 1G11G14G22G25G20
  -6285436.59249  -4892428.24247  21301841.9144   21301838.7704
      1426.9064
  -3296200.10649  -2564186.76447  21404608.4924   21404603.4574
        91.1254
   7070224.84949   5498150.32545  22370197.0864   22370191.8444
     -2728.4844
   7874711.47046   6114505.14442  24338808.3444   24338805.2194
     -2901.2194
  -6017436.22249  -4681994.49547  21058613.9454   21058609.1524
      1081.1094
  -5710738.33748  -4441987.20744  23173608.5164   23173603.9224
      2702.9384
 04  9 10 15 51 30.0000000  0  6G 1G11G14G22G25G20
  -6306794.41749  -4909070.69147  21297778.0634   21297774.4924
      1420.7344
  -3297492.73149  -2565194.01247  21404362.7894   21404357.4614
        81.0944
   7111174.94449   5530059.45445  22377989.1804   22377984.4344
     -2731.5474
   7918250.87746   6148431.94642  24347093.8524   24347090.2504
     -2904.1874
  -6033582.17949  -4694575.76247  21055541.6024   21055537.0984
      1071.5944
  -5751267.18948  -4473568.12344  23165896.1334   23165892.3134
      2700.8444
 04  9 10 15 51 45.0000000  0  5G 1G11G14G25G20
  -6328059.84649  -4925641.14547  21293731.4534   21293727.2384
      1414.7974
  -3298634.61149  -2566083.79947  21404145.0864   21404139.7974
        71.2504
   7152170.88949   5562004.32145  22385790.2734   22385786.3404
     -2734.4064
  -6049586.43649  -4707046.60047  21052496.0784   21052491.7424
      1062.3594
  -5791764.51948  -4505124.47444  23158189.8284   23158185.5044
      2698.9064
 04  9 10 15 52  0.0000000  0  5G 1G11G14G25G20
  -6349236.30149  -4942142.28547  21289701.3674   21289697.5984
      1408.6724
  -3299629.19249  -2566858.80547  21403955.9144   21403950.6414
        61.2034
   7193209.14849   5593982.15945  22393599.8134   22393595.5594
     -2737.5164
  -6065452.26949  -4719409.58247  21049476.8594   21049472.6454
      1052.9694
  -5832233.56648  -4536658.79344  23150488.4454   23150484.0984
      2696.8754
 04  9 10 15 52 15.0000000  0  5G 1G11G14G25G20
  -6370319.60949  -4958570.82447  21285689.8284   21285685.9774
      1402.6724
  -3300472.19949  -2567515.70047  21403795.9384   21403790.0944
        51.2814
   7234293.67049   5625996.03445  22401418.0394   22401413.9104
     -2740.3124
  -6081175.44049  -4731661.38947  21046484.6414   21046480.6134
      1043.6724
  -5872670.05348  -4568167.71844  23142794.1484   23142788.9414
      2694.8444
 04  9 10 15 52 30.0000000  0  5G 1G11G14G25G20
  -6391311.43949  -4974928.08947  21281694.6484   21281691.1684
      1396.5634
  -3301165.29249  -2568055.78147  21403663.6334   21403658.5984
        41.3594
   7275422.69349   5658044.59845  22409243.9454   22409240.6484
     -2743.2344
  -6096757.45949  -4743803.22747  21043519.8674   21043515.4494
      1034.2504
  -5913075.50248  -4599652.49044  23135105.2504   23135100.3444
      2692.8134
 04  9 10 15 52 45.0000000  0  5G 1G11G14G25G20
  -6412214.52249  -4991216.19547  21277717.2194   21277713.3714
      1390.4064
  -3301711.21349  -2568481.19147  21403559.9454   21403554.8284
        31.3284
   7316593.17349   5690125.44345  22417078.8594   22417075.0474
     -2746.2344
  -6112200.98449  -4755837.14847  21040580.8834   21040576.0274
      1024.8754
  -5953452.41648  -4631115.01644  23127421.1724   23127416.7504
      2690.7504
 04  9 10 15 53  0.0000000  0  5G 1G11G14G25G20
  -6433024.56949  -5007431.80247  21273757.1884   21273753.0474
      1384.4064
  -3302105.57349  -2568788.49347  21403484.7664   21403479.6844
        21.4534
   7357809.25849   5722241.85445  22424922.0164   22424917.8984
     -2749.0624
  -6127501.51549  -4767759.62347  21037669.5164   21037664.7464
      1015.4224
  -5993796.33448  -4662551.82944  23119744.6564   23119739.5004
      2688.6414
 04  9 10 15 53 15.0000000  0  5G 1G11G14G25G20
  -6453742.54149  -5023575.66547  21269814.7424   21269810.7934
      1378.1254
  -3302349.35649  -2568978.47647  21403438.8754   21403433.6024
        11.2504
   7399069.88949   5754392.95445  22432773.7194   22432769.2464
     -2752.1564
  -6142660.02649  -4779571.44747  21034784.4844   21034779.9414
      1005.7974
  -6034108.03948  -4693963.54744  23112073.0864   23112069.0314
      2686.4064
 04  9 10 15 53 30.0000000  0  5G 1G11G14G25G20
  -6474369.58349  -5039648.68647  21265889.6334   21265885.7894
      1371.9694
  -3302443.64749  -2569051.95747  21403420.6024   21403414.6994
         1.1724
   7440373.68249   5786577.70145  22440633.7034   22440629.2464
     -2755.2034
  -6157677.38949  -4791273.29247  21031926.8984   21031922.6174
       996.2974
  -6074388.54248  -4725350.94844  23104408.6414   23104403.7114
      2684.1724
 04  9 10 15 53 45.0000000  0  5G 1G11G14G25G20
  -6494904.01549  -5055649.53047  21261981.8284   21261977.9384
      1365.9064
  -3302386.67849  -2569007.56947  21403431.3594   21403425.9144
        -8.8594
   7481722.15449   5818797.26945  22448501.9844   22448497.8984
     -2758.0784
  -6172551.68849  -4802863.64347  21029096.3914   21029091.4024
       986.8754
  -6114636.01848  -4756712.61544  23096749.8284   23096744.4184
      2682.1094
 04  9 10 15 54  0.0000000  0  5G 1G11G14G25G20
  -6515347.25749  -5071579.32047  21258091.7194   21258087.3754
      1359.7194
  -3302179.72749  -2568846.32747  21403470.2424   21403465.0314
       -18.9064
   7523113.71749   5851050.40745  22456378.7894   22456374.8634
     -2761.0164
  -6187284.31749  -4814343.60847  21026293.1484   21026288.2934
       977.2344
  -6154851.72648  -4788049.51944  23089096.2584   23089091.6094
      2679.8284
 04  9 10 15 54 15.0000000  0  5G 1G11G14G25G20
  -6535697.88149  -5087436.94247  21254218.8754   21254215.2304
      1353.6884
  -3301821.35249  -2568567.07947  21403539.3754   21403533.8134
       -28.8444
   7564549.70249   5883338.15045  22464263.3444   22464259.2194
     -2763.7344
  -6201873.64149  -4825711.90947  21023516.3524   21023511.3714
       968.0004
  -6195033.98448  -4819360.38344  23081450.1414   23081445.1954
      2677.8444
 04  9 10 15 54 30.0000000  0  5G 1G11G14G25G20
  -6555960.53349  -5103226.02547  21250363.2974   21250359.3634
      1347.7034
  -3301316.27849  -2568173.51647  21403635.2504   21403629.9614
       -38.7344
   7606025.29049   5915656.75045  22472156.5164   22472152.0234
     -2766.5314
  -6216324.30749  -4836972.16247  21020766.9614   21020761.5164
       958.5634
  -6235187.35348  -4850648.70644  23073808.7894   23073803.8054
      2675.7814
 04  9 10 15 54 45.0000000  0  5G 1G11G14G25G20
  -6576132.14749  -5118944.14847  21246524.4844   21246520.5704
      1341.8444
  -3300661.42449  -2567663.24747  21403759.9064   21403754.5274
       -48.5624
   7647543.33049   5948008.43645  22480057.0314   22480052.4964
     -2769.1874
  -6230633.19349  -4848121.94847  21018043.8524   21018039.4024
       949.3284
  -6275308.54348  -4881911.98844  23066174.0234   23066168.8524
      2673.8134
 04  9 10 15 55  0.0000000  0  5G 1G11G14G25G20
  -6596215.94649  -5134593.85447  21242702.9064   21242699.3284
      1335.9844
  -3299860.06849  -2567038.82647  21403912.8524   21403906.8914
       -58.3444
   7689100.52049   5980390.63045  22487964.7034   22487960.8914
     -2771.8444
  -6244803.40549  -4859163.66647  21015347.2274   21015342.7854
       940.0634
  -6315400.53949  -4913152.49344  23058545.8524   23058540.5474
      2671.7974
 04  9 10 15 55 15.0000000  0  5G 1G11G14G25G20
  -6616209.29049  -5150173.07547  21238897.8284   21238894.2934
      1329.8594
  -3298909.53149  -2566298.15047  21404092.8834   21404088.0664
       -68.3754
   7730699.12749   6012805.08545  22495881.3054   22495876.3874
     -2774.5624
  -6258832.21649  -4870095.20547  21012678.0944   21012673.2504
       930.5164
  -6355460.65748  -4944368.16644  23050921.9774   23050917.5234
      2669.6094
 04  9 10 15 55 30.0000000  0  5G 1G11G14G25G20
  -6636113.99849  -5165683.22147  21235110.3134   21235107.0704
      1324.0474
  -3297811.47649  -2565442.53347  21404302.2344   21404297.4224
       -78.1724
   7772337.29349   6045250.38445  22503804.6884   22503800.2664
     -2777.1724
  -6272721.24849  -4880917.82247  21010034.8204   21010030.2114
       921.2974
  -6395490.62148  -4975560.33144  23043304.9384   23043299.9264
      2667.6564
 04  9 10 15 55 45.0000000  0  5G 1G11G14G25G20
  -6655928.40049  -5181123.00747  21231339.8674   21231335.9734
      1317.5944
  -3296564.27449  -2564470.69247  21404539.2664   21404534.3444
       -88.4374
   7814016.46949   6077727.63645  22511736.0784   22511731.7504
     -2780.3594
  -6286468.71949  -4891630.13647  21007418.7584   21007413.7424
       911.3914
  -6435488.52948  -5006727.54044  23035693.5084   23035688.4454
      2665.0474
 04  9 10 15 56  0.0000000  0  5G 1G11G14G25G20
  -6675651.03649  -5196491.29547  21227587.2194   21227582.8634
      1311.8754
  -3295166.31949  -2563381.38547  21404805.7584   21404799.6484
       -98.1724
   7855738.05449   6110237.92045  22519675.1024   22519670.6844
     -2782.7194
  -6300073.06049  -4902230.92447  21004829.5474   21004825.5704
       902.2194
  -6475452.65048  -5037868.40944  23028088.5234   23028083.6724
      2663.1564
 04  9 10 15 56 15.0000000  0  5G 1G11G14G25G20
  -6695282.00549  -5211788.14847  21223851.2424   21223847.5044
      1305.8754
  -3293617.70649  -2562174.68047  21405100.1334   21405094.9024
      -108.0474
   7897501.85649   6142781.11245  22527622.8284   22527618.3094
     -2785.4844
  -6313534.04749  -4912720.00148  21002268.5084   21002263.3954
       892.7814
  -6515382.88248  -5068982.86644  23020489.6094   23020485.0044
      2661.0634
 04  9 10 15 56 30.0000000  0  5G 1G11G14G25G20
  -6714821.34049  -5227013.59547  21220132.6644   21220129.3444
      1299.4534
  -3291918.50449  -2560850.63147  21405423.4924   21405418.2234
      -118.4694
   7939307.56549   6175356.96645  22535577.8674   22535573.6804
     -2788.6094
  -6326851.82749  -4923097.48247  20999733.5864   20999729.3914
       882.9224
  -6555279.11648  -5100070.85444  23012898.1334   23012893.4694
      2658.5004
 04  9 10 15 56 45.0000000  0  5G 1G11G14G25G20
  -6734269.12549  -5242167.71047  21216432.0704   21216428.5594
      1293.4844
  -3290068.97449  -2559409.45147  21405774.8754   21405770.5164
      -128.2344
   7981154.82849   6207965.17045  22543541.7274   22543537.5164
     -2791.1414
  -6340026.44849  -4933363.42347  20997227.8134   20997222.5204
       873.5634
  -6595141.33948  -5131132.32044  23005312.7114   23005307.7504
      2656.3754
 04  9 10 15 57  0.0000000  0  5G 1G11G14G25G20
  -6753625.66049  -5257250.71447  21212749.0394   21212745.1414
      1287.3594
  -3288069.09049  -2557851.10247  21406155.8754   21406150.4184
      -138.3284
   8023043.34549   6240605.54845  22551513.1024   22551508.6764
     -2793.9374
  -6353057.88549  -4943517.78347  20994747.1174   20994742.6914
       863.9384
  -6634969.58448  -5162167.31844  22997733.0394   22997728.6724
      2654.0474
 04  9 10 15 57 15.0000000  0  6G 1G11G14G23G25G20
  -6772891.63349  -5272263.15847  21209082.3524   21209078.8324
      1281.2504
  -3285919.67449  -2556176.25047  21406565.0634   21406559.6094
      -148.4224
   8064972.27349   6273277.39745  22559491.4924   22559487.4964
     -2796.7194
   -105622.00156    -67555.36653  24282339.4924   24282332.3794
      2826.2814
  -6365946.79249  -4953561.08447  20992294.5004   20992289.6564
       854.3754
  -6674764.45448  -5193176.29744  22990160.3524   22990155.5394
      2651.7504
 04  9 10 15 57 30.0000000  0  6G 1G11G14G23G25G20
  -6792065.73749  -5287204.00947  21205433.9694   21205430.3484
      1275.2814
  -3283619.36749  -2554383.81047  21407002.7114   21406996.8794
      -158.2664
   8106942.72448   6305981.60545  22567478.0394   22567474.1094
     -2799.2194
   -147994.46546   -100572.86843  24274276.0394   24274269.7704
      2823.3914
  -6378691.83549  -4963492.28347  20989869.5634   20989864.6254
       845.0944
  -6714524.39648  -5224158.07944  22982594.6254   22982589.5824
      2649.6564
 04  9 10 15 57 45.0000000  0  6G 1G11G14G23G25G20
  -6811151.25749  -5302075.82947  21201801.9224   21201798.3674
      1269.4384
  -3281171.49149  -2552476.37647  21407468.6954   21407463.2234
      -168.0784
   8148951.20548   6338715.44245  22575471.7734   22575468.1564
     -2801.7814
   -190323.88946   -133556.80742  24266220.1024   24266214.5944
      2820.5634
  -6391296.12849  -4973313.79547  20987470.7894   20987466.0314
       835.6094
  -6754252.56548  -5255115.08544  22975034.6484   22975029.4264
      2647.5634
 04  9 10 15 58  0.0000000  0  6G 1G11G14G23G25G20
  -6830148.27549  -5316878.69247  21198186.7034   21198183.1524
      1263.3594
  -3278576.04749  -2550453.97147  21407962.2344   21407958.1484
      -178.1414
   8190997.46648   6371478.73245  22583473.1094   22583469.7384
     -2804.5624
   -232610.26845   -166507.23042  24258173.1564   24258167.7034
      2817.4694
  -6403759.59549  -4983025.59547  20985099.2734   20985094.6994
       826.0314
  -6793948.74449  -5286047.17744  22967480.8364   22967475.7464
      2645.0944
 04  9 10 15 58 15.0000000  0  6G 1G11G14G23G25G20
  -6849055.22349  -5331611.37347  21194588.9384   21194585.1724
      1257.4384
  -3275831.32449  -2548315.23247  21408484.7734   21408479.5864
      -187.9534
   8233083.07248   6404272.66945  22591482.1254   22591477.5634
     -2806.9844
   -274851.86846   -199422.75042  24250136.5164   24250129.3714
      2814.5474
  -6416080.60149  -4992626.35947  20982754.3754   20982750.1414
       816.7194
  -6833611.24549  -5316953.03144  22959932.9384   22959928.0594
      2643.0944
 04  9 10 15 58 30.0000000  0  6G 1G11G14G23G25G20
  -6867871.37449  -5346273.30547  21191008.3444   21191004.7584
      1251.4064
  -3272936.79049  -2546059.76947  21409035.7974   21409030.6334
      -197.9374
   8275208.48148   6437097.63745  22599497.7584   22599494.0704
     -2809.7034
   -317047.85945   -232302.71042  24242104.6724   24242099.2584
      2811.5314
  -6428258.31049  -5002115.48647  20980437.1804   20980432.4304
       807.0784
  -6873239.20548  -5347831.96144  22952391.9384   22952387.3244
      2640.7034
 04  9 10 15 58 45.0000000  0  6G 1G11G14G23G25G20
  -6886596.82549  -5360864.54947  21187445.2424   21187441.4454
      1245.5004
  -3269892.50449  -2543687.60947  21409614.7424   21409609.3164
      -207.8444
   8317373.37248   6469953.35145  22607521.7504   22607517.9064
     -2812.2194
   -359198.33445   -265147.23242  24234083.7114   24234079.5234
      2808.4694
  -6440292.78349  -5011492.99447  20978146.8594   20978142.4804
       797.6094
  -6912832.56748  -5378683.92744  22944857.7034   22944852.9614
      2638.4694
 04  9 10 15 59  0.0000000  0  6G 1G11G14G23G25G20
  -6905233.17749  -5375386.36947  21183898.6564   21183894.8094
      1239.2814
  -3266699.96249  -2541199.92747  21410222.6954   21410216.8444
      -217.9844
   8359576.09848   6502838.55845  22615552.1804   22615548.9024
     -2815.0004
   -401304.90145   -297957.52342  24226073.0164   24226067.4494
      2805.4384
  -6452185.45049  -5020760.00447  20975883.8674   20975879.3094
       787.9534
  -6952392.77548  -5409510.05344  22937329.0864   22937325.2504
      2636.1254
 04  9 10 15 59 15.0000000  0  6G 1G11G14G23G25G20
  -6923777.22349  -5389836.26847  21180370.1644   21180366.1804
      1233.2194
  -3263355.86049  -2538594.15047  21410858.7734   21410853.0824
      -227.9844
   8401819.76348   6535755.67745  22623591.3054   22623587.6604
     -2817.5474
   -443364.10745   -330730.95142  24218068.2584   24218063.0864
      2802.4534
  -6463932.97549  -5029913.91547  20973648.4694   20973643.5084
       778.3284
  -6991916.30748  -5440307.61944  22929808.8284   22929803.8954
      2633.6414
 04  9 10 15 59 30.0000000  0  6G 1G11G14G23G25G20
  -6942233.62949  -5404217.87847  21176857.7034   21176854.1524
      1227.3134
  -3259865.15549  -2535874.13047  21411523.1024   21411517.3794
      -237.7974
   8444099.44448   6568700.84945  22631637.0164   22631632.7504
     -2820.0314
   -485380.61345   -363471.04942  24210073.8134   24210067.5514
      2799.4064
  -6475540.01049  -5038958.36047  20971439.6254   20971435.3484
       768.9534
  -7031407.64848  -5471080.10244  22922293.7034   22922288.8794
      2631.5004
 04  9 10 15 59 45.0000000  0  6G 1G11G14G23G25G20
  -6960597.54549  -5418527.42047  21173363.3754   21173359.6954
      1221.2814
  -3256222.82849  -2533035.95847  21412216.0944   21412211.1024
      -247.9374
   8486419.87648   6601677.77445  22639690.1884   22639686.2704
     -2822.5784
   -527349.44146   -396173.99542  24202088.2194   24202080.8484
      2796.5164
  -6487001.62749  -5047889.48547  20969258.6094   20969254.3874
       759.3914
  -7070861.89448  -5501823.66944  22914785.5944   22914780.7114
      2629.1414
 04  9 10 16  0  0.0000000  0  6G 1G11G14G23G25G20
  -6978871.65449  -5432766.97847  21169885.8284   21169881.7814
      1215.1094
  -3252431.47149  -2530081.65447  21412937.7664   21412932.7274
      -257.9694
   8528778.30448   6634684.31245  22647751.0634   22647747.1294
     -2825.4064
   -569273.15946   -428841.80443  24194108.8914   24194102.6644
      2793.2194
  -6498320.27549  -5056709.20447  20967104.4224   20967100.1374
       749.5944
  -7110281.39948  -5532540.17344  22907284.4304   22907279.5984
      2626.6254
 04  9 10 16  0 15.0000000  0  6G 1G11G14G23G25G20
  -6997053.87049  -5446934.93447  21166425.5634   21166422.1484
      1209.1564
  -3248488.92149  -2527009.54447  21413687.6884   21413682.6454
      -267.6874
   8571176.60448   6667721.92045  22655818.5554   22655814.8794
     -2827.7664
   -611149.50145   -461472.71842  24186139.5084   24186134.7734
      2790.3754
  -6509493.75549  -5065415.79947  20964978.4614   20964974.1334
       740.1254
  -7149663.87848  -5563227.81344  22899790.2034   22899785.8594
      2624.3914
 04  9 10 16  0 30.0000000  0  6G 1G11G14G23G25G20
  -7015149.14849  -5461035.13847  21162982.4384   21162978.8094
      1202.9534
  -3244400.12949  -2523823.47647  21414465.8984   21414460.9064
      -277.9844
   8613609.71148   6700786.64645  22663893.4534   22663889.7814
     -2830.4844
   -652983.32846   -494070.52642  24178179.7664   24178173.9694
      2787.0784
  -6520526.92549  -5074013.07947  20962878.7504   20962874.2624
       730.4534
  -7189014.07948  -5593890.30644  22892301.6884   22892297.6724
      2621.7664
 04  9 10 16  0 45.0000000  0  6G 1G11G14G23G25G20
  -7033152.02749  -5475063.34847  21159556.3284   21159553.0394
      1197.0474
  -3240159.94149  -2520519.44447  21415272.6644   21415267.4224
      -287.7034
   8656082.92748   6733882.63145  22671976.8054   22671971.8484
     -2832.9064
   -694769.09146   -526630.86142  24170226.9384   24170221.4844
      2784.0314
  -6531414.34849  -5082496.77647  20960807.1954   20960802.0664
       720.9844
  -7228326.37748  -5624523.24845  22884820.7894   22884816.4344
      2619.5474
 04  9 10 16  1  0.0000000  0  6G 1G11G14G23G25G20
  -7051065.58149  -5489021.94947  21156147.5314   21156143.6334
      1191.1254
  -3235771.21749  -2517099.66347  21416108.0084   21416102.2464
      -297.6254
   8698593.03648   6767007.36745  22680065.7274   22680061.8594
     -2835.3754
   -736509.82946   -559156.09243  24162284.0944   24162278.9494
      2781.1724
  -6542158.92949  -5090869.16347  20958762.6334   20958758.2854
       711.4384
  -7267603.69048  -5655128.92645  22877346.8204   22877342.5044
      2617.2344
 04  9 10 16  1 15.0000000  0  6G 1G11G14G23G25G20
  -7068889.09249  -5502910.40147  21152756.1884   21152752.5314
      1185.2814
  -3231233.27049  -2513563.60647  21416971.6254   21416965.9654
      -307.4374
   8741140.58948   6800161.26545  22688162.1644   22688158.0594
     -2837.6724
   -778204.71547   -591645.61843  24154350.8134   24154344.6214
      2778.2034
  -6552759.85849  -5099129.62147  20956745.3364   20956740.5474
       702.1094
  -7306845.18448  -5685706.72945  22869879.5004   22869874.6484
      2615.0164
 04  9 10 16  1 30.0000000  0  6G 1G11G14G23G25G20
  -7086621.94149  -5516728.20847  21149381.6644   21149377.8914
      1179.0944
  -3226545.62449  -2509910.90847  21417863.5084   21417858.1254
      -317.5474
   8783726.01948   6833344.68345  22696265.8674   22696261.9574
     -2840.3444
   -819853.08047   -624098.86642  24146425.3834   24146418.9884
      2774.9844
  -6563216.38349  -5107277.56547  20954755.4304   20954750.7814
       692.2814
  -7346049.94148  -5716255.87845  22862419.1564   22862414.2074
      2612.4384
 04  9 10 16  1 45.0000000  0  6G 1G11G14G23G25G20
  -7104264.83749  -5530475.90647  21146024.0634   21146020.3164
      1173.2194
  -3221708.81449  -2506141.97147  21418783.9534   21418778.7504
      -327.4694
   8826348.54748   6866557.01845  22704376.6024   22704373.0944
     -2842.7814
   -861455.48247   -656516.31143  24138508.0704   24138502.5704
      2771.9064
  -6573529.28049  -5115313.58047  20952792.6564   20952787.8164
       682.7034
  -7385218.51248  -5746776.84445  22854965.6884   22854961.0274
      2609.9384
 04  9 10 16  2  0.0000000  0  6G 1G11G14G23G25G20
  -7121816.50549  -5544152.52447  21142684.2114   21142680.3714
      1167.2034
  -3216721.45849  -2502255.72847  21419733.2504   21419727.8324
      -337.2974
   8869009.27948   6899799.12045  22712494.5234   22712491.0124
     -2845.1414
   -903010.62348   -688896.95443  24130601.2734   24130595.6954
      2769.0314
  -6583697.18449  -5123236.62447  20950857.8674   20950853.2664
       673.2194
  -7424349.48848  -5777268.50244  22847519.2974   22847514.8594
      2607.6884
 04  9 10 16  2 15.0000000  0  6G 1G11G14G23G25G20
  -7139277.07849  -5557758.15647  21139361.6724   21139358.0594
      1160.9224
  -3211583.69249  -2498252.28047  21420710.6414   21420705.2584
      -347.6254
   8911707.87448   6933070.72245  22720620.2584   22720616.9184
     -2847.9694
   -944518.45048   -721240.69043  24122701.8204   24122696.6134
      2765.5784
  -6593720.08349  -5131046.65947  20948950.4694   20948946.3324
       663.2814
  -7463442.75247  -5807730.78144  22840079.5554   22840075.8444
      2604.8134
 04  9 10 16  2 30.0000000  0  6G 1G11G14G23G25G20
  -7156649.50549  -5571295.11047  21136055.8364   21136052.0314
      1155.2504
  -3206298.59249  -2494134.03647  21421716.7344   21421711.4454
      -357.2344
   8954441.31748   6966369.48545  22728752.4224   22728748.3834
     -2850.1094
   -985981.78048   -753549.76943  24114812.0704   24114806.3404
      2762.7034
  -6603600.60849  -5138745.75947  20947070.6174   20947066.1644
       654.0314
  -7502501.00847  -5838165.78645  22832647.8364   22832642.8554
      2602.6564
 04  9 10 16  2 45.0000000  0  6G 1G11G14G23G25G20
  -7173930.03849  -5584760.45347  21132767.3914   21132763.5704
      1149.0164
  -3200862.44349  -2489898.09347  21422750.9384   21422745.5274
      -367.3914
   8997213.33948   6999698.28945  22736890.5944   22736887.7274
     -2852.6414
  -1027396.63348   -785821.05343  24106931.3914   24106925.5514
      2759.4534
  -6613334.99649  -5146330.99747  20945218.5004   20945213.3954
       644.1254
  -7541520.31047  -5868570.43445  22825222.2734   22825217.2544
      2600.0164
 04  9 10 16  3  0.0000000  0  6G 1G11G14G23G25G20
  -7191116.93949  -5598152.84147  21129496.8524   21129493.0664
      1142.6724
  -3195273.33149  -2485542.95747  21423814.6174   21423809.7504
      -377.7814
   9040025.47048   7033058.37145  22745038.1804   22745034.2704
     -2855.4844
  -1068761.34247   -818053.27743  24099059.6564   24099054.2304
      2755.9384
  -6622921.55749  -5153801.03547  20943394.0394   20943389.1804
       634.0944
  -7580498.69147  -5898943.18044  22817804.9064   22817800.5984
      2597.2194
 04  9 10 16  3 15.0000000  0  6G 1G11G14G23G25G20
  -7208209.29949  -5611471.55247  21126244.4064   21126239.8484
      1136.5314
  -3189530.55649  -2481068.07347  21424907.2344   21424902.1604
      -387.7344
   9082878.42848   7066450.25745  22753193.1644   22753189.4144
     -2858.0164
  -1110075.00247   -850245.72343  24091197.4454   24091192.6214
      2752.7814
  -6632359.26549  -5161155.08947  20941597.7814   20941592.7624
       624.3754
  -7619435.17648  -5929283.30744  22810395.4144   22810391.1054
      2594.5944
 04  9 10 16  3 30.0000000  0  6G 1G11G14G23G25G20
  -7225211.45049  -5624719.98547  21123008.8984   21123004.4924
      1130.2664
  -3183638.38749  -2476476.77847  21426028.3914   21426023.2074
      -398.0164
   9125767.70748   7099870.46045  22761354.4924   22761350.4614
     -2860.7194
  -1151341.69647   -882401.61043  24083345.1334   24083339.6334
      2749.2974
  -6641652.27149  -5168396.38547  20939829.5704   20939824.6764
       614.4694
  -7658333.72648  -5959593.86345  22802993.6094   22802988.9884
      2591.7034
 04  9 10 16  3 45.0000000  0  6G 1G11G14G23G25G20
  -7242122.05349  -5637897.08547  21119790.4224   21119786.8014
      1124.4844
  -3177595.41349  -2471767.99347  21427178.5314   21427173.9574
      -407.7974
   9168694.57848   7133319.92945  22769523.2344   22769519.6094
     -2862.9534
  -1192560.02247   -914519.75743  24075501.4304   24075495.8164
      2746.4064
  -6650799.14549  -5175523.80847  20938089.1024   20938084.1764
       605.1094
  -7697192.90048  -5989873.74845  22795598.4224   22795593.7544
      2589.4844
 04  9 10 16  4  0.0000000  0  6G 1G11G14G23G25G20
  -7258943.86649  -5651004.98047  21116589.8444   21116586.1414
      1118.4064
  -3171404.49849  -2466943.90947  21428356.8284   21428351.2384
      -417.7344
   9211656.15048   7166796.45745  22777698.7114   22777694.5784
     -2865.3914
  -1233732.58447   -946602.26743  24067666.6884   24067660.4734
      2743.2194
  -6659802.60749  -5182539.48747  20936375.5394   20936371.0784
       595.3594
  -7736015.16948  -6020124.86144  22788211.0084   22788206.4654
      2586.8754
 04  9 10 16  4 15.0000000  0  6G 1G11G14G23G25G20
  -7275675.96849  -5664042.97547  21113405.8524   21113402.1174
      1112.2034
  -3165064.57549  -2462003.72447  21429563.1414   21429557.9414
      -427.9694
   9254653.24848   7200300.65645  22785880.1954   22785876.7894
     -2867.9374
  -1274858.39647   -978648.35843  24059840.7814   24059834.4494
      2739.7814
  -6668661.78549  -5189442.74147  20934689.4614   20934684.9414
       585.4534
  -7774799.54748  -6050346.45144  22780830.5474   22780825.6564
      2584.0474
 04  9 10 16  4 30.0000000  0  6G 1G11G14G23G25G20
  -7292314.78149  -5677008.28547  21110239.6884   21110235.7814
      1106.1414
  -3158572.20449  -2456944.75547  21430798.9924   21430793.3754
      -437.8594
   9297689.19548   7233835.11244  22794070.2194   22794066.5164
     -2870.3284
  -1315933.86947  -1010655.21543  24052024.2814   24052018.8834
      2736.7974
  -6677372.85749  -5196230.58147  20933032.2734   20933027.3914
       575.8914
  -7813542.18748  -6080535.51445  22773458.3284   22773453.4494
      2581.4384
 04  9 10 16  4 45.0000000  0  6G 1G11G14G23G25G20
  -7308862.10849  -5689902.31247  21107090.8834   21107086.9734
      1099.9064
  -3151929.17949  -2451768.37247  21432062.7424   21432057.8284
      -448.0784
   9340762.21548   7267398.47645  22802266.8834   22802263.1994
     -2872.9694
  -1356960.51047  -1042624.01943  24044217.2114   24044211.4774
      2733.2034
  -6685937.56149  -5202904.37047  20931402.2894   20931397.1174
       565.8284
  -7852244.67848  -6110693.29844  22766093.4224   22766088.5204
      2578.6094
 04  9 10 16  5  0.0010000  0  6G 1G11G14G23G25G20
  -7325319.99349  -5702726.63247  21103958.5754   21103954.6144
      1094.3134
  -3145135.98349  -2446474.98047  21433355.2864   21433350.2714
      -457.7034
   9383873.97048   7300992.02044  22810471.0364   22810466.7434
     -2874.9224
  -1397942.03247  -1074557.66543  24036417.0994   24036413.2714
      2730.4534
  -6694357.30249  -5209465.20547  20929799.9894   20929795.4504
       556.6254
  -7890910.22748  -6140822.29244  22758735.5444   22758730.8024
      2576.4064
 04  9 10 16  5 15.0010000  0  6G 1G11G14G23G25G20
  -7341687.08249  -5715480.19147  21100844.2314   21100840.2784
      1088.0474
  -3138194.32649  -2441065.91247  21434676.5214   21434671.4074
      -467.7974
   9427017.94648   7334610.66845  22818680.7784   22818676.0714
     -2877.5164
  -1438873.69547  -1106452.44742  24028628.9354   24028624.0754
      2727.1564
  -6702631.79449  -5215912.85047  20928225.2634   20928221.3494
       546.7344
  -7929534.39647  -6170919.02745  22751384.6774   22751380.6494
      2573.5784
 04  9 10 16  5 30.0010000  0  6G 1G11G14G23G25G20
  -7357964.18049  -5728163.63647  21097746.6534   21097742.8174
      1081.9844
  -3131103.63649  -2435540.71547  21436025.6614   21436020.4814
      -477.9224
   9470197.02748   7368256.69244  22826898.1304   22826893.9744
     -2879.9534
  -1479757.88747  -1138310.20643  24020848.5214   24020843.7044
      2723.8134
  -6710761.26449  -5222247.49647  20926678.1854   20926673.7244
       537.0004
  -7968119.36448  -6200985.24045  22744042.7004   22744038.1424
      2570.8754
 04  9 10 16  5 45.0010000  0  6G 1G11G14G23G25G20
  -7374151.97149  -5740777.49547  21094666.3104   21094662.6064
      1076.0314
  -3123864.52849  -2429899.86847  21437403.2164   21437398.0994
      -487.7504
   9513410.36748   7401929.38044  22835120.8884   22835116.5244
     -2882.2504
  -1520595.13447  -1170131.44443  24013077.1464   24013072.5794
      2720.7814
  -6718746.38749  -5228469.65347  20925158.6384   20925154.3134
       527.3284
  -8006665.49148  -6231021.18945  22736707.9274   22736703.5564
      2568.2974
 04  9 10 16  6  0.0010000  0  6G 1G11G14G23G25G20
  -7390246.25949  -5753318.49547  21091603.6304   21091599.5874
      1069.8754
  -3116472.69149  -2424140.00647  21438809.8254   21438804.9894
      -497.8444
   9556662.09248   7435631.99745  22843351.6144   22843347.6264
     -2884.7194
  -1561381.11847  -1201912.71443  24005315.7084   24005311.2634
      2717.4534
  -6726582.71649  -5234575.88547  20923667.7784   20923662.9704
       517.4844
  -8045168.43748  -6261023.47445  22729381.6464   22729376.9744
      2565.4384
 04  9 10 16  6 15.0010000  0  6G 1G11G14G23G25G20
  -7406250.24849  -5765789.14747  21088558.3414   21088554.4814
      1063.7814
  -3108931.39549  -2418263.70347  21440244.9894   21440240.1184
      -507.8914
   9599948.86548   7469361.91244  22851588.2164   22851584.4074
     -2887.0474
  -1602118.92547  -1233656.47043  23997564.3564   23997559.2554
      2714.0314
  -6734273.42349  -5240568.64547  20922204.3884   20922199.8684
       507.7194
  -8083631.18848  -6290994.44145  22722061.8964   22722057.3994
      2562.5944
 04  9 10 16  6 30.0010000  0  6G 1G11G14G23G25G20
  -7422162.05749  -5778187.95347  21085530.3414   21085526.3964
      1057.6094
  -3101238.94849  -2412269.60247  21441709.1854   21441703.5174
      -517.9844
   9643272.48648   7503120.55244  22859832.8024   22859828.5174
     -2889.5944
  -1642806.60948  -1265361.15343  23989822.0834   23989816.2634
      2710.7814
  -6741816.57549  -5246446.41347  20920768.8804   20920764.3644
       497.8594
  -8122051.66548  -6320932.47645  22714750.6774   22714746.1854
      2559.7974
 04  9 10 16  6 45.0010000  0  6G 1G11G14G23G25G20
  -7437981.79449  -5790514.99747  21082520.0524   21082515.9504
      1051.7344
  -3093395.44949  -2406157.79247  21443201.9194   21443196.4974
      -527.9224
   9686632.60548   7536907.62744  22868083.9814   22868079.9154
     -2891.8444
  -1683444.10948  -1297026.70643  23982089.3414   23982083.2204
      2707.5314
  -6749212.06849  -5252209.13047  20919361.4114   20919356.7354
       488.1254
  -8160429.70848  -6350837.43445  22707447.3644   22707442.8254
      2557.1564
 04  9 10 16  7  0.0010000  0  6G 1G11G14G23G25G20
  -7453711.24749  -5802771.72347  21079526.7394   21079523.0214
      1045.7194
  -3085402.59149  -2399929.60747  21444722.5444   21444717.4974
      -537.6874
   9730027.35348   7570721.69644  22876341.3254   22876337.3724
     -2894.0314
  -1724033.18848  -1328654.57243  23974365.0054   23974359.5634
      2704.3914
  -6756461.76149  -5257858.23847  20917981.3564   20917977.2314
       478.5784
  -8198766.98548  -6380710.65245  22700152.0134   22700147.4974
      2554.5784
 04  9 10 16  7 15.0010000  0  6G 1G11G14G23G25G20
  -7469350.70049  -5814958.30447  21076550.5134   21076546.4464
      1039.6094
  -3077260.66549  -2393585.25947  21446271.7084   21446267.2434
      -547.7504
   9773456.38448   7604562.45644  22884606.1534   22884602.1384
     -2896.3284
  -1764573.99848  -1360244.80843  23966650.8724   23966644.4934
      2701.0474
  -6763565.87149  -5263393.89747  20916629.8414   20916625.3254
       468.7344
  -8237063.41248  -6410552.03045  22692864.8884   22692859.7124
      2551.7814
 04  9 10 16  7 30.0010000  0  6G 1G11G14G23G25G20
  -7484902.48449  -5827076.56847  21073591.5674   21073587.0524
      1033.7034
  -3068972.04449  -2387126.62547  21447848.6854   21447843.7394
      -557.7194
   9816917.13448   7638427.94244  22892875.9274   22892872.3764
     -2898.6724
  -1805068.86848  -1391799.23843  23958945.1224   23958939.0794
      2697.8754
  -6770526.69249  -5268817.91447  20915305.4034   20915301.2354
       459.0474
  -8275321.22648  -6440363.30845  22685584.4194   22685580.0444
      2548.9694
 04  9 10 16  7 45.0010000  0  6G 1G11G14G23G25G20
  -7500362.32649  -5839123.20247  21070649.5364   21070645.2354
      1027.7814
  -3060532.55549  -2380550.41247  21449454.7004   21449449.6144
      -567.4534
   9860413.89248   7672321.48244  22901153.3334   22901149.7084
     -2900.8124
  -1845513.35147  -1423314.40943  23951247.3804   23951242.5754
      2694.7974
  -6777339.79449  -5274126.82547  20914008.6064   20914004.2044
       449.4534
  -8313535.91148  -6470140.97045  22678312.6144   22678308.4424
      2546.3754
 04  9 10 16  8  0.0010000  0  6G 1G11G14G23G25G20
  -7515734.51749  -5851101.52347  21067724.2784   21067720.2514
      1022.0634
  -3051946.40849  -2373859.93147  21451088.8334   21451083.5914
      -577.1254
   9903942.18248   7706239.58944  22909436.9584   22909432.8804
     -2902.7344
  -1885911.58347  -1454793.54743  23943559.9034   23943555.8604
      2691.9064
  -6784009.36449  -5279323.89147  20912739.7554   20912735.4974
       440.0474
  -8351711.49749  -6499888.17545  22671047.8884   22671043.9624
      2543.9064
 04  9 10 16  8 15.0010000  0  6G 1G11G14G23G25G20
  -7531014.48849  -5863007.99547  21064816.7084   21064812.3374
      1015.6884
  -3043209.16949  -2367051.70247  21452751.6304   21452746.4354
      -587.5004
   9947506.47448   7740185.76144  22917726.7864   22917722.6884
     -2905.3914
  -1926258.94248  -1486233.03343  23935883.0914   23935877.2744
      2688.2504
  -6790530.78449  -5284405.51447  20911498.6924   20911494.1144
       429.9064
  -8389843.23249  -6529601.21445  22663792.0214   22663787.5284
      2540.7504
 04  9 10 16  8 30.0010000  0  6G 1G11G14G23G25G20
  -7546203.62449  -5874843.68247  21061926.2784   21061922.1614
      1009.4694
  -3034322.18249  -2360126.80347  21454442.5364   21454437.4354
      -597.5314
   9991105.29348   7774158.82944  22926022.9194   22926019.2474
     -2907.7344
  -1966556.70047  -1517633.89443  23928213.6064   23928209.3724
      2684.7194
  -6796905.35549  -5289372.70147  20910285.4814   20910280.9384
       420.0474
  -8427932.24948  -6559280.95845  22656543.6534   22656538.7244
      2537.8134
 04  9 10 16  8 45.0010000  0  6G 1G11G14G23G25G20
  -7561303.56449  -5886609.87547  21059052.8104   21059048.7354
      1003.6884
  -3025287.19949  -2353086.56647  21456162.1304   21456156.7124
      -607.2664
  10034736.82548   7808157.39744  22934325.8964   22934322.2244
     -2909.8914
  -2006806.42948  -1548997.29243  23920555.5054   23920549.7124
      2681.7814
  -6803134.71349  -5294226.74047  20909100.1304   20909095.4704
       410.4534
  -8465980.04048  -6588928.59545  22649304.0134   22649298.9114
      2535.1414
 04  9 10 16  9  0.0010000  0  6G 1G11G14G23G25G20
  -7576312.28949  -5898304.98147  21056196.3494   21056192.3374
       997.5784
  -3016102.12549  -2345929.38247  21457910.1774   21457904.9274
      -617.3594
  10078402.99248   7842182.95844  22942635.2864   22942632.0484
     -2912.2034
  -2047005.76347  -1580321.42843  23912905.4664   23912900.1964
      2678.3754
  -6809216.81249  -5298966.03947  20907942.8104   20907938.5834
       400.5634
  -8503984.28148  -6618542.28745  22642071.7084   22642066.9584
      2532.1254
 04  9 10 16  9 15.0010000  0  6G 1G11G14G23G25G20
  -7591230.89349  -5909929.85847  21053357.5444   21053353.6424
       991.4844
  -3006768.07149  -2338656.09947  21459685.8964   21459680.9854
      -627.3444
  10122102.57648   7876234.53844  22950951.6614   22950947.8534
     -2914.4534
  -2087155.82147  -1611607.18243  23905264.6384   23905259.9664
      2674.9384
  -6815152.64449  -5303591.35847  20906813.0054   20906808.7124
       390.7504
  -8541945.83948  -6648122.71645  22634847.7784   22634843.2044
      2529.2504
 04  9 10 16  9 30.0010000  0  6G 1G11G14G23G25G20
  -7606058.35249  -5921483.73347  21050535.6854   21050531.8374
       985.6564
  -2997284.10649  -2331266.00647  21461490.8104   21461485.9274
      -637.0474
  10165836.51248   7910312.87844  22959273.5444   22959270.5484
     -2916.5314
  -2127255.71647  -1642853.83043  23897634.3334   23897628.6734
      2671.8754
  -6820940.98949  -5308101.76347  20905711.8884   20905707.0324
       381.1884
  -8579863.58248  -6677669.01745  22627632.0754   22627627.7314
      2526.6094
 04  9 10 16  9 45.0010000  0  6G 1G11G14G23G25G20
  -7620795.81549  -5932967.47047  21047731.4894   21047727.4974
       979.5314
  -2987651.27049  -2323759.90947  21463323.8724   21463319.0954
      -647.0944
  10209603.59949   7944417.07444  22967602.8964   22967598.5754
     -2918.8754
  -2167306.18748  -1674061.99843  23890013.1694   23890006.6814
      2668.4534
  -6826583.06049  -5312498.17947  20904638.0674   20904633.4424
       371.3444
  -8617738.27749  -6707181.76645  22620424.7164   22620420.6494
      2523.5784
 04  9 10 16 10  0.0010000  0  6G 1G11G14G23G25G20
  -7635441.91349  -5944380.00847  21044944.4504   21044940.1614
       973.4534
  -2977868.29249  -2316136.81847  21465185.9034   21465180.3964
      -657.2194
  10253405.10448   7978548.10144  22975938.2004   22975933.4784
     -2921.2664
  -2207305.85048  -1705230.55943  23882401.1854   23882394.4194
      2664.9694
  -6832077.43848  -5316779.50047  20903592.5754   20903588.0674
       361.3914
  -8655568.40349  -6736659.78145  22613225.7314   22613221.4314
      2520.5474
 04  9 10 16 10 15.0010000  0  6G 1G11G14G23G25G20
  -7649997.65449  -5955722.15347  21042174.9424   21042170.9894
       967.2974
  -2967936.30949  -2308397.62047  21467075.3564   21467070.7354
      -667.1254
  10297239.75648   8012704.92444  22984279.2004   22984275.1184
     -2923.4694
  -2247255.75647  -1736360.37243  23874798.9814   23874792.4624
      2661.5944
  -6837425.08449  -5320946.48747  20902575.0214   20902570.2904
       351.6414
  -8693354.80149  -6766103.71845  22606035.3174   22606031.0634
      2517.6094
 04  9 10 16 10 30.0010000  0  6G 1G11G14G23G25G20
  -7664461.88449  -5966992.98047  21039422.2314   21039418.2004
       961.3284
  -2957854.21248  -2300541.46047  21468993.9744   21468989.0054
      -677.0164
  10341108.56548   8046888.40244  22992626.5604   22992623.1144
     -2925.6094
  -2287154.59148  -1767450.31443  23867206.5524   23867201.1344
      2658.3594
  -6842624.80249  -5324998.22247  20901585.1614   20901580.6884
       341.7664
  -8731096.08449  -6795512.51445  22598853.3414   22598848.9194
      2514.6564
 04  9 10 16 10 45.0010000  0  6G 1G11G14G23G25G20
  -7678834.86149  -5978192.69747  21036687.1384   21036683.1424
       955.2194
  -2947622.22349  -2292568.48647  21470940.8174   21470936.4584
      -687.0624
  10385011.23148   8081098.22644  23000981.2004   23000977.7204
     -2927.9374
  -2327002.51048  -1798500.65943  23859623.4664   23859618.8254
      2654.8284
  -6847676.73949  -5328934.79247  20900624.0834   20900619.5324
       331.9694
  -8768792.27349  -6824886.17045  22591680.1144   22591675.9424
      2511.6254
 04  9 10 16 11  0.0010000  0  6G 1G11G14G23G25G20
  -7693119.18449  -5989323.34147  21033968.5914   21033964.9424
       949.2974
  -2937243.14549  -2284480.91747  21472916.3494   21472911.4314
      -696.8594
  10428945.05848   8115332.34444  23009342.2244   23009338.0214
     -2930.0164
  -2366801.96548  -1829513.20443  23852049.7084   23852044.9354
      2651.6254
  -6852583.41949  -5332758.17547  20899690.3724   20899685.5484
       322.2504
  -8806445.76849  -6854226.56145  22584514.7554   22584510.3254
      2508.7194
 04  9 10 16 11 15.0010000  0  6G 1G11G14G23G25G20
  -7707314.34849  -6000384.50947  21031267.8804   21031263.3534
       943.2974
  -2926716.53349  -2276278.39747  21474919.5524   21474914.6924
      -706.7814
  10472910.39748   8149590.99844  23017707.5364   23017703.8964
     -2932.1414
  -2406552.33348  -1860487.51143  23844486.8254   23844480.8134
      2648.3134
  -6857344.26349  -5336467.93047  20898784.4584   20898780.0604
       312.4224
  -8844055.81549  -6883533.09945  22577358.1614   22577353.8604
      2505.7974
 04  9 10 16 11 30.0010000  0  6G 1G11G14G23G25G20
  -7721418.35049  -6011374.63847  21028583.9354   21028579.6774
       937.1884
  -2916040.09249  -2267959.11747  21476951.2164   21476946.2044
      -716.7664
  10516909.26648   8183875.80944  23026081.2004   23026076.8884
     -2934.4534
  -2446251.47948  -1891421.89843  23836930.7864   23836925.7354
      2644.8754
  -6861957.16649  -5340062.39547  20897906.4894   20897902.0524
       302.6564
  -8881620.14349  -6912804.00445  22570209.9354   22570205.3534
      2502.7974
 04  9 10 16 11 45.0010000  0  6G 1G11G14G23G25G20
  -7735431.61349  -6022294.06447  21025917.2784   21025913.1924
       931.3754
  -2905214.34148  -2259523.50047  21479011.2314   21479005.8604
      -726.5784
  10560941.04948   8218186.26044  23034459.3564   23034455.6884
     -2936.4374
  -2485899.67847  -1922316.60643  23829386.3964   23829380.7784
      2641.6564
  -6866422.55349  -5343541.91247  20897056.9664   20897052.5834
       292.9384
  -8919138.86649  -6942039.37245  22563069.9504   22563064.5604
      2499.9224
 04  9 10 16 12  0.0010000  0  6G 1G11G14G23G25G20
  -7749355.22849  -6033143.63447  21023267.1774   21023263.3604
       925.0944
  -2894240.47349  -2250972.46547  21481099.8564   21481094.3764
      -736.6874
  10605004.52448   8252521.40844  23042844.9814   23042841.0994
     -2938.7034
  -2525498.01948  -1953172.44843  23821851.3254   23821845.5994
      2638.0784
  -6870741.51149  -5346907.32847  20896235.2944   20896230.5914
       282.9694
  -8956613.03249  -6971240.02345  22555939.4114   22555933.5994
      2496.7504
 04  9 10 16 12 15.0010000  0  6G 1G11G14G23G25G20
  -7763189.10349  -6043923.26847  21020635.1384   21020631.0244
       919.3444
  -2883118.41449  -2242305.95547  21483216.2084   21483210.8064
      -746.2504
  10649099.86748   8286881.37444  23051235.7944   23051232.5634
     -2940.6724
  -2565046.34647  -1983989.28943  23814325.4814   23814319.0484
      2635.0314
  -6874913.73749  -5350158.41347  20895440.8884   20895436.5604
       273.3444
  -8994042.14249  -7000405.55845  22548816.0284   22548812.2434
      2493.8444
 04  9 10 16 12 30.0010000  0  6G 1G11G14G23G25G20
  -7776933.35449  -6054633.07647  21018019.7084   21018015.4744
       913.3754
  -2871848.44949  -2233524.20947  21485360.8254   21485355.3994
      -756.2034
  10693226.79848   8321265.95444  23059633.0834   23059629.1264
     -2942.7664
  -2604544.53648  -2014767.10043  23806808.9894   23806803.5404
      2631.5474
  -6878939.41149  -5353295.29647  20894675.0834   20894670.4744
       263.5784
  -9031426.08148  -7029535.90045  22541702.3414   22541698.0404
      2490.7664
 04  9 10 16 12 45.0010000  0  6G 1G11G14G23G25G20
  -7790590.55749  -6065275.05147  21015421.0524   21015416.7594
       907.5314
  -2860433.26449  -2224629.29947  21487532.9504   21487527.7514
      -765.9534
  10737382.50748   8355672.97044  23068036.2554   23068031.5564
     -2944.7034
  -2643995.09648  -2045507.77943  23799302.5054   23799296.6614
      2628.4064
  -6882821.09749  -5356319.99247  20893936.1464   20893931.5714
       253.9694
  -9068767.29549  -7058632.94545  22534596.9034   22534592.5834
      2487.9064
 04  9 10 16 13  0.0010000  0  6G 1G11G14G23G25G20
  -7804160.94349  -6075849.37347  21012838.3724   21012834.4074
       902.0164
  -2848872.78949  -2215621.15847  21489732.9114   21489727.4974
      -775.3284
  10781566.82948   8390102.28344  23076443.0994   23076440.7284
     -2946.2974
  -2683398.14948  -2076211.44243  23791803.9034   23791798.9034
      2625.5474
  -6886558.84949  -5359232.52647  20893225.1384   20893220.5794
       244.6094
  -9106065.67249  -7087696.61445  22527499.3104   22527494.3684
      2485.3134
 04  9 10 16 13 15.0010000  0  6G 1G11G14G23G25G20
  -7817645.38849  -6086356.73047  21010272.5674   21010268.4664
       895.9064
  -2837168.03349  -2206500.58447  21491960.2714   21491955.3564
      -785.3594
  10825778.74448   8424553.08544  23084856.8884   23084853.6144
     -2948.5944
  -2722754.47248  -2106878.71843  23784313.9744   23784309.3994
      2621.9534
  -6890153.52549  -5362033.56347  20892541.6144   20892536.8214
       234.6724
  -9143321.95549  -7116727.47545  22520409.2314   22520404.7084
      2482.1094
 04  9 10 16 13 30.0010000  0  6G 1G11G14G23G25G20
  -7831035.58449  -6096790.64147  21007724.3174   21007720.4464
       889.3914
  -2825310.88448  -2197261.27647  21494216.9354   21494211.6464
      -795.6414
  10870026.34748   8459031.70544  23093277.3254   23093273.2004
     -2951.1414
  -2762055.70548  -2137503.04243  23776836.0754   23776830.6184
      2618.1724
  -6893596.85348  -5364716.68647  20891885.9274   20891881.5214
       224.3754
  -9180527.55849  -7145718.86145  22513328.7864   22513325.1144
      2478.6414
 04  9 10 16 13 45.0010000  0  6G 1G11G14G23G25G20
  -7844336.21949  -6107154.76747  21005193.0604   21005189.2354
       883.9694
  -2813305.96249  -2187906.81147  21496501.4504   21496496.5174
      -805.0474
  10914304.85948   8493534.41644  23101702.6924   23101699.3294
     -2952.8124
  -2801306.44048  -2168088.03443  23769366.4814   23769361.1464
      2615.2664
  -6896893.46549  -5367285.46747  20891258.6144   20891253.8374
       215.0944
  -9217686.96949  -7174674.22745  22506258.0604   22506253.9544
      2475.9694
 04  9 10 16 14  0.0010000  0  6G 1G11G14G23G25G20
  -7857550.42549  -6117451.56547  21002678.7244   21002674.6064
       877.9844
  -2801156.53149  -2178439.73547  21498813.3174   21498807.8374
      -814.8754
  10958611.09248   8528058.70844  23110134.0914   23110130.9314
     -2954.7194
  -2840509.70448  -2198636.03243  23761906.2394   23761900.4504
      2611.9064
  -6900046.50949  -5369742.38647  20890658.7314   20890654.1424
       205.4064
  -9254803.08549  -7203595.89045  22499195.3174   22499190.7474
      2472.9064
 04  9 10 16 14 15.0010000  0  6G 1G11G14G23G25G20
  -7870676.06649  -6127679.32647  21000181.1774   21000176.8764
       872.0314
  -2788860.49049  -2168858.40847  21501153.1224   21501148.0674
      -824.7814
  11002947.17748   8562606.27944  23118570.7244   23118567.1614
     -2956.8444
  -2879663.15748  -2229145.19043  23754455.9894   23754450.5524
      2608.4224
  -6903053.61349  -5372085.58447  20890086.6464   20890081.8534
       195.5004
  -9291873.49749  -7232481.92745  22492141.2164   22492136.3684
      2469.6884
 04  9 10 16 14 30.0010000  0  6G 1G11G14G23G25G20
  -7883712.39049  -6137837.50047  20997700.2004   20997696.0634
       866.3444
  -2776417.15149  -2159162.31947  21503520.8964   21503515.9974
      -834.2974
  11047313.64748   8597177.52144  23127013.3564   23127009.9974
     -2958.5624
  -2918765.96247  -2259614.87043  23747014.4114   23747009.0714
      2605.3754
  -6905914.09149  -5374314.52147  20889541.5284   20889537.3104
       185.9694
  -9328897.24849  -7261331.58345  22485095.6224   22485091.0174
      2466.8444
 04  9 10 16 14 45.0010000  0  6G 1G11G14G23G25G20
  -7896662.29749  -6147928.33647  20995236.0214   20995232.1924
       860.2664
  -2763829.47849  -2149353.75647  21505916.0674   21505911.5874
      -844.1874
  11091707.50748   8631770.11044  23135461.5054   23135458.3334
     -2960.6564
  -2957820.91248  -2290047.29443  23739582.4274   23739576.6344
      2601.9064
  -6908630.87249  -5376431.49747  20889025.1854   20889020.3064
       176.1564
  -9365876.90849  -7290146.90445  22478058.2004   22478054.2354
      2463.6414
 04  9 10 16 15  0.0010000  0  6G 1G11G14G23G25G20
  -7909522.75649  -6157949.47047  20992788.4584   20992784.6224
       854.4384
  -2751094.43949  -2139430.35047  21508339.6304   21508334.5714
      -853.8594
  11136131.82348   8666386.42044  23143914.6854   23143911.4744
     -2962.5784
  -2996824.86748  -2320439.95143  23732161.0994   23732154.6734
      2598.6094
  -6911200.76949  -5378434.01847  20888536.0284   20888531.3604
       166.4534
  -9402809.24549  -7318925.33845  22471029.8964   22471025.9624
      2460.6254
 04  9 10 16 15 15.0010000  0  6G 1G11G14G23G25G20
  -7922293.95049  -6167901.05847  20990358.5994   20990354.3684
       848.3914
  -2738212.40449  -2129392.41747  21510791.1304   21510785.4384
      -863.7504
  11180586.25848   8701026.21644  23152374.6534   23152371.3964
     -2964.7344
  -3035777.90548  -2350792.99343  23724748.9504   23724741.7864
      2595.1094
  -6913623.92749  -5380322.19447  20888074.6144   20888070.4384
       156.5784
  -9439694.25349  -7347666.88845  22464011.5444   22464006.7204
      2457.3594
 04  9 10 16 15 30.0010000  0  6G 1G11G14G23G25G20
  -7934974.42649  -6177781.93647  20987945.4424   20987941.4034
       842.2974
  -2725181.81649  -2119238.73247  21513270.7164   21513265.8134
      -873.6254
  11225072.03248   8735690.41044  23160839.8884   23160836.5094
     -2966.7194
  -3074678.54848  -2381105.16744  23717345.6924   23717339.7204
      2591.6094
  -6915898.86649  -5382094.87347  20887641.8884   20887637.0174
       146.7504
  -9476530.24849  -7376370.25545  22457001.6304   22456997.3064
      2454.1094
 04  9 10 16 15 45.0010000  0  6G 1G11G14G23G25G20
  -7947568.10349  -6187595.18547  20985548.7314   20985545.2004
       836.6724
  -2712006.66649  -2108972.39147  21515777.6064   21515772.1494
      -883.1254
  11269585.23248   8770375.98944  23169310.6464   23169307.4704
     -2968.4534
  -3113530.63348  -2411379.48243  23709952.7084   23709946.7044
      2588.5634
  -6918029.51949  -5383755.11547  20887236.5444   20887231.5244
       137.2504
  -9513320.83049  -7405038.23845  22450000.9744   22449996.2394
      2451.1884
 04  9 10 16 16  0.0010000  0  6G 1G11G14G23G25G20
  -7960076.63149  -6197342.09847  20983168.8174   20983164.5244
       830.9534
  -2698688.72049  -2098594.77447  21518312.2864   21518306.8414
      -892.7034
  11314124.14048   8805081.60244  23177786.8414   23177782.7434
     -2970.1874
  -3152335.58348  -2441617.08644  23702568.2784   23702562.5754
      2585.3594
  -6920017.48549  -5385304.18247  20886858.2004   20886853.9074
       127.5944
  -9550067.45449  -7433671.96245  22443008.4114   22443004.0284
      2448.1564
 04  9 10 16 16 15.0010000  0  6G 1G11G14G23G25G20
  -7972497.64049  -6207020.80247  20980805.1224   20980800.8724
       824.9844
  -2685225.64648  -2088104.07347  21520874.0754   21520869.2824
      -902.5314
  11358691.03748   8839809.02244  23186267.3964   23186263.4354
     -2972.2664
  -3191090.98648  -2471816.11243  23695192.1064   23695187.0524
      2581.8284
  -6921860.31049  -5386740.14847  20886507.6854   20886502.7594
       117.8444
  -9586767.55749  -7462269.43845  22436024.4424   22436020.2824
      2444.9534
 04  9 10 16 16 30.0010000  0  6G 1G11G14G23G25G20
  -7984829.79349  -6216630.26647  20978458.0994   20978454.3764
       819.1414
  -2671616.13548  -2077499.27247  21523463.7314   21523459.0244
      -912.2034
  11403287.14048   8874559.20244  23194752.8564   23194749.4784
     -2974.0784
  -3229795.35748  -2501975.34843  23687827.0054   23687821.1384
      2578.6414
  -6923556.69349  -5388062.00447  20886184.5284   20886180.0174
       108.1414
  -9623419.42549  -7490829.33645  22429049.7244   22429045.8764
      2441.8284
 04  9 10 16 16 45.0010000  0  6G 1G11G14G23G25G20
  -7997074.48749  -6226171.59447  20976128.4974   20976123.9744
       813.2974
  -2657861.73449  -2066781.58147  21526081.1774   21526076.4934
      -921.8914
  11447910.92648   8909330.94344  23203245.5524   23203241.6494
     -2975.9534
  -3268450.03948  -2532095.89343  23680471.8334   23680464.6224
      2575.1884
  -6925108.01549  -5389270.83147  20885889.4814   20885885.0604
        98.5634
  -9660024.33249  -7519352.63445  22422084.3564   22422079.4314
      2438.6414
 04  9 10 16 17  0.0010000  0  6G 1G11G14G23G25G20
  -8009232.28349  -6235645.19547  20973814.5284   20973810.2394
       807.5944
  -2643963.00549  -2055951.41947  21528725.9504   21528721.3964
      -931.3594
  11492561.74347   8944123.75244  23211741.9744   23211738.2434
     -2977.5944
  -3307055.45348  -2562178.02143  23673126.0134   23673119.4894
      2572.0784
  -6926514.83549  -5390367.04747  20885621.8724   20885616.8884
        88.9534
  -9696582.58749  -7547839.58545  22415127.4744   22415122.1424
      2435.6414
 04  9 10 16 17 15.0010000  0  6G 1G11G14G23G25G20
  -8021304.22049  -6245051.90547  20971517.4354   20971513.0284
       801.7194
  -2629921.04049  -2045009.66547  21531398.6774   21531393.7044
      -941.1254
  11537238.50647   8978936.75944  23220243.5674   23220240.1384
     -2979.5624
  -3345612.50248  -2592222.45643  23665788.6144   23665783.0214
      2568.6094
  -6927778.14449  -5391351.44147  20885381.1614   20885376.5914
        79.1884
  -9733094.94949  -7576290.76545  22408179.0214   22408174.5094
      2432.3594
 04  9 10 16 17 30.0010000  0  6G 1G11G14G23G25G20
  -8033286.03849  -6254388.37647  20969237.0994   20969232.9974
       795.8754
  -2615731.67749  -2033953.05347  21534098.4114   21534093.3494
      -950.8124
  11581945.29047   9013773.19344  23228751.3644   23228747.5754
     -2981.3914
  -3384116.88748  -2622225.86244  23658461.6854   23658455.5754
      2565.2344
  -6928893.51149  -5392220.56647  20885169.1464   20885165.1694
        69.4844
  -9769556.86549  -7604702.65445  22401240.6924   22401236.5054
      2429.2034
 04  9 10 16 17 45.0010000  0  6G 1G11G14G23G25G20
  -8045178.86449  -6263655.51447  20966973.8724   20966969.6694
       789.9384
  -2601396.06549  -2022782.49147  21536826.2084   21536821.4274
      -960.5314
  11626680.99047   9048632.13944  23237264.2944   23237260.5484
     -2983.3284
  -3422569.57748  -2652188.97743  23651144.6614   23651137.5994
      2561.8284
  -6929862.03849  -5392975.26147  20884984.9194   20884980.2784
        59.6884
  -9805969.18449  -7633075.86845  22394311.6384   22394307.4974
      2425.8444
 04  9 10 16 18  0.0010000  0  6G 1G11G14G23G25G20
  -8056984.61149  -6272854.80447  20964727.6854   20964723.6734
       784.2814
  -2586916.10449  -2011499.43547  21539581.6854   21539577.0484
      -970.0474
  11671443.61747   9083512.06644  23245782.4584   23245778.9544
     -2984.9534
  -3460972.45648  -2682113.27543  23643835.9114   23643830.2124
      2558.6254
  -6930685.66049  -5393617.04147  20884828.4974   20884823.6424
        50.2034
  -9842333.70149  -7661411.85546  22387392.0284   22387386.9934
      2422.7974
 04  9 10 16 18 15.0010000  0  6G 1G11G14G23G25G20
  -8068701.33949  -6281984.71447  20962497.8334   20962493.6734
       778.0634
  -2572290.15248  -2000102.61747  21542365.0914   21542359.9424
      -979.9534
  11716235.04847   9118414.44543  23254305.5834   23254301.8724
     -2987.1094
  -3499323.29848  -2711997.02043  23636537.5604   23636532.2124
      2554.9064
  -6931362.55449  -5394144.48547  20884699.4354   20884694.7244
        40.2034
  -9878648.23349  -7689708.88445  22380481.4424   22380476.7394
      2419.2664
 04  9 10 16 18 30.0010000  0  6G 1G11G14G23G25G20
  -8080327.98049  -6291044.44047  20960285.6464   20960281.3374
       772.1724
  -2557516.99749  -1988591.10347  21545176.7474   21545171.5994
      -989.7814
  11761056.20547   9153339.98944  23262835.0054   23262831.0404
     -2989.0624
  -3537621.05748  -2741839.43543  23629250.2394   23629244.5284
      2551.4224
  -6931891.43549  -5394556.59847  20884598.7474   20884594.2434
        30.3594
  -9914911.35849  -7717965.86645  22373580.6774   22373575.9664
      2415.8754
 04  9 10 16 18 45.0010000  0  6G 1G11G14G23G25G20
  -8091865.62049  -6300034.80247  20958089.8024   20958085.7514
       766.0784
  -2542597.83949  -1976965.81347  21548015.2714   21548010.3454
      -999.6564
  11805905.94747   9188287.80644  23271368.7554   23271365.6534
     -2991.0784
  -3575866.71548  -2771641.23644  23621972.7004   23621966.4354
      2547.8134
  -6932273.35349  -5394854.20347  20884525.6464   20884521.3494
        20.4224
  -9951123.95149  -7746183.46845  22366689.9354   22366685.3994
      2412.2814
 04  9 10 16 19  0.0010000  0  6G 1G11G14G23G25G20
  -8103314.20049  -6308955.77347  20955911.3564   20955907.1494
       760.4534
  -2527532.74649  -1965226.80447  21550882.5214   21550877.2944
     -1009.0164
  11850784.26446   9223257.86744  23279909.6924   23279906.0174
     -2992.6254
  -3614059.94948  -2801402.16544  23614705.0604   23614698.9974
      2544.5634
  -6932508.21049  -5395037.19947  20884481.3104   20884476.3964
        10.9384
  -9987285.61649  -7774361.38746  22359808.6694   22359804.1464
      2409.2664
 04  9 10 16 19 15.0010000  0  6G 1G11G14G23G25G20
  -8114675.70749  -6317808.88747  20953749.6224   20953745.3024
       754.5474
  -2512323.71949  -1953375.62647  21553776.2784   21553771.6534
     -1018.7344
  11895689.10447   9258248.63444  23288455.5134   23288451.1774
     -2994.6094
  -3652202.73048  -2831123.78544  23607446.7244   23607441.4074
      2541.1254
  -6932597.98049  -5395107.15147  20884463.8884   20884459.5284
         1.1414
 -10023398.15449  -7802501.01245  22352936.0914   22352931.9894
      2405.8594
 04  9 10 16 19 30.0010000  0  6G 1G11G14G23G25G20
  -8125950.13849  -6326594.16047  20951603.7864   20951598.8334
       748.5164
  -2496970.94449  -1941412.45847  21556697.5444   21556693.2204
     -1028.4844
  11940620.39047   9293259.99744  23297004.9664   23297001.0914
     -2996.4224
  -3690295.08148  -2860806.10944  23600197.5214   23600191.8134
      2537.6884
  -6932542.77149  -5395064.13547  20884475.0134   20884469.9814
        -8.6724
 -10059461.28649  -7830602.15645  22346073.9114   22346069.1034
      2402.4694
 04  9 10 16 19 45.0010000  0  6G 1G11G14G23G25G20
  -8137134.62549  -6335309.35347  20949475.7474   20949470.8884
       742.9064
  -2481471.44948  -1929334.94247  21559647.3334   21559642.8924
     -1037.8284
  11985580.87747   9328294.11544  23305560.3024   23305557.0634
     -2997.9534
  -3728333.91948  -2890446.75544  23592959.0214   23592952.4624
      2534.4064
  -6932339.63149  -5394905.83747  20884513.3494   20884508.8374
       -18.1564
 -10095471.93749  -7858662.39045  22339220.9744   22339215.9934
      2399.3134
 04  9 10 16 20  0.0010000  0  6G 1G11G14G23G25G20
  -8148234.77949  -6343958.82247  20947363.4744   20947358.8254
       737.0474
  -2465830.94049  -1917147.55747  21562623.9894   21562619.1534
     -1047.5624
  12030564.86247   9363346.52644  23314121.0524   23314116.7394
     -2999.9374
  -3766324.78948  -2920050.01543  23585728.8644   23585723.2394
      2530.9224
  -6931994.03249  -5394636.53647  20884579.4584   20884574.6614
       -27.9534
 -10131435.46649  -7886685.91445  22332377.6384   22332372.7124
      2395.8444
 04  9 10 16 20 15.0010000  0  6G 1G11G14G23G25G20
  -8159244.88849  -6352538.12347  20945268.1694   20945263.9234
       731.0164
  -2450043.86549  -1904845.96547  21565628.1064   21565622.6304
     -1057.3754
  12075577.98347   9398421.65544  23322687.0674   23322682.9274
     -3001.8444
  -3804261.78148  -2949611.27043  23578510.5524   23578504.8644
      2527.3594
  -6931500.50449  -5394251.96647  20884673.3884   20884668.2904
       -37.8594
 -10167345.91849  -7914668.09445  22325544.3254   22325539.2864
      2392.2194
 04  9 10 16 20 30.0010000  0  6G 1G11G14G23G25G20
  -8170165.62949  -6361047.79047  20943189.7944   20943185.8564
       724.9384
  -2434110.98149  -1892430.75347  21568660.1304   21568655.3174
     -1067.1254
  12120619.57447   9433518.95344  23331257.4974   23331254.1224
     -3003.8284
  -3842145.56548  -2979131.10843  23571301.2474   23571295.6814
      2523.7504
  -6930859.52149  -5393752.49747  20884795.0604   20884790.6344
       -47.7664
 -10203203.65949  -7942609.18246  22318720.1854   22318716.0674
      2388.6884
 04  9 10 16 20 45.0010000  0  6G 1G11G14G23G25G20
  -8180997.65749  -6369488.32747  20941128.5444   20941124.5444
       719.2344
  -2418033.06848  -1879902.52647  21571719.5524   21571714.9354
     -1076.5784
  12165688.75348   9468637.78144  23339834.5134   23339830.1494
     -3005.4844
  -3879976.58348  -3008609.80843  23564102.2474   23564096.0054
      2520.4384
  -6930071.75148  -5393138.65647  20884944.7474   20884939.9194
       -57.3444
 -10239009.09349  -7970509.50945  22311907.2004   22311902.5244
      2385.3754
 04  9 10 16 21  0.0010000  0  6G 1G11G14G23G25G20
  -8191744.02649  -6377862.11947  20939083.9034   20939079.7244
       713.3134
  -2401813.12949  -1867263.63847  21574806.7244   21574801.2204
     -1086.3594
  12210782.34747   9503775.60244  23348415.1694   23348411.7554
     -3007.2974
  -3917757.93048  -3038049.77943  23556912.2784   23556906.5094
      2516.7974
  -6929140.18949  -5392412.76247  20885121.7004   20885117.4074
       -67.2194
 -10274765.09749  -7998371.32845  22305102.6224   22305098.0324
      2381.8134
 04  9 10 16 21 15.0010000  0  6G 1G11G14G23G25G20
  -8202404.71849  -6386169.15647  20937054.8964   20937051.2284
       707.5004
  -2385451.28049  -1854514.16847  21577919.4664   21577914.8604
     -1095.8444
  12255900.38347   9538932.49544  23357000.9974   23356997.5364
     -3009.0474
  -3955489.42048  -3067450.92444  23549733.1774   23549726.9384
      2513.4064
  -6928064.81649  -5391574.81247  20885326.6224   20885321.8764
       -76.7814
 -10310471.28349  -8026194.31845  22298307.4664   22298303.1654
      2378.4384
 04  9 10 16 21 30.0010000  0  6G 1G11G14G23G25G20
  -8212975.23149  -6394405.92647  20935043.6384   20935039.2434
       701.7974
  -2368942.87549  -1841650.49147  21581060.9974   21581056.4854
     -1105.2344
  12301047.35248   9574111.92844  23365591.8174   23365588.7474
     -3010.6254
  -3993166.44948  -3096809.63244  23542563.0364   23542557.0604
      2510.1564
  -6926841.19849  -5390621.34747  20885559.4894   20885555.0604
       -86.3914
 -10346123.01549  -8053974.90145  22291523.5214   22291519.4854
      2375.0474
 04  9 10 16 21 45.0010000  0  6G 1G11G14G23G25G20
  -8223459.24149  -6402575.28447  20933048.5834   20933044.7864
       695.9384
  -2352291.90949  -1828675.73147  21584229.5994   21584224.6034
     -1114.8914
  12346219.54848   9609310.98744  23374188.6304   23374185.0714
     -3012.3754
  -4030792.46648  -3126128.57844  23535402.5284   23535397.0094
      2506.6884
  -6925472.83949  -5389555.08747  20885819.9664   20885814.9194
       -96.0784
 -10381723.55549  -8081715.57845  22284749.2714   22284744.5604
      2371.6094
 04  9 10 16 22  0.0010000  0  6G 1G11G14G23G25G20
  -8233856.25449  -6410676.84647  20931070.0054   20931065.6734
       690.0634
  -2335497.96049  -1815589.55147  21587425.8494   21587421.0674
     -1124.5624
  12391417.35748   9644530.04044  23382789.6304   23382786.1654
     -3014.1564
  -4068367.01448  -3155407.43444  23528253.2864   23528247.1424
      2502.9694
  -6923959.29549  -5388375.69947  20886107.7244   20886103.4354
      -105.9064
 -10417272.10049  -8109415.73145  22277984.2554   22277979.7864
      2368.0164
 04  9 10 16 22 15.0010000  0  6G 1G11G14G23G25G20
  -8244165.54549  -6418710.04847  20929108.1924   20929104.0874
       684.2974
  -2318560.46248  -1802391.50647  21590648.5914   21590643.5244
     -1133.9534
  12436641.39848   9679769.50644  23391394.7784   23391391.7164
     -3015.8914
  -4105889.22548  -3184645.50544  23521112.5754   23521106.4074
      2499.7034
  -6922299.91249  -5387082.67247  20886423.9744   20886419.1854
      -115.5164
 -10452767.84349  -8137074.74545  22271230.1384   22271225.3844
      2364.5634
 04  9 10 16 22 30.0010000  0  6G 1G11G14G23G25G20
  -8254387.43649  -6426675.16147  20927163.3334   20927158.9544
       678.4844
  -2301479.55649  -1789081.73947  21593899.1144   21593893.9154
     -1143.5474
  12481891.18148   9715029.06143  23400005.3644   23400002.3804
     -3017.5624
  -4143359.23948  -3213842.89444  23513982.3724   23513976.0484
      2496.1254
  -6920494.89749  -5385676.16047  20886767.1694   20886762.3564
      -125.2974
 -10488210.82049  -8164692.64145  22264485.6224   22264480.6614
      2360.9694
 04  9 10 16 22 45.0010000  0  6G 1G11G14G23G25G20
  -8264517.75049  -6434568.90847  20925235.0674   20925231.7084
       672.7664
  -2284251.41249  -1775657.22347  21597177.2864   21597172.3134
     -1153.0004
  12527170.92047   9750311.92043  23408622.0524   23408618.5524
     -3019.1414
  -4180772.83348  -3242996.33044  23506861.5524   23506855.8374
      2492.8444
  -6918540.25549  -5384153.05847  20887139.2864   20887134.5714
      -134.9224
 -10523596.51749  -8192265.89845  22257751.3964   22257747.0214
      2357.5314
 04  9 10 16 23  0.0010000  0  6G 1G11G14G23G25G20
  -8274563.92849  -6442397.10247  20923323.7474   20923319.5174
       666.7344
  -2266883.44249  -1762123.75747  21600482.6384   21600477.5134
     -1162.6724
  12572473.06748   9785612.26543  23417242.9504   23417239.6964
     -3021.0314
  -4218137.26748  -3272111.45144  23499752.2314   23499746.5094
      2489.1414
  -6916443.21349  -5382519.00347  20887538.3494   20887533.7594
      -144.6724
 -10558932.17049  -8219800.18145  22251027.6614   22251022.5604
      2353.8594
 04  9 10 16 23 15.0010000  0  6G 1G11G14G23G25G20
  -8284522.35749  -6450156.90747  20921428.4354   20921424.0524
       660.9844
  -2249372.17149  -1748478.62147  21603815.0524   21603810.2004
     -1172.1094
  12617801.15648   9820932.81643  23425869.0444   23425865.3024
     -3022.7194
  -4255448.83748  -3301185.39844  23492652.0214   23492645.6854
      2485.6254
  -6914200.21849  -5380771.21647  20887965.0674   20887960.4974
      -154.3594
 -10594213.85449  -8247292.39346  22244314.0604   22244309.2904
      2350.2814
 04  9 10 16 23 30.0010000  0  6G 1G11G14G23G25G20
  -8294390.88549  -6457846.66447  20919550.6144   20919546.4354
       655.0944
  -2231715.61549  -1734720.28147  21607175.0214   21607170.2004
     -1181.7034
  12663157.30648   9856275.23943  23434498.7084   23434496.7904
     -3024.4844
  -4292705.37148  -3330216.45244  23485562.3884   23485556.4854
      2482.1564
  -6911809.18649  -5378908.06847  20888420.3884   20888415.4854
      -164.1094
 -10629439.17649  -8274740.68745  22237610.4814   22237605.9424
      2346.6884
 04  9 10 16 23 45.0010000  0  6G 1G11G14G23G25G20
  -8304168.12149  -6465465.29547  20917690.1464   20917685.8134
       649.1254
  -2213912.41749  -1720847.67547  21610562.7554   21610557.5674
     -1191.4224
  12708542.84448   9891640.54343  23443136.3024   23443132.6614
     -3026.3444
  -4329905.28748  -3359203.38543  23478483.3884   23478477.8804
      2478.4534
  -6909268.59349  -5376928.38647  20888903.7084   20888899.0914
      -173.9844
 -10664606.49249  -8302143.79346  22230918.2864   22230913.6734
      2342.8754
 04  9 10 16 24  0.0010000  0  6G 1G11G14G23G25G20
  -8313858.77949  -6473016.45747  20915846.0134   20915841.6424
       643.1254
  -2195967.25249  -1706864.44647  21613977.2164   21613972.9234
     -1201.0944
  12753952.88248   9927024.94843  23451777.7084   23451774.2204
     -3028.1564
  -4367053.25948  -3388149.83443  23471414.2474   23471408.6534
      2474.8134
  -6906583.18949  -5374835.86647  20889414.8334   20889410.1884
      -183.9374
 -10699720.33149  -8329505.23546  22224236.6144   22224231.7864
      2339.1254
 04  9 10 16 24 15.0010000  0  6G 1G11G14G23G25G20
  -8323462.54949  -6480499.91847  20914018.6774   20914014.2124
       637.2664
  -2177880.03049  -1692770.53547  21617418.8964   21617414.0794
     -1210.6564
  12799387.64648   9962428.62944  23460423.0364   23460420.2514
     -3029.9374
  -4404148.85848  -3417055.47544  23464355.2784   23464349.5214
      2471.2344
  -6903752.66349  -5372630.26147  20889953.2314   20889948.3644
      -193.5944
 -10734779.96849  -8356824.42045  22217564.2554   22217560.3064
      2335.4534
 04  9 10 16 24 30.0010000  0  6G 1G11G14G23G25G20
  -8332975.48249  -6487912.58847  20912208.2944   20912204.4464
       631.2034
  -2159647.03249  -1678563.01847  21620889.0364   21620883.7944
     -1220.3124
  12844851.10948   9997854.66743  23469074.3644   23469071.9894
     -3031.8444
  -4441188.10948  -3445917.20044  23457306.7004   23457300.9114
      2467.4534
  -6900773.12449  -5370308.53547  20890520.3334   20890515.3964
      -203.5944
 -10769781.31049  -8384098.17846  22210904.2084   22210899.6494
      2331.5164
 04  9 10 16 24 45.0010000  0  6G 1G11G14G23G25G20
  -8342397.11349  -6495254.11647  20910415.4354   20910411.3454
       625.1724
  -2141267.76549  -1664241.54847  21624386.8104   21624381.8024
     -1230.0624
  12890343.59348  10033303.31243  23477731.6464   23477728.6574
     -3033.7814
  -4478170.37448  -3474734.54344  23450269.0834   23450263.8724
      2463.6564
  -6897644.18549  -5367870.40447  20891115.9664   20891110.7514
      -213.5314
 -10804723.56149  -8411325.89046  22204255.4274   22204250.6534
      2327.6254
 04  9 10 16 25  0.0010000  0  6G 1G11G14G23G25G20
  -8351732.06949  -6502528.10747  20908638.8414   20908634.3844
       619.4534
  -2122746.92049  -1649809.74547  21627910.7554   21627905.8604
     -1239.4064
  12935860.45048  10068770.96143  23486393.2164   23486390.2434
     -3035.1724
  -4515100.07848  -3503510.90844  23443242.0834   23443236.4544
      2460.2504
  -6894370.25949  -5365319.29747  20891738.7944   20891734.1964
      -223.0474
 -10839611.05849  -8438510.96446  22197616.2634   22197611.8564
      2324.0634
 04  9 10 16 25 15.0010000  0  6G 1G11G14G23G25G20
  -8360975.83449  -6509731.03647  20906879.7784   20906875.8534
       613.2974
  -2104080.08149  -1635264.18847  21631463.3494   21631458.3884
     -1249.1564
  12981406.22848  10104261.14443  23495060.6854   23495057.8884
     -3037.2344
  -4551972.61648  -3532242.75044  23436225.1144   23436219.8844
      2456.4224
  -6890947.01249  -5362651.83447  20892390.2244   20892385.6184
      -233.0784
 -10874439.09749  -8465649.69446  22190988.7864   22190984.4504
      2320.0004
 04  9 10 16 25 30.0010000  0  6G 1G11G14G23G25G20
  -8370129.57649  -6516863.81347  20905138.3494   20905133.4424
       607.0474
  -2085268.20449  -1620605.62547  21635042.7634   21635037.9274
     -1259.1094
  13026979.71948  10139772.91343  23503732.0914   23503730.4194
     -3039.2344
  -4588789.09248  -3560930.91144  23429218.7864   23429213.7674
      2452.3914
  -6887375.57649  -5359868.89047  20893069.6464   20893065.0674
      -243.2034
 -10909208.48549  -8492742.71546  22184372.2634   22184367.9544
      2315.8134
 04  9 10 16 25 45.0010000  0  6G 1G11G14G23G25G20
  -8379190.87549  -6523924.57447  20903413.8884   20903409.6574
       601.0944
  -2066309.30549  -1605832.48247  21638650.9354   21638645.7634
     -1268.7814
  13072583.26748  10175308.09443  23512410.4894   23512407.4934
     -3041.1094
  -4625546.97248  -3589573.40444  23422224.6534   23422219.0244
      2448.6254
  -6883653.50649  -5356968.57847  20893777.9744   20893773.3374
      -253.0474
 -10943916.55849  -8519787.96346  22177767.6304   22177763.5054
      2311.9534
 04  9 10 16 26  0.0010000  0  6G 1G11G14G23G25G20
  -8388162.69349  -6530915.59547  20901706.6854   20901702.6304
       595.2194
  -2047206.32049  -1590947.06347  21642285.7864   21642280.9894
     -1278.2344
  13118213.68148  10210864.24243  23521093.6924   23521091.0134
     -3042.7814
  -4662249.09748  -3618172.45744  23415240.8564   23415235.1034
      2445.0634
  -6879783.73049  -5353953.16647  20894514.3644   20894510.0674
      -262.7814
 -10978565.97049  -8546787.49646  22171174.1614   22171169.5874
      2308.1414
 04  9 10 16 26 15.0010000  0  6G 1G11G14G23G25G20
  -8397046.05849  -6537837.69847  20900015.8414   20900011.8684
       589.2194
  -2027960.43749  -1575950.29547  21645948.1614   21645943.3174
     -1287.8754
  13163869.88548  10246440.45343  23529781.9274   23529779.4034
     -3044.6414
  -4698896.31748  -3646728.71944  23408266.3724   23408261.1534
      2441.3444
  -6875767.28649  -5350823.47347  20895278.5754   20895274.0524
      -272.6564
 -11013157.55049  -8573741.96546  22164591.3884   22164586.9424
      2304.1414
 04  9 10 16 26 30.0010000  0  6G 1G11G14G23G25G20
  -8405838.84749  -6544689.22047  20898342.5284   20898338.6614
       583.1564
  -2008569.69149  -1560840.65747  21649638.2944   21649633.6694
     -1297.5624
  13209554.10548  10282038.50544  23538475.4354   23538472.8684
     -3046.5624
  -4735486.55548  -3675240.59244  23401304.1224   23401297.8684
      2437.4384
  -6871602.10249  -5347577.87847  20896071.4584   20896066.3884
      -282.6724
 -11047688.92349  -8600649.53646  22158020.5914   22158015.2284
      2300.0784
 04  9 10 16 26 45.0010000  0  6G 1G11G14G23G25G20
  -8414542.67549  -6551471.42347  20896686.4504   20896682.5874
       577.2664
  -1989035.82549  -1545619.47947  21653355.5214   21653350.2394
     -1307.0944
  13255264.65748  10317657.08343  23547173.9114   23547171.0874
     -3048.2664
  -4772021.34248  -3703709.23044  23394351.7474   23394345.6034
      2433.6884
  -6867289.75349  -5344217.59847  20896891.8804   20896887.2314
      -292.4374
 -11082161.39849  -8627511.21346  22151460.3334   22151455.6574
      2296.1254
 04  9 10 16 27  0.0010000  0  6G 1G11G14G23G25G20
  -8423157.20149  -6558184.03847  20895047.1854   20895043.2394
       571.5474
  -1969358.56749  -1530286.55846  21657100.3884   21657095.2204
     -1316.3594
  13301001.69648  10353296.29143  23555878.2474   23555874.3134
     -3049.8124
  -4808500.16948  -3732134.27344  23387409.8174   23387403.6034
      2430.2814
  -6862829.91449  -5340742.40547  20897740.6854   20897736.0244
      -302.0314
 -11116574.30849  -8654326.44546  22144911.9274   22144907.4854
      2292.4064
 04  9 10 16 27 15.0010000  0  6G 1G11G14G23G25G20
  -8431683.86449  -6564828.19347  20893424.5674   20893420.7164
       565.4224
  -1949539.39949  -1514843.07547  21660871.6304   21660866.1854
     -1326.1724
  13346763.78748  10388955.02943  23564586.0054   23564583.1574
     -3051.7504
  -4844924.35648  -3760516.74944  23380477.6854   23380472.9314
      2426.4384
  -6858224.05349  -5337153.42347  20898616.9974   20898612.4314
      -311.9534
 -11150928.81149  -8681096.18346  22138374.1774   22138369.8994
      2288.2194
 04  9 10 16 27 30.0010000  0  6G 1G11G14G23G25G20
  -8440119.65849  -6571401.53947  20891819.4664   20891815.2354
       559.2974
  -1929575.37649  -1499286.69947  21664670.5994   21664665.7634
     -1335.8594
  13392553.93248  10424635.61243  23573299.8724   23573296.1184
     -3053.6564
  -4881290.69748  -3788854.14144  23373557.8414   23373552.6854
      2422.4384
  -6853469.13249  -5333448.28847  20899521.8884   20899517.4424
      -322.0474
 -11185221.75149  -8707817.94946  22131848.5524   22131843.7084
      2284.0164
 04  9 10 16 27 45.0010000  0  6G 1G11G14G23G25G20
  -8448466.17549  -6577905.31847  20890231.0364   20890227.0404
       553.6724
  -1909468.31449  -1483618.86547  21668496.6534   21668491.7944
     -1345.0944
  13438370.44148  10460336.74043  23582018.0994   23582015.0484
     -3055.1564
  -4917600.70248  -3817147.64344  23366649.0054   23366643.2164
      2419.0164
  -6848566.83249  -5329628.31947  20900454.4974   20900450.1304
      -331.6094
 -11219454.32549  -8734492.67446  22125334.4274   22125329.6614
      2280.2974
 04  9 10 16 28  0.0010000  0  6G 1G11G14G23G25G20
  -8456724.38749  -6584340.28047  20888659.5284   20888655.2314
       547.4844
  -1889219.31749  -1467840.44247  21672349.7634   21672345.2594
     -1354.8284
  13484212.24548  10496057.60043  23590742.0754   23590738.5604
     -3057.0944
  -4953855.22348  -3845397.90844  23359750.4974   23359744.2394
      2414.9844
  -6843518.09249  -5325694.23547  20901415.5444   20901410.4384
      -341.5624
 -11253627.22049  -8761120.90746  22118831.7784   22118826.8174
      2276.0634
 04  9 10 16 28 15.0010000  0  6G 1G11G14G23G25G20
  -8464892.62149  -6590705.13347  20887104.7554   20887101.3884
       541.6564
  -1868826.81549  -1451950.18847  21676230.6064   21676225.7004
     -1364.2344
  13530081.05048  10531799.49643  23599470.8644   23599466.8804
     -3058.6724
  -4990052.46848  -3873603.52644  23352861.3024   23352855.6614
      2411.3594
  -6838321.08049  -5321644.62247  20902404.2634   20902399.8764
      -351.2664
 -11287738.44949  -8787701.07746  22112340.4194   22112336.0324
      2272.1414
 04  9 10 16 28 30.0010000  0  6G 1G11G14G23G25G20
  -8472971.99149  -6597000.74947  20885568.1384   20885563.4194
       535.5634
  -1848291.92249  -1435948.98847  21680138.1534   21680133.5604
     -1373.8444
  13575975.67548  10567561.50144  23608203.4504   23608201.0714
     -3060.6094
  -5026193.47148  -3901765.33244  23345984.0214   23345978.2474
      2407.5004
  -6832977.21449  -5317480.57247  20903421.9194   20903416.7244
      -361.2504
 -11321788.92749  -8814233.89846  22105860.4584   22105855.7204
      2267.9384
 04  9 10 16 28 45.0010000  0  6G 1G11G14G23G25G20
  -8480961.19549  -6603226.09547  20884047.3334   20884043.4624
       529.5474
  -1827613.28049  -1419835.78947  21684073.2314   21684068.2004
     -1383.3914
  13621897.19348  10603344.47943  23616942.4354   23616938.9314
     -3062.3754
  -5062276.80248  -3929882.19244  23339117.6064   23339111.6264
      2403.5634
  -6827485.00149  -5313200.91947  20904466.6614   20904461.8064
      -371.1414
 -11355777.10549  -8840718.19246  22099392.9424   22099388.3764
      2263.7034
 04  9 10 16 29  0.0010000  0  6G 1G11G14G23G25G20
  -8488856.49849  -6609378.28947  20882545.1534   20882540.9074
       523.1414
  -1806787.51449  -1403607.93347  21688036.2084   21688032.0054
     -1393.4224
  13667849.30848  10639151.27843  23625686.2394   23625683.4034
     -3064.6254
  -5098298.73248  -3957951.21344  23332263.0134   23332256.6854
      2399.2504
  -6821840.87349  -5308802.90247  20905540.7244   20905535.6814
      -381.4534
 -11389698.96349  -8867150.81146  22092938.1774   22092933.3534
      2259.1414
 04  9 10 16 29 15.0010000  0  6G 1G11G14G23G25G20
  -8496662.75049  -6615461.07947  20881059.7394   20881055.3254
       517.5164
  -1785819.57049  -1387269.28847  21692026.5214   21692021.5604
     -1402.6094
  13713827.19848  10674978.17943  23634436.2784   23634432.3924
     -3066.0164
  -5134263.89148  -3985975.99244  23325418.0524   23325413.3804
      2395.8754
  -6816049.61949  -5304290.23647  20906642.7714   20906637.4854
      -390.9534
 -11423558.95149  -8893535.20046  22086494.4194   22086489.5914
      2255.3444
 04  9 10 16 29 30.0010000  0  6G 1G11G14G23G25G20
  -8504380.47249  -6621474.89347  20879591.1614   20879587.1774
       511.5164
  -1764710.13349  -1370820.39546  21696042.8724   21696038.2044
     -1412.0474
  13759830.36548  10710824.77943  23643190.4354   23643187.0174
     -3067.8444
  -5170172.78148  -4013956.91244  23318585.1694   23318579.6034
      2392.0314
  -6810111.89649  -5299663.43647  20907772.6694   20907767.5324
      -400.7504
 -11457357.45249  -8919871.70146  22080062.7394   22080058.7284
      2251.1564
 04  9 10 16 29 45.0010000  0  6G 1G11G14G23G25G20
  -8512006.84749  -6627417.52047  20878139.9274   20878135.5794
       505.3914
  -1743456.38249  -1354259.04747  21700087.5284   21700082.5994
     -1421.7344
  13805861.47248  10746693.13643  23651950.4814   23651946.3024
     -3069.6564
  -5206022.35148  -4041891.63544  23311763.7864   23311757.4974
      2388.0784
  -6804024.79349  -5294920.24247  20908930.5054   20908926.3454
      -410.7344
 -11491091.31549  -8946157.81346  22073643.5834   22073639.1494
      2246.8134
 04  9 10 16 30  0.0010000  0  6G 1G11G14G23G25G20
  -8519545.11449  -6633291.48447  20876704.9034   20876701.0754
       499.7034
  -1722061.66049  -1337587.85247  21704159.2554   21704154.1384
     -1430.9374
  13851917.37148  10782580.78943  23660713.9664   23660710.5954
     -3071.1414
  -5241815.78748  -4069782.60644  23304952.0444   23304946.0834
      2384.4064
  -6797791.58449  -5290063.20747  20910117.0754   20910112.4314
      -420.3594
 -11524763.52249  -8972395.88046  22067235.6614   22067231.2554
      2242.8284
 04  9 10 16 30 15.0010000  0  6G 1G11G14G23G25G20
  -8526994.34049  -6639096.07647  20875287.6464   20875283.5604
       493.7814
  -1700525.33048  -1320806.31546  21708257.1774   21708252.1884
     -1440.3914
  13897998.76148  10818488.34743  23669482.5604   23669479.4934
     -3072.8124
  -5277552.12048  -4097629.08344  23298151.8334   23298145.4934
      2380.5784
  -6791411.42249  -5285091.64947  20911331.2474   20911326.4034
      -430.2034
 -11558372.84449  -8998584.95946  22060840.3174   22060835.4424
      2238.6414
 04  9 10 16 30 30.0010000  0  6G 1G11G14G23G25G20
  -8534356.96849  -6644833.19547  20873886.1854   20873882.5134
       488.0004
  -1678849.88048  -1303916.37346  21712381.6224   21712376.7864
     -1449.5624
  13944103.36748  10854413.97243  23678256.6694   23678252.5834
     -3074.3754
  -5313233.65448  -4125432.87144  23291362.1224   23291355.8724
      2376.9534
  -6784886.73049  -5280007.48047  20912572.4424   20912568.2634
      -439.7664
 -11591921.53749  -9024726.80046  22054456.1064   22054451.2354
      2234.5944
 04  9 10 16 30 45.0010000  0  6G 1G11G14G23G25G20
  -8541631.23849  -6650501.46047  20872502.2164   20872498.2714
       481.7814
  -1657033.61549  -1286916.71446  21716533.0364   21716527.8564
     -1459.3284
  13990232.72848  10890358.89443  23687034.3494   23687030.5954
     -3076.3284
  -5348858.44648  -4153192.45344  23284583.1774   23284576.1694
      2372.8914
  -6778215.67249  -5274809.25647  20913842.4664   20913837.5444
      -449.8124
 -11625407.46849  -9050819.73146  22048084.4194   22048079.2164
      2230.0474
 04  9 10 16 31  0.0010000  0  6G 1G11G14G23G25G20
  -8548814.80849  -6656099.03747  20871135.6144   20871131.3964
       475.9844
  -1635074.30549  -1269805.57746  21720712.2244   21720707.4624
     -1468.5314
  14036389.17348  10926324.91443  23695817.8414   23695814.4384
     -3077.9374
  -5384424.21748  -4180906.01344  23277814.8564   23277809.1144
      2369.2504
  -6771395.93249  -5269495.17447  20915140.0444   20915135.3024
      -459.4374
 -11658827.99949  -9076861.69546  22041724.2394   22041719.4934
      2225.9384
 04  9 10 16 31 15.0010000  0  6G 1G11G14G23G25G20
  -8555910.63649  -6661628.26547  20869785.3024   20869780.6574
       470.1254
  -1612975.07649  -1252585.41947  21724917.5134   21724912.6104
     -1478.0004
  14082569.54448  10962309.57943  23704605.9194   23704602.0014
     -3079.6094
  -5419933.63948  -4208575.69044  23271057.2314   23271051.9354
      2365.3754
  -6764430.59849  -5264067.64447  20916465.2474   20916460.2244
      -469.2974
 -11692185.86749  -9102854.82746  22035375.8104   22035371.6774
      2221.6724
 04  9 10 16 31 30.0010000  0  6G 1G11G14G23G25G20
  -8562920.26149  -6667090.30847  20868451.2944   20868446.6964
       464.4224
  -1590737.58949  -1235257.51746  21729149.0524   21729144.2674
     -1487.0944
  14128772.43248  10998311.78143  23713397.8804   23713393.7284
     -3080.9374
  -5455388.17248  -4236202.58744  23264310.7944   23264305.0244
      2361.8444
  -6757321.30449  -5258527.93747  20917818.3334   20917813.7004
      -478.7504
 -11725482.16149  -9128799.98746  22029040.2784   22029035.6304
      2217.7504
 04  9 10 16 31 45.0010000  0  6G 1G11G14G23G25G20
  -8569842.00349  -6672483.87247  20867133.8804   20867129.7824
       458.3594
  -1568360.26549  -1217820.65947  21733407.7164   21733402.8064
     -1496.6414
  14174999.46848  11034332.81443  23722193.6694   23722190.8174
     -3082.7974
  -5490785.97348  -4263785.25844  23257574.1224   23257568.9934
      2357.7194
  -6750066.35249  -5252874.72747  20919198.6464   20919193.9504
      -488.6414
 -11758715.06249  -9154695.74746  22022716.1924   22022711.6224
      2213.2504
 04  9 10 16 32  0.0010000  0  6G 1G11G14G23G25G20
  -8576677.47048  -6677810.20447  20865832.9274   20865828.9114
       452.7974
  -1545844.75548  -1200276.12647  21737692.3104   21737687.3104
     -1505.7194
  14221249.08048  11070371.42743  23730995.2864   23730992.3534
     -3084.0944
  -5526128.59848  -4291324.92844  23250849.1774   23250842.9974
      2354.3284
  -6742667.19649  -5247109.16147  20920607.1924   20920602.0284
      -498.1414
 -11791885.76249  -9180543.04146  22016404.3174   22016399.9784
      2209.3284
 04  9 10 16 32 15.0010000  0  6G 1G11G14G23G25G20
  -8583426.79748  -6683069.42447  20864548.8564   20864545.3134
       447.1884
  -1523191.36448  -1182624.14547  21742003.0134   21741998.3174
     -1514.7344
  14267520.98648  11106427.39843  23739800.7244   23739797.5754
     -3085.4064
  -5561416.09648  -4318821.66844  23244134.6614   23244128.2004
      2350.7814
  -6735123.99148  -5241231.33247  20922042.0674   20922037.4744
      -507.5474
 -11824994.18649  -9206341.81346  22010103.7164   22010099.0524
      2205.3134
 04  9 10 16 32 30.0010000  0  6G 1G11G14G23G25G20
  -8590090.20248  -6688261.69747  20863280.9584   20863277.4384
       441.4534
  -1500400.33149  -1164864.92847  21746340.0444   21746335.0054
     -1523.9844
  14313814.92848  11142500.54543  23748610.5364   23748607.6384
     -3086.9844
  -5596648.64248  -4346275.57444  23237429.3334   23237423.6534
      2347.0784
  -6727437.29649  -5235241.71747  20923505.0444   20923500.0214
      -517.2194
 -11858040.31849  -9232092.04946  22003815.6534   22003811.1304
      2201.0474
 04  9 10 16 32 45.0010000  0  6G 1G11G14G23G25G20
  -8596666.80848  -6693386.32147  20862029.3414   20862025.0364
       435.6884
  -1477471.17149  -1146998.04947  21750703.0604   21750697.9114
     -1533.1724
  14360131.72248  11178591.52643  23757424.2944   23757420.7594
     -3088.5474
  -5631825.15048  -4373685.83144  23230735.9974   23230729.6924
      2343.2974
  -6719606.03649  -5229139.43747  20924995.0834   20924990.5634
      -526.8594
 -11891022.99049  -9257792.82046  21997538.3414   21997534.6654
      2196.7974
 04  9 10 16 33  0.0010000  0  6G 1G11G14G23G25G20
  -8603154.45048  -6698441.62147  20860795.0134   20860791.0444
       429.7504
  -1454401.73148  -1129021.87246  21755093.5754   21755088.2864
     -1542.3914
  14406473.49148  11214701.94443  23766243.0054   23766239.5914
     -3089.9694
  -5666943.51748  -4401050.75444  23224053.3104   23224047.2044
      2339.5314
  -6711628.26449  -5222922.99647  20926513.3024   20926508.5874
      -536.4224
 -11923939.75949  -9283442.23146  21991274.9114   21991270.2984
      2192.5314
 04  9 10 16 33 15.0010000  0  6G 1G11G14G23G25G20
  -8609557.87549  -6703431.30247  20859576.2784   20859572.0174
       424.0944
  -1431196.90349  -1110940.20647  21759508.6854   21759503.8684
     -1551.5474
  14452835.48048  11250828.13843  23775064.6384   23775061.9504
     -3091.5004
  -5702008.17948  -4428373.88244  23217380.7864   23217374.7714
      2335.9064
  -6703508.67149  -5216596.04947  20928058.4504   20928053.8684
      -545.9374
 -11956794.98749  -9309043.70646  21985023.0134   21985018.3884
      2188.3754
 04  9 10 16 33 30.0010000  0  6G 1G11G14G23G25G20
  -8615874.91049  -6708353.66247  20858374.2474   20858369.8844
       418.3134
  -1407854.62949  -1092751.44446  21763950.8884   21763946.0874
     -1560.7344
  14499219.76847  11286971.69543  23783891.4744   23783888.9744
     -3093.0004
  -5737016.94648  -4455653.40644  23210718.3724   23210712.8684
      2332.1414
  -6695245.11449  -5210156.91047  20929630.5284   20929625.9194
      -555.6254
 -11989586.26049  -9334595.34346  21978783.1064   21978777.9114
      2184.0314
 04  9 10 16 33 45.0010000  0  6G 1G11G14G23G25G20
  -8622104.11148  -6713207.58947  20857188.8884   20857184.5094
       412.3284
  -1384373.58148  -1074454.54047  21768418.8964   21768414.1064
     -1570.0314
  14545627.69248  11323133.67943  23792723.2714   23792720.4974
     -3094.6564
  -5771968.18948  -4482888.14944  23204067.8334   23204061.5094
      2328.1254
  -6686836.10049  -5203604.43847  20931231.4274   20931226.7394
      -565.5004
 -12022311.88649  -9360095.82746  21972555.3644   21972550.7314
      2179.5314
 04  9 10 16 34  0.0010000  0  6G 1G11G14G23G25G20
  -8628245.11949  -6717992.79647  20856020.1224   20856015.8564
       406.4384
  -1360753.48349  -1056049.28247  21772913.6534   21772909.3064
     -1579.3914
  14592059.63448  11359314.36543  23801558.7864   23801556.1654
     -3096.3284
  -5806861.50448  -4510077.72344  23197427.9584   23197421.2714
      2324.2344
  -6678281.29749  -5196938.36347  20932859.3494   20932854.5484
      -575.1724
 -12054971.18649  -9385544.62846  21966340.8334   21966335.5834
      2175.0474
 04  9 10 16 34 15.0010000  0  6G 1G11G14G23G25G20
  -8634300.41349  -6722711.20647  20854867.9814   20854863.6494
       400.9534
  -1336997.04149  -1037537.77947  21777434.5604   21777429.6464
     -1588.2034
  14638513.23847  11395511.93643  23810398.0284   23810395.3804
     -3097.5474
  -5841699.22148  -4537223.97644  23190798.2864   23190791.9974
      2320.7814
  -6669583.41449  -5190160.81347  20934514.2394   20934509.7864
      -584.5314
 -12087566.30049  -9410943.41446  21960137.5914   21960133.1774
      2170.9224
 04  9 10 16 34 30.0010000  0  6G 1G11G14G23G25G20
  -8640269.17649  -6727362.19447  20853732.3334   20853728.0404
       395.0784
  -1313103.47549  -1018919.44447  21781980.8334   21781977.0284
     -1597.4224
  14684989.12248  11431726.82943  23819243.3414   23819239.5834
     -3099.2344
  -5876480.43748  -4564326.20144  23184179.3414   23184173.6884
      2316.8754
  -6660741.57149  -5183271.05347  20936197.0214   20936191.8374
      -594.3124
 -12120096.28949  -9436291.46346  21953947.6304   21953942.8214
      2166.5314
 04  9 10 16 34 45.0010000  0  6G 1G11G14G23G25G20
  -8646150.18849  -6731944.79647  20852613.0134   20852608.9894
       389.1564
  -1289071.79249  -1000193.47646  21786554.6774   21786549.8294
     -1606.7504
  14731488.40947  11467959.97943  23828090.8964   23828088.4504
     -3100.6874
  -5911203.83248  -4591383.40144  23177571.3024   23177565.6574
      2312.9844
  -6651754.62449  -5176268.24947  20937906.8564   20937902.5954
      -603.8914
 -12152559.48549  -9461587.44846  21947770.2084   21947765.5954
      2162.0004
 04  9 10 16 35  0.0010000  0  6G 1G11G14G23G25G20
  -8651946.66149  -6736461.53447  20851510.3964   20851506.3644
       383.6724
  -1264905.31349   -981362.46946  21791152.9194   21791148.8024
     -1615.5624
  14778007.95347  11504208.95043  23836943.5994   23836940.8254
     -3101.8914
  -5945872.45347  -4618397.88044  23170974.4664   23170968.4704
      2309.5314
  -6642625.78449  -5169154.87847  20939644.4744   20939639.6344
      -613.2814
 -12184958.84449  -9486833.69446  21941604.7864   21941600.0444
      2157.9224
 04  9 10 16 35 15.0010000  0  6G 1G11G14G23G25G20
  -8657659.05849  -6740912.74747  20850423.1854   20850418.8454
       378.0164
  -1240604.59249   -962426.86247  21795777.6694   21795772.9704
     -1624.4224
  14824547.21847  11540473.27443  23845799.4744   23845796.7824
     -3103.1724
  -5980486.70447  -4645370.01244  23164387.9744   23164381.6494
      2305.8134
  -6633355.52549  -5161931.29247  20941408.1224   20941403.3644
      -622.7034
 -12217294.58249  -9512030.37146  21935451.6614   21935447.0954
      2153.6094
 04  9 10 16 35 30.0010000  0  6G 1G11G14G23G25G20
  -8663285.36149  -6745296.89047  20849352.2944   20849348.3534
       372.0944
  -1216167.84249   -943385.24546  21800427.3564   21800422.9934
     -1633.7504
  14871108.20348  11576754.49843  23854659.9114   23854657.6534
     -3104.9224
  -6015044.47048  -4672298.15645  23157812.1304   23157806.1774
      2301.8914
  -6623941.81649  -5154595.94247  20943199.5364   20943194.8494
      -632.4694
 -12249564.29849  -9537175.60246  21929310.7944   21929305.9234
      2149.0164
 04  9 10 16 35 45.0010000  0  6G 1G11G14G23G25G20
  -8668825.98149  -6749614.24447  20848297.8174   20848293.7784
       366.6094
  -1191595.73249   -924238.16746  21805104.0134   21805098.9034
     -1642.5474
  14917690.45548  11613052.31643  23863524.7634   23863521.5054
     -3106.0944
  -6049545.97047  -4699182.41945  23151246.1224   23151240.9544
      2298.3134
  -6614385.18949  -5147149.21347  20945018.3414   20945013.3534
      -641.7664
 -12281768.19249  -9562269.54046  21923182.5994   21923177.8174
      2144.8754
 04  9 10 16 36  0.0010000  0  6G 1G11G14G23G25G20
  -8674282.48849  -6753866.07447  20847259.7864   20847255.8604
       361.0784
  -1166889.77049   -904986.77246  21809804.9114   21809800.7554
     -1651.4224
  14964292.34147  11649365.43743  23872392.8724   23872389.9784
     -3107.4224
  -6083992.73847  -4726024.04044  23144691.3644   23144685.4934
      2294.7504
  -6604687.31549  -5139592.43347  20946863.4894   20946858.7044
      -651.1094
 -12313907.58449  -9587313.21346  21917066.4744   21917062.2944
      2140.5944
 04  9 10 16 36 15.0010000  0  6G 1G11G14G23G25G20
  -8679653.94849  -6758051.61947  20846237.5214   20846233.6774
       355.2974
  -1142049.03649   -885630.37046  21814532.0214   21814527.3064
     -1660.5004
  15010914.89947  11685694.64143  23881264.3334   23881261.7124
     -3108.8754
  -6118383.72947  -4752822.21244  23138146.5524   23138141.0014
      2290.8594
  -6594847.19649  -5131924.81547  20948735.8334   20948731.4814
      -660.6874
 -12345981.04749  -9612305.51546  21910963.1384   21910958.8644
      2136.0474
 04  9 10 16 36 30.0010000  0  6G 1G11G14G23G25G20
  -8684937.28149  -6762168.49947  20845232.1224   20845228.1884
       349.7344
  -1117070.69549   -866166.73946  21819285.4194   21819280.2284
     -1669.3594
  15057561.00047  11722042.24743  23890140.5994   23890138.2044
     -3110.1254
  -6152715.71947  -4779574.38944  23131614.0754   23131607.4814
      2287.2814
  -6584861.90949  -5124144.08247  20950636.0214   20950631.4744
      -670.1094
 -12377985.34349  -9637243.91946  21904873.5834   21904868.4814
      2131.7504
 04  9 10 16 36 45.0010000  0  6G 1G11G14G23G25G20
  -8690139.18348  -6766221.93247  20844242.1224   20844237.8134
       343.8284
  -1091961.72349   -846601.32046  21824063.5444   21824058.7714
     -1678.4844
  15104223.98847  11758402.94543  23899020.7474   23899018.3374
     -3111.6254
  -6186995.25947  -4806285.70844  23125090.9894   23125084.2124
      2283.3284
  -6574738.23248  -5116255.49947  20952562.9034   20952558.0914
      -679.7504
 -12409926.77849  -9662133.34546  21898795.0214   21898789.9974
      2127.0944
 04  9 10 16 37  0.0010000  0  6G 1G11G14G23G25G20
  -8695253.49949  -6770207.11447  20843269.2714   20843264.6814
       338.0004
  -1066716.11848   -826929.43446  21828867.9664   21828863.1654
     -1687.6094
  15150910.00348  11794781.59743  23907904.7864   23907902.2004
     -3113.2034
  -6221216.21047  -4832951.37344  23118578.7164   23118572.3214
      2279.3914
  -6564469.98349  -5108254.28247  20954516.7554   20954512.0754
      -689.4844
 -12441799.05949  -9686968.89446  21892729.6534   21892724.6264
      2122.4534
 04  9 10 16 37 15.0010000  0  6G 1G11G14G23G25G20
  -8700280.87848  -6774124.55747  20842312.2314   20842307.7244
       332.3284
  -1041334.56248   -807151.61146  21833697.2244   21833692.9154
     -1696.5164
  15197618.36747  11831177.68143  23916793.2004   23916790.4154
     -3114.5944
  -6255379.11947  -4859571.81744  23112077.2944   23112070.9854
      2275.7034
  -6554057.82648  -5100140.90647  20956497.8804   20956493.0834
      -698.9064
 -12473602.43849  -9711750.74046  21886677.5604   21886672.9114
      2117.9694
 04  9 10 16 37 30.0010000  0  6G 1G11G14G23G25G20
  -8705226.11448  -6777977.98947  20841371.2554   20841366.8294
       327.1094
  -1015821.93549   -787271.66547  21838552.2944   21838547.6184
     -1705.1094
  15244344.15148  11867587.36243  23925685.3494   23925681.8214
     -3115.4064
  -6289488.63247  -4886150.66044  23105586.1144   23105580.4074
      2272.3134
  -6543506.47848  -5091919.08147  20958506.1534   20958501.5484
      -707.9224
 -12505341.36349  -9736482.36446  21880638.1064   21880633.6304
      2113.9224
 04  9 10 16 37 45.0010000  0  6G 1G11G14G23G25G20
  -8710089.48248  -6781767.63847  20840445.9114   20840441.7084
       321.2814
   -990178.74249   -767289.97846  21843432.1144   21843427.6654
     -1714.1094
  15291087.17047  11904010.44443  23934579.7634   23934576.8374
     -3117.0474
  -6323544.78747  -4912687.91244  23099105.9034   23099100.0634
      2268.5164
  -6532816.37749  -5083589.13647  20960540.0524   20960535.8064
      -717.5314
 -12537015.84649  -9761163.77946  21874610.5054   21874605.9584
      2109.2664
 04  9 10 16 38  0.0010000  0  6G 1G11G14G23G25G20
  -8714868.15448  -6785491.26747  20839536.5214   20839532.5134
       315.8284
   -964402.28248   -747204.44146  21848337.2164   21848332.5484
     -1722.7974
  15337850.22748  11940449.14543  23943478.4744   23943474.8604
     -3118.2194
  -6357544.73447  -4939181.36844  23092635.4274   23092630.0564
      2264.8594
  -6521984.79348  -5075148.94147  20962601.1304   20962597.0284
      -726.9064
 -12568622.75849  -9785792.53746  21868596.0054   21868591.6854
      2104.8754
 04  9 10 16 38 15.0010000  0  6G 1G11G14G23G25G20
  -8719564.53648  -6789150.78447  20838642.7554   20838638.8174
       310.3444
   -938495.13848   -727017.06246  21853267.1384   21853262.5674
     -1731.4534
  15384630.84147  11976901.52143  23952379.4664   23952377.8174
     -3119.3124
  -6391490.86647  -4965632.88444  23086175.7394   23086170.0134
      2261.1724
  -6511014.20949  -5066600.43047  20964689.0364   20964684.3534
      -736.0314
 -12600164.31549  -9810370.36846  21862593.9504   21862588.8964
      2100.6414
 04  9 10 16 38 30.0010000  0  6G 1G11G14G23G25G20
  -8724179.01049  -6792746.47747  20837764.7554   20837760.3644
       304.9384
   -912457.81249   -706728.24546  21858222.1064   21858216.9744
     -1740.0944
  15431428.64947  12013367.33742  23961285.4974   23961282.9664
     -3120.3124
  -6425383.36147  -4992042.60344  23079726.1464   23079720.7514
      2257.7974
  -6499904.99349  -5057943.91147  20966803.1774   20966798.5954
      -745.2034
 -12631640.55449  -9834897.30846  21856603.9354   21856599.2284
      2096.2814
 04  9 10 16 38 45.0010000  0  6G 1G11G14G23G25G20
  -8728711.41548  -6796278.22247  20836902.2314   20836898.1424
       299.2814
   -886290.39549   -686338.05547  21863201.8724   21863197.0564
     -1748.9534
  15478243.66848  12049846.50042  23970195.0054   23970192.0954
     -3121.6564
  -6459221.88647  -5018410.26845  23073287.6774   23073281.3804
      2254.0944
  -6488657.03348  -5049179.27647  20968943.4504   20968938.3374
      -754.5624
 -12663050.91449  -9859372.90646  21850627.4274   21850622.5954
      2091.7194
 04  9 10 16 39  0.0010000  0  6G 1G11G14G23G25G20
  -8733161.49649  -6799745.82547  20836055.3804   20836051.3994
       293.9534
   -859992.67949   -665846.34646  21868205.9974   21868201.3214
     -1757.4694
  15525076.21947  12086339.34143  23979106.9744   23979103.7904
     -3122.6254
  -6493006.16347  -5044735.67645  23066858.9424   23066852.4424
      2250.5474
  -6477270.28349  -5040306.48747  20971110.0284   20971105.9704
      -763.6724
 -12694394.92749  -9883796.80846  21844662.4584   21844657.7554
      2087.4224
 04  9 10 16 39 15.0010000  0  6G 1G11G14G23G25G20
  -8737528.18049  -6803148.43847  20835224.6614   20835220.0054
       288.1884
   -833563.83848   -645252.44346  21873235.3564   21873230.2004
     -1766.4064
  15571927.21148  12122846.58943  23988022.3724   23988019.0404
     -3124.2194
  -6526735.03448  -5071017.89745  23060440.1384   23060434.2244
      2246.5314
  -6465743.75249  -5031324.76747  20973303.5604   20973299.2394
      -773.2814
 -12725671.19249  -9908167.91846  21838710.5444   21838705.7674
      2082.6884
 04  9 10 16 39 30.0010000  0  6G 1G11G14G23G25G20
  -8741810.74648  -6806485.49947  20834409.5444   20834405.4934
       282.6414
   -807003.27848   -624555.93346  21878289.2554   21878284.4624
     -1775.1254
  15618797.45547  12159368.81142  23996940.7394   23996938.1384
     -3125.4064
  -6560407.70547  -5097256.33644  23054032.7084   23054026.7044
      2242.9384
  -6454076.72449  -5022233.58947  20975523.7084   20975519.2124
      -782.5004
 -12756878.70549  -9932485.46446  21832772.3254   21832767.4744
      2078.1724
 04  9 10 16 39 45.0010000  0  6G 1G11G14G23G25G20
  -8746011.22549  -6809758.59647  20833610.2084   20833606.1064
       277.4844
   -780312.99348   -603758.31246  21883367.9354   21883363.4704
     -1783.5474
  15665684.84748  12195904.41142  24005863.6224   24005860.0014
     -3126.1874
  -6594025.97948  -5123452.39045  23047635.5444   23047628.6344
      2239.5314
  -6442271.27049  -5013034.53747  20977770.6854   20977765.8064
      -791.4064
 -12788019.15849  -9956750.74446  21826846.3174   21826841.2244
      2073.9534
 04  9 10 16 40  0.0010000  0  6G 1G11G14G23G25G20
  -8750130.25249  -6812968.23947  20832826.4504   20832822.7434
       271.9224
   -753494.09049   -582860.47646  21888471.4194   21888466.6614
     -1792.2034
  15712588.73247  12232452.83742  24014788.4274   24014785.6224
     -3127.4534
  -6627590.55047  -5149606.57744  23041247.7244   23041241.5324
      2235.9064
  -6430328.09049  -5003728.16747  20980043.0674   20980038.7164
      -800.7504
 -12819093.09749  -9980964.19846  21820933.3414   21820928.2284
      2069.3914
 04  9 10 16 40 15.0010000  0  6G 1G11G14G23G25G20
  -8754166.07449  -6816113.03347  20832058.2004   20832054.2284
       266.0944
   -726544.74649   -561860.99146  21893600.1464   21893595.0564
     -1801.1724
  15759510.79047  12269015.43442  24023718.0524   24023714.7634
     -3129.0004
  -6661099.28947  -5175717.28445  23034871.7004   23034865.0754
      2231.8444
  -6418245.55149  -4994313.21147  20982342.1924   20982337.8724
      -810.3284
 -12850098.33049 -10005124.10247  21815033.2004   21815028.0524
      2064.5164
 04  9 10 16 40 30.0010000  0  6G 1G11G14G23G25G20
  -8758118.22249  -6819192.63047  20831306.1534   20831302.4234
       260.5634
   -699464.68049   -540759.65546  21898753.4034   21898748.6104
     -1809.7664
  15806451.45248  12305592.55842  24032650.9584   24032647.0674
     -3130.1094
  -6694551.79647  -5201784.15845  23028505.1694   23028499.6534
      2228.1884
  -6406023.11849  -4984789.24147  20984668.1064   20984663.4504
      -819.6094
 -12881034.09449 -10029229.90147  21809145.8334   21809141.1854
      2059.9694
 04  9 10 16 40 45.0010000  0  6G 1G11G14G23G25G20
  -8761988.16449  -6822208.17047  20830569.8884   20830565.9034
       255.2664
   -672255.65649   -519557.83146  21903930.9974   21903926.6424
     -1818.2664
  15853409.35448  12342183.09143  24041586.5994   24041583.1574
     -3131.1254
  -6727949.42947  -5227808.26045  23022150.0914   23022144.3104
      2224.7034
  -6393662.31749  -4975157.44847  20987020.2714   20987015.4354
      -828.6724
 -12911901.43349 -10053282.35947  21803272.0444   21803267.6184
      2055.5314
 04  9 10 16 41  0.0010000  0  6G 1G11G14G23G25G20
  -8765780.29549  -6825163.07647  20829848.5134   20829844.4814
       249.9534
   -644922.09549   -498258.96346  21909131.9504   21909127.6344
     -1826.5784
  15900380.09248  12378783.59442  24050524.6144   24050522.1144
     -3132.0164
  -6761296.46348  -5253792.96445  23015805.4354   23015798.7284
      2221.1884
  -6381167.55549  -4965421.27047  20989398.1304   20989393.4544
      -837.6724
 -12942704.51349 -10077284.74646  21797410.0674   21797405.8334
      2051.1884
 04  9 10 16 41 15.0010000  0  6G 1G11G14G23G25G20
  -8769490.53649  -6828054.18447  20829142.3254   20829138.5244
       244.5784
   -617460.10048   -476860.02746  21914358.1144   21914353.6854
     -1835.1874
  15947367.61148  12415397.23342  24059467.2554   24059463.7824
     -3133.1254
  -6794588.64747  -5279734.91445  23009468.8804   23009462.9624
      2217.6564
  -6368534.89049  -4955577.65547  20991802.0214   20991797.6534
      -846.8284
 -12973438.98849 -10101233.68546  21791561.5604   21791557.4544
      2046.6564
 04  9 10 16 41 30.0010000  0  6G 1G11G14G23G25G20
  -8773117.90649  -6830880.70747  20828452.0604   20828447.4274
       239.0164
   -589868.85649   -455360.38346  21919608.5914   21919604.1854
     -1843.7814
  15994372.91948  12452024.69043  24068411.6384   24068408.9154
     -3134.3754
  -6827824.92947  -5305633.29744  23003143.9114   23003138.4424
      2213.7814
  -6355763.43249  -4945625.86247  20994232.3724   20994227.2284
      -856.1254
 -13004103.46749 -10125128.09547  21785726.6774   21785721.8924
      2041.8444
 04  9 10 16 41 45.0010000  0  6G 1G11G14G23G25G20
  -8776662.85149  -6833642.99947  20827777.3494   20827773.2944
       233.5164
   -562149.00949   -433760.51246  21924883.4504   21924879.3534
     -1852.3284
  16041395.59947  12488665.68742  24077358.5524   24077357.1884
     -3135.4224
  -6861005.64547  -5331488.39044  22996830.4974   22996824.4354
      2210.1414
  -6342853.65349  -4935566.31148  20996689.0914   20996684.3604
      -865.2814
 -13034698.19249 -10148968.13147  21779904.6224   21779900.0054
      2037.2344
 04  9 10 16 42  0.0010000  0  6G 1G11G14G23G25G20
  -8780128.62949  -6836343.61147  20827118.0674   20827113.9814
       228.4844
   -534303.91749   -412063.06846  21930182.1064   21930177.7984
     -1860.3754
  16088432.29247  12525317.61642  24086309.7784   24086307.5244
     -3136.2974
  -6894133.96447  -5357302.65245  22990526.4424   22990520.3804
      2206.8914
  -6329808.97149  -4925401.62047  20999170.8724   20999166.6654
      -874.0624
 -13065226.11649 -10172756.12047  21774095.6144   21774090.3804
      2033.0474
 04  9 10 16 42 15.0010000  0  6G 1G11G14G23G25G20
  -8783514.32549  -6838981.82247  20826473.6224   20826469.1264
       223.0944
   -506332.85048   -390267.46246  21935504.8254   21935500.6814
     -1868.9694
  16135483.93647  12561981.19042  24095262.6064   24095261.6924
     -3137.2194
  -6927208.77548  -5383075.22845  22984232.0524   22984226.0014
      2203.2504
  -6316628.53549  -4915131.15647  21001679.3024   21001675.2434
      -883.1724
 -13095685.98949 -10196491.08347  21768299.2474   21768295.0484
      2028.4534
 04  9 10 16 42 30.0010000  0  6G 1G11G14G23G25G20
  -8786819.49949  -6841557.28647  20825844.6924   20825840.4624
       217.7504
   -478235.45749   -368373.39846  21940851.6854   21940847.4154
     -1877.2974
  16182550.99447  12598656.80342  24104219.8964   24104218.2824
     -3138.2344
  -6960229.64647  -5408805.76945  22977948.3104   22977942.4194
      2199.7344
  -6303312.00249  -4904754.64147  21004213.4194   21004208.6614
      -892.1874
 -13126077.02549 -10220172.40446  21762516.0214   21762511.1774
      2023.9064
 04  9 10 16 42 45.0010000  0  6G 1G11G14G23G25G20
  -8790045.23249  -6844070.85147  20825230.8644   20825226.3174
       212.5004
   -450013.18449   -346382.03346  21946222.4114   21946218.1694
     -1885.5784
  16229632.26747  12635343.47642  24113178.8564   24113177.3804
     -3139.2344
  -6993197.50848  -5434494.99845  22971674.8174   22971668.8254
      2196.1414
  -6289860.46249  -4894272.93547  21006773.1224   21006768.0524
      -901.2034
 -13156400.05749 -10243800.73747  21756745.7084   21756740.7284
      2019.3444
 04  9 10 16 43  0.0010000  0  6G 1G11G14G23G25G20
  -8793187.66949  -6846519.49947  20824633.1924   20824629.1854
       206.8284
   -421662.22549   -324290.38347  21951617.3334   21951612.9894
     -1894.3444
  16276731.63647  12672044.23142  24122142.5674   24122139.9194
     -3140.5164
  -7026108.43748  -5460139.85545  22965412.2714   22965405.9934
      2192.1884
  -6276270.12449  -4883683.06747  21009359.6144   21009354.7124
      -910.6564
 -13186650.92049 -10267372.83447  21750989.5134   21750984.4544
      2014.3754
 04  9 10 16 43 15.0010000  0  6G 1G11G14G23G25G20
  -8796249.65149  -6848905.46847  20824049.9664   20824045.8134
       201.4064
   -393185.70449   -302100.90846  21957036.7474   21957031.9974
     -1902.6414
  16323846.10447  12708756.73742  24131108.8024   24131105.8414
     -3141.4374
  -7058965.22448  -5485742.55245  22959159.6614   22959153.7124
      2188.6094
  -6262543.96949  -4872987.37447  21011971.4584   21011966.3884
      -919.6874
 -13216832.19849 -10290890.71847  21745245.6464   21745240.6884
      2009.6564
 04  9 10 16 43 30.0010000  0  6G 1G11G14G23G25G20
  -8799233.01649  -6851230.16447  20823482.4504   20823478.0674
       196.2034
   -364585.48949   -279815.03946  21962479.0674   21962474.0794
     -1910.8594
  16370973.97447  12745479.69742  24140076.5364   24140073.5754
     -3142.3124
  -7091769.45748  -5511304.27045  22952917.8254   22952911.0014
      2185.1094
  -6248683.77949  -4862187.22347  21014608.9664   21014604.0174
      -928.6094
 -13246945.37749 -10314355.52147  21739515.2864   21739510.6734
      2005.1884
 04  9 10 16 43 45.0010000  0  6G 1G11G14G23G25G20
  -8802135.88949  -6853492.15247  20822929.8964   20822926.3564
       190.9534
   -335859.91149   -257431.48246  21967945.2634   21967940.6734
     -1919.1094
  16418117.02747  12782214.52042  24149047.1224   24149044.7514
     -3143.3124
  -7124519.16248  -5536823.50545  22946684.9814   22946679.3454
      2181.6094
  -6234687.83149  -4851281.31347  21017272.2004   21017267.3604
      -937.5004
 -13276988.28449 -10337765.58147  21733798.4034   21733793.8454
      2000.6094
 04  9 10 16 44  0.0010000  0  6G 1G11G14G23G25G20
  -8804957.39349  -6855690.73547  20822393.3414   20822388.7744
       185.3134
   -307008.22748   -234949.65746  21973435.5214   21973430.9974
     -1927.7034
  16465276.09047  12818961.79742  24158021.4584   24158018.7674
     -3144.4844
  -7157213.45248  -5562299.57545  22940463.5914   22940457.6884
      2177.7664
  -6220555.38248  -4840269.02148  21019961.5604   21019957.2394
      -946.8444
 -13306959.69048 -10361119.92147  21728095.0914   21728089.9424
      1995.6724
 04  9 10 16 44 15.0010000  0  6G 1G11G14G23G25G20
  -8807697.00149  -6857825.49647  20821871.7634   20821867.5714
       179.7974
   -278030.19348   -212369.37946  21978949.4584   21978945.1924
     -1936.1724
  16512451.83747  12855722.08342  24166997.9504   24166995.7634
     -3145.7194
  -7189851.65248  -5587731.90945  22934253.6304   22934246.3414
      2173.9534
  -6206285.88849  -4829149.94048  21022677.4424   21022672.4274
      -956.0164
 -13336858.73749 -10384417.87547  21722405.5524   21722400.8764
      1990.7194
 04  9 10 16 44 30.0010000  0  6G 1G11G14G23G25G20
  -8810353.84349  -6859895.75847  20821366.0834   20821361.7044
       174.4384
   -248925.09648   -189690.08946  21984487.9504   21984483.7474
     -1944.5004
  16559644.99647  12892495.89442  24175979.6144   24175977.2984
     -3146.7814
  -7222432.77448  -5613119.79944  22928052.3964   22928047.3254
      2170.2664
  -6191878.48249  -4817923.39147  21025418.9194   21025414.1614
      -965.0624
 -13366684.22749 -10407658.51047  21716729.8414   21716724.7864
      1985.9694
 04  9 10 16 44 45.0010000  0  6G 1G11G14G23G25G20
  -8812930.29349  -6861903.38847  20820875.4894   20820871.9894
       169.0164
   -219695.37948   -166913.70346  21990050.6614   21990045.5674
     -1952.7974
  16606853.31047  12929281.57242  24184962.1064   24184960.4664
     -3147.7974
  -7254959.00047  -5638464.89345  22921863.0284   22921857.1224
      2166.6094
  -6177335.71948  -4806591.38348  21028186.1854   21028181.4664
      -974.0944
 -13396438.26748 -10430843.48247  21711067.9114   21711063.1224
      1981.2194
 04  9 10 16 45  0.0010000  0  6G 1G11G14G23G25G20
  -8815427.57749  -6863849.32647  20820400.7784   20820396.6964
       163.7194
   -190342.46348   -144041.30246  21995636.1464   21995631.4624
     -1961.1414
  16654075.50847  12966078.02942  24193947.9744   24193946.1494
     -3148.7664
  -7287431.50748  -5663768.13145  22915684.1774   22915678.2044
      2162.9534
  -6162658.91349  -4795154.92147  21030978.9274   21030974.4114
      -983.0784
 -13426121.82849 -10453973.52446  21705419.4814   21705414.6384
      1976.4224
 04  9 10 16 45 15.0010000  0  6G 1G11G14G23G25G20
  -8817843.70249  -6865732.02447  20819940.7784   20819936.4074
       158.3594
   -160864.62448   -121071.58846  22001245.6224   22001240.9384
     -1969.3444
  16701313.50847  13002886.81442  24202938.0284   24202935.6854
     -3149.6564
  -7319848.21248  -5689027.88845  22909515.4114   22909509.0484
      2159.1884
  -6147846.15149  -4783612.51347  21033797.8024   21033792.8174
      -992.0004
 -13455732.58048 -10477046.83547  21699784.4814   21699779.6734
      1971.6414
 04  9 10 16 45 30.0010000  0  6G 1G11G14G23G25G20
  -8820178.54549  -6867551.39047  20819496.3494   20819492.3254
       152.8914
   -131261.69048    -98004.38846  22006878.4814   22006874.3334
     -1977.7034
  16748567.29147  13039707.93442  24211930.0914   24211927.5324
     -3150.7664
  -7352208.88948  -5714243.98145  22903357.3804   22903351.2824
      2155.5004
  -6132897.36949  -4771964.11847  21036642.1304   21036637.5634
     -1001.1094
 -13485270.09948 -10500063.06447  21694163.9354   21694159.2554
      1966.7504
 04  9 10 16 45 45.0010000  0  6G 1G11G14G23G25G20
  -8822433.40049  -6869308.41347  20819067.6064   20819063.5834
       147.6724
   -101535.32848    -74840.98846  22012535.5364   22012531.0634
     -1985.9064
  16795835.64847  13076540.33342  24220925.2004   24220922.1734
     -3151.7664
  -7384514.67048  -5739417.30245  22897209.8334   22897203.5634
      2151.8444
  -6117814.00648  -4760210.85647  21039512.6144   21039507.8644
     -1010.0784
 -13514735.39748 -10523023.03947  21688556.3564   21688551.7674
      1961.9694
 04  9 10 16 46  0.0010000  0  6G 1G11G14G23G25G20
  -8824606.95149  -6871002.10347  20818653.7314   20818649.5914
       142.1884
    -71684.39048    -51580.53846  22018216.0134   22018211.5284
     -1994.2344
  16843119.94447  13113385.19042  24229922.9354   24229920.2824
     -3152.9064
  -7416764.18648  -5764546.78845  22891072.9504   22891066.2904
      2148.0004
  -6102594.77149  -4748351.71647  21042408.5604   21042404.2634
     -1019.1254
 -13544126.78748 -10545925.40947  21682963.8104   21682958.8564
      1956.9224
 04  9 10 16 46 15.0010000  0  6G 1G11G14G23G25G20
  -8826699.77149  -6872632.87047  20818255.5524   20818251.8104
       137.0004
    -41709.65448    -28223.61946  22023920.2864   22023915.7394
     -2002.2974
  16890419.49147  13150241.92642  24238923.3104   24238921.1304
     -3153.7034
  -7448957.81548  -5789632.71645  22884946.4034   22884940.3174
      2144.5314
  -6087240.30048  -4736387.20447  21045330.5674   21045325.9034
     -1028.0314
 -13573444.55748 -10568770.43247  21677384.7864   21677379.6344
      1952.1884
 04  9 10 16 46 30.0010000  0  6G 1G11G14G23G25G20
  -8828712.75449  -6874201.42847  20817872.8104   20817868.9854
       131.4064
    -11612.13548     -4771.01346  22029647.5994   22029642.9894
     -2010.7664
  16937733.39947  13187109.89842  24247926.8174   24247924.7984
     -3154.8754
  -7481096.50848  -5814675.84245  22878830.6304   22878825.4544
      2140.5474
  -6071751.68849  -4724318.16647  21048278.2634   21048273.4974
     -1037.2194
 -13602689.25048 -10591558.49747  21671819.6064   21671814.8024
      1947.0784
 04  9 10 16 46 45.0010000  0  6G 1G11G14G23G25G20
  -8830643.05449  -6875705.56147  20817505.4274   20817501.2904
       126.0164
     18610.85848     18779.35146  22035398.3804   22035393.5324
     -2018.8914
  16985064.55947  13223991.28442  24256935.0214   24256932.2514
     -3155.9064
  -7513177.21548  -5839673.78045  22872726.1144   22872720.5874
      2136.8914
  -6056126.15549  -4712142.43147  21051251.6064   21051246.8844
     -1046.1254
 -13631857.74648 -10614287.18847  21666268.9974   21666264.4894
      1942.1094
 04  9 10 16 47  0.0010000  0  6G 1G11G14G23G25G20
  -8832491.43549  -6877145.85947  20817153.5054   20817149.6964
       120.3754
     48958.22248     42426.63046  22041173.5604   22041168.6854
     -2027.4694
  17032412.15548  13260885.43542  24265944.8494   24265941.7984
     -3157.1414
  -7545200.61848  -5864627.08245  22866631.7314   22866626.5244
      2132.7814
  -6040364.44849  -4699860.58547  21054250.8964   21054246.3534
     -1055.4534
 -13660950.62648 -10636956.96147  21660733.1384   21660727.7744
      1936.8914
 04  9 10 16 47 15.0010000  0  6G 1G11G14G23G25G20
  -8834259.56749  -6878523.62347  20816817.0674   20816813.1774
       115.2504
     79428.15348     66169.42046  22046971.8104   22046967.1144
     -2035.3594
  17079774.46747  13297791.11942  24274956.0364   24274954.0014
     -3157.8914
  -7577168.34848  -5889536.98145  22860548.8964   22860543.2044
      2129.2974
  -6024468.49049  -4687474.13047  21057275.6534   21057271.2904
     -1064.1414
 -13689969.13348 -10659568.78047  21655210.6614   21655205.5794
      1932.0004
 04  9 10 16 47 30.0010000  0  6G 1G11G14G23G25G20
  -8835947.68249  -6879839.05047  20816495.7864   20816491.6144
       109.9064
    110020.34048     90007.46146  22052793.4584   22052789.1494
     -2043.4694
  17127151.35347  13334708.10643  24283973.1694   24283970.0914
     -3158.9224
  -7609080.46548  -5914403.54545  22854475.9194   22854470.2244
      2125.6884
  -6008438.47349  -4674983.21747  21060326.1224   21060321.3024
     -1073.0624
 -13718913.12848 -10682122.53547  21649702.4814   21649698.0174
      1927.1414
 04  9 10 16 47 45.0010000  0  6G 1G11G14G23G25G20
  -8837557.45749  -6881093.42947  20816189.3884   20816185.1814
       104.9384
    140732.86148    113939.28446  22058638.0674   22058633.4584
     -2051.3124
  17174541.13047  13371635.16642  24292990.0994   24292988.0284
     -3159.5784
  -7640938.45048  -5939227.93745  22848414.0214   22848407.9114
      2122.2974
  -5992276.16649  -4662389.21047  21063401.8494   21063397.0714
     -1081.6874
 -13747784.08349 -10704619.38047  21644208.8644   21644204.1534
      1922.5004
 04  9 10 16 48  0.0010000  0  6G 1G11G14G23G25G20
  -8839089.00849  -6882286.85447  20815898.1694   20815894.0754
        99.3914
    171565.37948    137964.60246  22064505.0834   22064500.1574
     -2059.6254
  17221943.66847  13408572.19343  24302010.5914   24302008.3844
     -3160.7664
  -7672742.45448  -5964010.26645  22842362.3724   22842356.0484
      2118.3594
  -5975981.75549  -4649692.27847  21066502.1614   21066497.7744
     -1090.7664
 -13776581.75949 -10727059.12147  21638728.8414   21638723.9384
      1917.3284
 04  9 10 16 48 15.0010000  0  6G 1G11G14G23G25G20
  -8840539.10349  -6883416.79047  20815622.1384   20815618.0014
        94.0634
    202521.06248    162085.90146  22070395.8644   22070391.3294
     -2067.6724
  17269362.24146  13445521.68343  24311034.9814   24311031.8214
     -3161.6564
  -7704488.92548  -5988747.75645  22836320.4354   22836314.5874
      2114.5164
  -5959552.01149  -4636889.87947  21069628.8804   21069623.9074
     -1099.7664
 -13805302.47748 -10749438.88647  21633263.6774   21633258.3994
      1912.2194
 04  9 10 16 48 30.0010000  0  6G 1G11G14G23G25G20
  -8841911.05449  -6884485.85647  20815360.8024   20815356.9194
        88.8444
    233596.37248    186300.40846  22076309.2394   22076304.6224
     -2075.6724
  17316793.42047  13482480.97242  24320060.4354   24320057.5444
     -3162.4374
  -7736181.22448  -6013443.04145  22830290.1304   22830283.8414
      2111.0164
  -5942990.58449  -4623984.88347  21072780.3724   21072775.9194
     -1108.5004
 -13833949.38548 -10771761.15347  21627811.9814   21627806.9624
      1907.2814
 04  9 10 16 48 45.0010000  0  6G 1G11G14G23G25G20
  -8843204.85349  -6885494.01647  20815114.9504   20815111.5324
        83.5004
    264791.16448    210608.01946  22082245.4894   22082241.0014
     -2083.7034
  17364237.14946  13519450.13542  24329087.1224   24329086.1344
     -3163.4844
  -7767819.19448  -6038095.99445  22824269.5834   22824263.0054
      2107.3594
  -5926297.62149  -4610977.38947  21075956.9274   21075952.5014
     -1117.3284
 -13862522.22349 -10794025.70447  21622375.0604   21622369.5604
      1902.2814
 04  9 10 16 49  0.0010000  0  6G 1G11G14G23G25G20
  -8844420.45749  -6886441.23947  20814883.5834   20814879.7044
        78.3284
    296105.07948    235008.45746  22088203.9974   22088199.6654
     -2091.6254
  17411693.49645  13556429.02942  24338118.3804   24338116.7354
     -3164.2814
  -7799402.71048  -6062706.52745  22818258.9114   22818252.9854
      2103.6094
  -5909473.00048  -4597867.30047  21079158.6774   21079154.3414
     -1126.1724
 -13891020.56748 -10816232.20147  21616951.6224   21616946.7714
      1897.2974
 04  9 10 16 49 15.0010000  0  6G 1G11G14G23G25G20
  -8845556.84449  -6887326.73247  20814667.4114   20814663.4234
        73.2814
    327539.10748    259502.48746  22094185.8564   22094181.1654
     -2099.5624
  17459163.47046  13593418.58942  24347152.3884   24347150.2514
     -3165.0314
  -7830930.66048  -6087273.73645  22812259.4424   22812253.0054
      2100.0314
  -5892515.81149  -4584653.90847  21082385.6144   21082381.0094
     -1134.7974
 -13919442.95849 -10838379.50447  21611543.4354   21611539.0874
      1892.4064
 04  9 10 16 49 30.0010000  0  6G 1G11G14G23G25G20
  -8846617.10549  -6888152.92647  20814465.6224   20814461.2474
        67.9694
    359089.96948    284087.55546  22100189.7474   22100185.2744
     -2107.5474
  17506644.06846  13630416.44542  24356188.7164   24356185.4274
     -3165.9534
  -7862406.09148  -6111800.06145  22806270.2314   22806263.0284
      2096.3914
  -5875429.23049  -4571339.69147  21085637.3174   21085632.3994
     -1143.6414
 -13947792.34649 -10860469.93347  21606148.6384   21606143.7394
      1887.3594
 04  9 10 16 49 45.0010000  0  6G 1G11G14G23G25G20
  -8847599.08449  -6888918.09647  20814278.8644   20814274.1464
        62.8914
    390759.71848    308765.26546  22106216.1384   22106211.6304
     -2115.1724
  17554137.31746  13667424.07942  24365224.7944   24365222.6964
     -3166.4534
  -7893826.64348  -6136283.60945  22800290.6924   22800284.1884
      2092.9064
  -5858211.18948  -4557923.04247  21088913.7394   21088908.4544
     -1152.2344
 -13976066.20348 -10882501.50747  21600768.7084   21600763.3804
      1882.5784
 04  9 10 16 50  0.0010000  0  6G 1G11G14G23G25G20
  -8848504.01349  -6889623.24647  20814106.1614   20814102.4744
        57.5634
    422546.73649    333534.36746  22112265.0054   22112260.8454
     -2123.2664
  17601641.98146  13704440.68642  24374265.8564   24374262.5994
     -3167.5624
  -7925193.46848  -6160725.27645  22794321.7864   22794316.0364
      2089.0944
  -5840863.06349  -4544405.03147  21092214.6144   21092209.8214
     -1161.1094
 -14004265.41048 -10904474.91547  21595402.1464   21595396.9194
      1877.2194
 04  9 10 16 50 15.0010000  0  6G 1G11G14G23G25G20
  -8849327.22449  -6890264.71347  20813949.6224   20813945.7784
        52.1254
    454455.53149    358398.33246  22118337.6614   22118332.6924
     -2131.3594
  17649162.70246  13741469.82742  24383308.1144   24383306.1734
     -3168.5944
  -7956501.79748  -6185121.37645  22788363.9974   22788358.2554
      2085.2504
  -5823380.32149  -4530782.12947  21095541.4034   21095536.8174
     -1170.0474
 -14032385.07748 -10926386.34147  21590050.9584   21590045.9974
      1871.9694
 04  9 10 16 50 30.0010000  0  6G 1G11G14G23G25G20
  -8850069.33349  -6890842.98747  20813808.4034   20813804.5284
        46.7814
    486485.25348    383356.54746  22124432.6854   22124427.9424
     -2139.3594
  17696699.05046  13778511.04642  24392353.9584   24392351.9584
     -3169.5784
  -7987752.09448  -6209472.24545  22782417.8024   22782411.5444
      2081.4844
  -5805763.56449  -4517054.78247  21098894.1854   21098888.9934
     -1178.8594
 -14060425.46848 -10948235.98847  21584714.7474   21584710.3964
      1866.7194
 04  9 10 16 50 45.0010000  0  6G 1G11G14G23G25G20
  -8850733.78949  -6891360.74447  20813682.3254   20813678.0364
        41.9534
    518632.52048    408406.34246  22130549.7164   22130545.2824
     -2146.8754
  17744247.48546  13815561.75142  24401402.8174   24401400.3494
     -3170.1724
  -8018947.76448  -6233780.56345  22776480.7714   22776475.0604
      2078.0314
  -5788016.33148  -4503225.77747  21102271.2784   21102266.3994
     -1187.2814
 -14088389.65248 -10970026.25847  21579393.4114   21579389.3724
      1861.9384
 04  9 10 16 51  0.0010000  0  6G 1G11G14G23G25G20
  -8851318.07349  -6891816.03747  20813571.2164   20813566.9544
        36.3444
    550899.35449    433549.32346  22136690.3334   22136686.3494
     -2154.9844
  17791810.47545  13852623.77242  24410453.9114   24410451.7714
     -3171.2344
  -8050086.12848  -6258044.20945  22770555.8414   22770549.9624
      2073.9694
  -5770136.17048  -4489293.17247  21105673.4274   21105668.8844
     -1196.3914
 -14116274.78848 -10991754.93247  21574087.2634   21574082.5404
      1856.4224
 04  9 10 16 51 15.0010000  0  6G 1G11G14G23G25G20
  -8851825.89349  -6892211.73847  20813474.2244   20813470.3964
        31.4844
    583281.96548    458782.51246  22142851.9744   22142847.8644
     -2162.5624
  17839384.37345  13889694.30442  24419506.4274   24419505.0954
     -3171.7034
  -8081170.80848  -6282266.02745  22764640.4424   22764634.2944
      2070.7034
  -5752127.10248  -4475260.15647  21109100.5994   21109096.1304
     -1204.7664
 -14144084.28748 -11013424.66547  21568795.4974   21568790.5484
      1851.6414
 04  9 10 16 51 30.0010000  0  6G 1G11G14G23G25G20
  -8852256.34949  -6892547.16247  20813392.8494   20813388.5634
        25.9694
    615781.12249    484106.50746  22149036.9504   22149032.7314
     -2170.6874
  17886969.99745  13926773.99742  24428559.9114   24428560.0954
     -3172.7974
  -8112200.79048  -6306445.20545  22758735.1774   22758729.4274
      2066.7034
  -5733988.19849  -4461125.94347  21112552.3104   21112547.6424
     -1213.6874
 -14171816.97248 -11035034.54047  21563517.7004   21563513.8064
      1846.0944
 04  9 10 16 51 45.0010000  0  6G 1G11G14G23G25G20
  -8852609.08149  -6892822.02147  20813325.2244   20813321.5404
        20.9844
    648396.87348    509521.36246  22155243.1924   22155238.9034
     -2178.2664
  17934567.74244  13963863.10642  24437620.5054   24437617.7514
     -3173.2504
  -8143175.68748  -6330581.47445  22752841.2164   22752834.6774
      2063.1884
  -5715719.33248  -4446890.46647  21116028.8884   21116024.3804
     -1222.0784
 -14199472.19848 -11056584.07047  21558255.3494   21558250.6034
      1841.2194
 04  9 10 16 52  0.0010000  0  6G 1G11G14G23G25G20
  -8852887.18149  -6893038.72547  20813272.8644   20813268.1694
        16.1564
    681126.01048    535024.56646  22161471.3884   22161466.7634
     -2185.6724
  17982174.42945  14000959.12242  24446678.3024   24446676.4814
     -3173.8594
  -8174098.42847  -6354677.11745  22746956.7474   22746950.7864
      2059.8444
  -5697323.64949  -4432556.17547  21119529.2394   21119524.1534
     -1230.5164
 -14227052.72048 -11078075.38147  21553006.8724   21553002.4424
      1836.3134
 04  9 10 16 52 15.0010000  0  6G 1G11G14G23G25G20
  -8853091.06949  -6893197.60047  20813233.4744   20813229.7204
        10.9844
    713967.95048    560615.67046  22167721.0444   22167717.0994
     -2193.2974
  18029789.74845  14038061.99742  24455738.4974   24455737.8374
     -3174.7664
  -8204969.33848  -6378732.35645  22741082.4424   22741076.0094
      2056.2664
  -5678801.71549  -4418123.50247  21123053.5834   21123049.3334
     -1239.1414
 -14254558.69748 -11099508.60247  21547772.5444   21547767.5674
      1831.1094
 04  9 10 16 52 30.0010000  0  6G 1G11G14G23G25G20
  -8853217.35849  -6893296.01447  20813209.4894   20813205.8134
         5.8914
    746925.80348    586297.10846  22173992.8724   22173988.5794
     -2200.9374
  18077417.04244  14075174.14842  24464802.4194   24464800.9974
     -3175.3284
  -8235784.90048  -6402744.47445  22735218.3494   22735212.1344
      2052.5474
  -5660150.17549  -4403589.84047  21126603.3254   21126598.4744
     -1247.6254
 -14281986.33148 -11120880.78147  21542553.5444   21542549.1384
      1826.0474
 04  9 10 16 52 45.0010000  0  6G 1G11G14G23G25G20
  -8853265.71749  -6893333.69847  20813200.8254   20813196.4354
         0.5634
    779999.68548    612068.93146  22180286.8414   22180282.1654
     -2208.8444
  18125056.76044  14112295.89042  24473867.6534   24473865.7864
     -3176.5314
  -8266544.61148  -6426713.05645  22729364.6854   22729359.2284
      2048.6884
  -5641368.74749  -4388954.96047  21130177.2394   21130172.8334
     -1256.5624
 -14309334.88548 -11142191.34047  21537348.5604   21537344.4424
      1820.5164
 04  9 10 16 53  0.0010000  0  6G 1G11G14G23G25G20
  -8853233.72049  -6893308.76447  20813206.5994   20813202.9194
        -4.8754
    813191.71648    637932.83546  22186602.8414   22186598.4274
     -2216.7974
  18172711.10744  14149429.11042  24482935.8024   24482934.8994
     -3177.4374
  -8297246.13348  -6450636.31045  22723522.7244   22723516.9074
      2044.7504
  -5622455.34049  -4374217.24347  21133776.7004   21133771.5564
     -1265.3284
 -14336601.79748 -11163438.27947  21532160.5604   21532155.6884
      1815.0474
 04  9 10 16 53 15.0010000  0  6G 1G11G14G23G25G20
  -8853122.76649  -6893222.30847  20813227.8884   20813223.4704
        -9.9224
    846500.44048    663887.66646  22192941.0674   22192936.7044
     -2224.3754
  18220378.88445  14186572.84842  24492007.1064   24492005.9664
     -3178.3594
  -8327890.53348  -6474515.04945  22717690.7314   22717684.3214
      2041.0784
  -5603411.29249  -4359377.71947  21137400.1064   21137395.5404
     -1273.8594
 -14363788.08149 -11184622.39047  21526987.0674   21526982.6104
      1809.8284
 04  9 10 16 53 30.0010000  0  6G 1G11G14G23G25G20
  -8852932.96249  -6893074.42147  20813263.8804   20813259.8804
       -15.1874
    879925.50348    689933.15446  22199301.6144   22199297.0284
     -2232.2344
  18268059.77645  14223726.72242  24501080.1064   24501078.5674
     -3179.1724
  -8358477.99548  -6498349.41945  22711870.4584   22711864.2284
      2037.2344
  -5584236.80249  -4344436.57147  21141048.8804   21141044.1384
     -1282.6254
 -14390893.55249 -11205743.52847  21521828.7634   21521824.2284
      1804.3914
 04  9 10 16 53 45.0010000  0  6G 1G11G14G23G25G20
  -8852665.32849  -6892865.87547  20813314.7244   20813310.9624
       -20.5624
    913465.70848    716068.36146  22205684.2084   22205679.2784
     -2239.9694
  18315752.94245  14260890.17742  24510155.9974   24510154.6694
     -3180.0624
  -8389009.38248  -6522140.09445  22706060.6304   22706054.9074
      2033.4064
  -5564932.95849  -4329394.62047  21144722.4814   21144717.5324
     -1291.3594
 -14417918.89749 -11226802.22947  21516686.4584   21516681.6534
      1798.9224
 04  9 10 16 54  0.0010000  0  6G 1G11G14G23G25G20
  -8852320.01549  -6892596.80447  20813380.4274   20813376.6344
       -25.5004
    947120.71448    742293.02446  22212088.7554   22212084.1964
     -2247.3914
  18363458.17845  14298063.02542  24519234.6774   24519232.8684
     -3180.7194
  -8419484.70248  -6545887.08245  22700261.3024   22700255.1614
      2029.9694
  -5545500.13849  -4314252.16847  21148420.4424   21148415.9424
     -1299.7344
 -14444863.95548 -11247798.38547  21511558.8104   21511554.1264
      1793.7194
 04  9 10 16 54 15.0010000  0  6G 1G11G14G23G25G20
  -8851896.81349  -6892267.03547  20813460.8254   20813457.0364
       -30.7034
    980890.44248    768607.09146  22218514.5834   22218510.3644
     -2254.9694
  18411175.66445  14335245.40442  24528314.5604   24528313.2594
     -3181.4534
  -8449903.70748  -6569590.18445  22694472.9354   22694466.7864
      2026.2194
  -5525938.29649  -4299009.16747  21152142.8804   21152138.4424
     -1308.3124
 -14471728.22549 -11268731.57547  21506446.6064   21506441.6064
      1788.4064
 04  9 10 16 54 30.0010000  0  5G 1G11G23G25G20
  -8851394.47449  -6891875.61347  20813556.5284   20813552.5914
       -36.1874
   1014775.94148    795011.36346  22224963.0444   22224959.3804
     -2262.9374
  -8480264.95348  -6593248.28445  22688695.4974   22688689.7784
      2022.1884
  -5506246.18049  -4283664.67947  21155890.1464   21155885.3884
     -1317.0944
 -14498510.08049 -11289600.54447  21501350.0834   21501345.3454
      1782.7034
 04  9 10 16 54 45.0010000  0  5G 1G11G23G25G20
  -8850811.28549  -6891421.19147  20813667.5134   20813663.2354
       -41.5004
   1048778.71948    821507.00246  22231433.5054   22231429.8374
     -2270.7344
  -8510566.68848  -6616860.01946  22682928.6534   22682923.2284
      2018.2194
  -5486422.22749  -4268217.44547  21159662.2244   21159658.0794
     -1325.9534
 -14525207.55949 -11310403.77747  21496269.7784   21496265.5874
      1777.0944
 04  9 10 16 55  0.0010000  0  5G 1G11G23G25G20
  -8850150.55949  -6890906.34147  20813793.5054   20813789.2434
       -46.6874
   1082895.26848    848091.29846  22237925.5054   22237921.4114
     -2278.2344
  -8540812.10848  -6640427.87846  22677173.5284   22677167.5794
      2014.4534
  -5466469.90549  -4252670.18147  21163459.3884   21163454.9274
     -1334.4844
 -14551823.60549 -11331143.53447  21491205.0674   21491200.4784
      1771.6564
 04  9 10 16 55 15.0010000  0  5G 1G11G23G25G20
  -8849410.95549  -6890330.03447  20813934.4894   20813929.9934
       -51.8594
   1117126.65248    874765.08246  22244439.6064   22244435.2594
     -2285.9064
  -8570999.75748  -6663950.70545  22671428.8334   22671423.1494
      2010.6254
  -5446388.00249  -4237021.95147  21167280.7634   21167276.1344
     -1343.0624
 -14578356.55549 -11351818.56247  21486156.0284   21486151.5564
      1766.1254
 04  9 10 16 55 30.0010000  0  5G 1G11G23G25G20
  -8848590.04749  -6889690.36347  20814090.1694   20814086.1224
       -57.4224
   1151475.12848    901530.11946  22250976.0914   22250971.5364
     -2293.7664
  -8601127.09748  -6687426.54545  22665695.7004   22665689.5914
      2006.4534
  -5426174.20149  -4221270.95147  21171127.3174   21171122.8024
     -1352.0314
 -14604803.71049 -11372426.73047  21481123.3414   21481118.9814
      1760.2344
 04  9 10 16 55 45.0010000  0  5G 1G11G23G25G20
  -8847687.31449  -6888986.94147  20814261.8494   20814258.2474
       -62.7194
   1185941.21348    928386.80246  22257534.9194   22257530.1304
     -2301.4844
  -8631193.50548  -6710854.90345  22659974.3174   22659968.6734
      2002.6094
  -5405828.06949  -4205416.82947  21174999.2394   21174994.7284
     -1360.7034
 -14631164.21249 -11392967.37847  21476106.9974   21476102.5054
      1754.6414
 04  9 10 16 56  0.0010000  0  5G 1G11G23G25G20
  -8846706.72549  -6888222.84447  20814448.8254   20814444.8724
       -68.0164
   1220520.53048    955331.70346  22264114.9274   22264110.2824
     -2309.1564
  -8661202.80948  -6734238.76945  22654263.2474   22654257.6924
      1998.7034
  -5385353.68849  -4189462.76447  21178895.3644   21178890.8604
     -1369.2814
 -14657441.57749 -11413443.23147  21471106.3964   21471101.6654
      1748.9844
 04  9 10 16 56 15.0010000  0  5G 1G11G23G25G20
  -8845645.36849  -6887395.82647  20814650.8494   20814646.2394
       -73.0474
   1255215.76348    982366.93746  22270717.3174   22270713.2044
     -2316.5164
  -8691151.95648  -6757575.75245  22648564.5604   22648558.7824
      1994.9844
  -5364748.24249  -4173406.57347  21182816.1854   21182812.1734
     -1377.6564
 -14683632.70349 -11433851.89547  21466122.6464   21466118.0244
      1743.5314
 04  9 10 16 56 30.0010000  0  5G 1G11G23G25G20
  -8844506.77449  -6886508.61647  20814866.8884   20814862.9584
       -78.5784
   1290023.14548   1009489.54646  22277340.8174   22277336.3924
     -2324.3444
  -8721044.54848  -6780868.68045  22642876.0604   22642869.4974
      1990.7974
  -5344015.43449  -4157251.14747  21186762.0134   21186757.6654
     -1386.6094
 -14709740.82249 -11454195.88047  21461154.5914   21461149.7944
      1737.6254
 04  9 10 16 56 45.0010000  0  5G 1G11G23G25G20
  -8843288.23849  -6885559.11147  20815099.4194   20815095.3374
       -83.8594
   1324945.17548   1036701.50446  22283986.0524   22283982.2434
     -2331.9224
  -8750877.69548  -6804115.26945  22637198.9114   22637193.1344
      1986.8914
  -5323152.78149  -4140994.53747  21190731.7944   21190726.8534
     -1395.2034
 -14735762.86849 -11474472.78647  21456202.8414   21456197.9664
      1731.9534
 04  9 10 16 57  0.0010000  0  5G 1G11G23G25G20
  -8841991.30949  -6884548.51947  20815345.9034   20815341.7944
       -88.9374
   1359980.16148   1064001.46746  22290653.1924   22290649.1694
     -2339.3284
  -8780652.80548  -6827316.65046  22631532.8724   22631527.2554
      1983.1564
  -5302161.81549  -4124637.95547  21194726.3174   21194721.8374
     -1403.5784
 -14761700.02549 -11494683.56447  21451266.9504   21451261.8174
      1726.4224
 04  9 10 16 57 15.0010000  0  5G 1G11G23G25G20
  -8840615.51649  -6883476.47947  20815607.6854   20815603.9974
       -94.4374
   1395128.31548   1091389.61346  22297342.0284   22297337.8494
     -2347.0624
  -8810369.32848  -6850472.36446  22625878.1694   22625871.9384
      1979.0784
  -5281042.18349  -4108181.11047  21198745.0754   21198740.3964
     -1412.3754
 -14787551.71449 -11514827.73047  21446347.4894   21446342.1774
      1720.4694
 04  9 10 16 57 30.0010000  0  5G 1G11G23G25G20
  -8839158.68849  -6882341.28847  20815884.5834   20815881.0324
       -99.8914
   1430391.77948   1118867.63046  22304052.2474   22304047.7634
     -2354.7504
  -8840024.95548  -6873580.62146  22620234.3104   22620228.8104
      1974.9694
  -5259791.90649  -4091622.45947  21202789.0834   21202784.6184
     -1421.0314
 -14813315.30349 -11534903.24347  21441444.7394   21441439.7434
      1714.6254
 04  9 10 16 57 45.0010000  0  5G 1G11G23G25G20
  -8837620.75549  -6881142.90647  20816177.4274   20816173.4314
      -105.0474
   1465770.15848   1146435.18346  22310784.3564   22310780.0214
     -2362.2194
  -8869619.54949  -6896641.32845  22614603.3884   22614597.4814
      1971.1564
  -5238411.02649  -4074962.03547  21206857.5754   21206853.0604
     -1429.5164
 -14838990.35849 -11554909.76947  21436559.1854   21436554.6854
      1708.9224
 04  9 10 16 58  0.0010000  0  5G 1G11G23G25G20
  -8836003.29849  -6879882.55448  20816485.4504   20816481.5674
      -110.4224
   1501261.67949   1174090.89746  22317538.5754   22317533.6854
     -2369.8914
  -8899154.74048  -6919655.74846  22608982.9194   22608976.8564
      1967.0474
  -5216901.25649  -4058201.18247  21210950.7784   21210946.4624
     -1438.2344
 -14864578.25549 -11574848.39347  21431689.9814   21431685.4854
      1702.9694
 04  9 10 16 58 15.0010000  0  5G 1G11G23G25G20
  -8834304.91249  -6878559.14047  20816808.4114   20816804.5524
      -115.8284
   1536867.46148   1201835.64946  22324313.7864   22324309.5174
     -2377.5164
  -8928628.85149  -6942622.55646  22603374.8334   22603367.6734
      1962.9844
  -5195261.44649  -4041338.99247  21215068.7634   21215064.1814
     -1446.8754
 -14890077.21249 -11594717.70447  21426837.5834   21426832.7004
      1697.0164
 04  9 10 16 58 30.0010000  0  5G 1G11G23G25G20
  -8832529.31849  -6877175.57047  20817146.2554   20817142.2044
      -120.9224
   1572583.70248   1229666.46146  22331110.5834   22331106.5244
     -2384.8914
  -8958045.40648  -6965544.53445  22597776.4664   22597770.1384
      1959.1094
  -5173495.27949  -4024378.36847  21219210.4424   21219206.0604
     -1455.3124
 -14915490.53749 -11614520.28447  21422001.5054   21421996.8644
      1691.2974
 04  9 10 16 58 45.0010000  0  5G 1G11G23G25G20
  -8830674.56349  -6875730.30947  20817499.2084   20817495.3884
      -126.3124
   1608412.10549   1257584.67746  22337928.7314   22337924.8724
     -2392.3124
  -8987402.36948  -6988420.07745  22592189.7554   22592183.8454
      1955.1254
  -5151601.00449  -4007317.89247  21223377.2634   21223372.5634
     -1463.8594
 -14940816.04249 -11634254.43947  21417182.4034   21417177.3764
      1685.4384
 04  9 10 16 59  0.0010000  0  5G 1G11G23G25G20
  -8828742.30749  -6874224.65047  20817867.1304   20817862.7044
      -131.4844
   1644350.70648   1285588.76146  22344767.3174   22344763.5834
     -2399.6564
  -9016701.40848  -7011250.48045  22586614.1924   22586608.0014
      1951.3134
  -5129580.28849  -3990158.89447  21227567.2164   21227562.4854
     -1472.3284
 -14966055.04449 -11653921.20047  21412379.3104   21412374.3374
      1679.6254
 04  9 10 16 59 15.0010000  0  5G 1G11G23G25G20
  -8826730.61949  -6872657.11047  20818249.9114   20818245.8844
      -136.7814
   1680401.34849   1313680.14446  22351628.0444   22351623.5674
     -2407.1254
  -9045940.40748  -7034034.09545  22581050.1774   22581044.0364
      1947.2034
  -5107431.48149  -3972900.10547  21231782.3024   21231777.5364
     -1480.8754
 -14991205.26649 -11673518.77047  21407593.4744   21407588.7354
      1673.7194
 04  9 10 16 59 30.0010000  0  5G 1G11G23G25G20
  -8824638.90149  -6871027.20347  20818647.7864   20818644.0174
      -141.9534
   1716564.34348   1341859.08446  22358509.3254   22358504.4034
     -2414.5314
  -9075118.79048  -7056770.48346  22575497.8724   22575491.7394
      1943.2504
  -5085154.05749  -3955541.08347  21236021.5524   21236017.1184
     -1489.2974
 -15016265.84149 -11693046.48347  21402824.5444   21402819.7514
      1667.8134
 04  9 10 16 59 45.0010000  0  5G 1G11G23G25G20
  -8822468.56649  -6869336.04247  20819061.1694   20819057.2474
      -147.3124
   1752838.04549   1370124.27745  22365412.4744   22365407.0284
     -2421.9224
  -9104237.78448  -7079460.58846  22569956.6774   22569950.2164
      1939.2504
  -5062749.47149  -3938082.96947  21240284.9354   21240280.4974
     -1497.8594
 -15041237.86249 -11712505.19947  21398072.0834   21398068.0324
      1661.8284
 04  9 10 17  0  0.0010000  0  5G 1G11G23G25G20
  -8820217.23449  -6867581.76347  20819489.6534   20819485.5634
      -152.7664
   1789224.62749   1398477.43946  22372335.7394   22372331.4504
     -2429.5474
  -9133294.80549  -7102102.41145  22564427.6064   22564420.9194
      1935.0634
  -5040215.58049  -3920524.10447  21244573.0994   21244568.3454
     -1506.5164
 -15066118.60349 -11731892.78447  21393338.0134   21393333.2984
      1655.7034
 04  9 10 17  0 15.0010000  0  5G 1G11G23G25G20
  -8817887.24849  -6865766.18747  20819932.5214   20819928.7944
      -158.0624
   1825721.43548   1426916.50045  22379281.1614   22379277.0054
     -2436.8284
  -9162292.24148  -7124697.78745  22558909.4974   22558903.5134
      1931.1414
  -5017554.81149  -3902866.37648  21248885.3724   21248880.5564
     -1515.0004
 -15090910.15549 -11751210.87647  21388620.2084   21388615.1304
      1649.7344
 04  9 10 17  0 30.0010000  0  5G 1G11G23G25G20
  -8815478.98949  -6863889.62947  20820391.3564   20820387.1264
      -163.1724
   1862327.96149   1455441.03746  22386246.9194   22386242.7984
     -2444.0474
  -9191230.30149  -7147246.91546  22553402.6694   22553396.3134
      1927.2194
  -4994767.79149  -3885110.26747  21253221.2314   21253216.9154
     -1523.3754
 -15115612.55649 -11770459.49747  21383919.6064   21383914.8104
      1643.8284
 04  9 10 17  0 45.0010000  0  5G 1G11G23G25G20
  -8812993.71349  -6861953.05447  20820863.9814   20820859.6224
      -168.5474
   1899042.69949   1484049.91346  22393233.6144   22393229.8804
     -2451.5314
  -9220110.21749  -7169750.72446  22547906.9894   22547900.6884
      1923.0784
  -4971855.80449  -3867256.77147  21257581.1854   21257576.8844
     -1531.8594
 -15140226.77149 -11789639.39847  21379235.4504   21379230.5834
      1637.8444
 04  9 10 17  1  0.0010000  0  5G 1G11G23G25G20
  -8810427.67049  -6859953.54647  20821352.5364   20821348.5404
      -173.8284
   1935869.15248   1512745.83146  22400241.5134   22400237.4314
     -2458.8284
  -9248928.07549  -7192206.18845  22542422.4664   22542417.1384
      1919.0314
  -4948815.25549  -3849303.10647  21261965.9744   21261961.2354
     -1540.3594
 -15164748.63149 -11808747.34047  21374568.9664   21374564.3764
      1631.6884
 04  9 10 17  1 15.0010000  0  5G 1G11G23G25G20
  -8807784.34249  -6857893.81647  20821855.3884   20821851.7084
      -178.6414
   1972803.56948   1541525.87345  22407269.5134   22407265.8294
     -2465.7194
  -9277687.33648  -7214615.98845  22536949.9744   22536944.6144
      1915.4844
  -4925649.83949  -3831252.14047  21266374.4814   21266369.4384
     -1548.3754
 -15189181.38549 -11827785.84147  21369919.7004   21369915.1104
      1626.0784
 04  9 10 17  1 30.0010000  0  5G 1G11G23G25G20
  -8805065.24249  -6855775.04047  20822372.8174   20822369.1694
      -183.9534
   2009844.25148   1570388.71045  22414318.1854   22414314.3964
     -2473.1564
  -9306389.33449  -7236981.16546  22531488.1534   22531482.4464
      1911.3284
  -4902361.09349  -3813105.08247  21270806.1064   21270801.0564
     -1556.8754
 -15213526.16649 -11846755.80247  21365287.0214   21365282.5634
      1619.9064
 04  9 10 17  1 45.0010000  0  5G 1G11G23G25G20
  -8802267.75849  -6853595.18347  20822904.9504   20822901.0054
      -189.0164
   2046993.51949   1599336.17745  22421387.8964   22421383.5634
     -2480.1094
  -9335031.37849  -7259299.62246  22526038.2244   22526031.5834
      1907.5474
  -4878946.46549  -3794859.91947  21275261.5054   21275257.0364
     -1565.0944
 -15237780.08249 -11865654.94647  21360671.4274   21360667.1534
      1613.9224
 04  9 10 17  2  0.0010000  0  5G 1G11G23G25G20
  -8799390.87149  -6851353.45947  20823452.7474   20823448.5524
      -194.5004
   2084252.20049   1628368.89045  22428477.9194   22428473.6734
     -2487.6094
  -9363612.27249  -7281570.44646  22520599.6924   22520593.1064
      1903.3134
  -4855405.29849  -3776516.17347  21279741.0834   21279737.0244
     -1573.6564
 -15261941.81049 -11884482.26647  21356073.9744   21356069.2514
      1607.6414
 04  9 10 17  2 15.0010000  0  5G 1G11G23G25G20
  -8796435.08049  -6849050.25347  20824015.0054   20824010.9934
      -199.7504
   2121619.77249   1657486.46046  22435589.0914   22435584.7434
     -2494.9534
  -9392132.36949  -7303793.87846  22515172.2314   22515165.8564
      1899.1724
  -4831738.12749  -3758074.23547  21284244.8804   21284240.8994
     -1582.1414
 -15286011.41249 -11903237.79847  21351493.8174   21351488.8924
      1601.4534
 04  9 10 17  2 30.0010000  0  5G 1G11G23G25G20
  -8793403.56749  -6846688.04347  20824592.0054   20824587.7164
      -204.6414
   2159092.59849   1686686.06045  22442719.8104   22442715.3064
     -2501.5944
  -9420594.81149  -7325972.38846  22509756.0674   22509750.1264
      1895.5944
  -4807948.38849  -3739536.78048  21288772.1774   21288767.9624
     -1590.0474
 -15309991.90849 -11921923.89147  21346930.4194   21346925.7044
      1595.7974
 04  9 10 17  2 45.0010000  0  5G 1G11G23G25G20
  -8790294.85349  -6844265.66447  20825183.3494   20825178.7394
      -209.8444
   2196671.93249   1715968.63345  22449870.8964   22449866.5754
     -2508.8594
  -9448998.25049  -7348104.91446  22504350.3804   22504344.6854
      1891.5944
  -4784034.69649  -3720902.74748  21293322.7634   21293318.1574
     -1598.4534
 -15333881.45549 -11940539.12047  21342384.3644   21342379.4664
      1589.5784
 04  9 10 17  3  0.0010000  0  5G 1G11G23G25G20
  -8787108.08849  -6841782.48247  20825790.2004   20825785.9354
      -215.1564
   2234358.36749   1745334.66645  22457042.4814   22457038.2674
     -2516.0624
  -9477341.52349  -7370190.57446  22498957.0834   22498951.0754
      1887.4064
  -4759996.20449  -3702171.46948  21297897.0284   21297892.5094
     -1606.7814
 -15357678.91549 -11959082.58847  21337855.8334   21337851.4234
      1583.3284
 04  9 10 17  3 15.0010000  0  5G 1G11G23G25G20
  -8783843.05649  -6839238.30947  20826411.3254   20826407.3334
      -220.2344
   2272151.82749   1774784.08645  22464234.2004   22464230.0364
     -2523.1094
  -9505624.37349  -7392229.14846  22493575.5054   22493569.3764
      1883.5784
  -4735832.93449  -3683342.96347  21302494.9034   21302490.5444
     -1615.0164
 -15381383.69049 -11977553.83247  21333344.8564   21333340.4074
      1577.2344
 04  9 10 17  3 30.0010000  0  5G 1G11G23G25G20
  -8780501.39349  -6836634.41548  20827047.1464   20827043.1654
      -225.3284
   2310050.51949   1804315.52945  22471446.3334   22471442.0634
     -2530.0624
  -9533848.32749  -7414221.83146  22488204.2944   22488198.1184
      1879.6094
  -4711546.62349  -3664418.57647  21307116.7634   21307111.8134
     -1623.2034
 -15404997.12249 -11995953.89747  21328851.3494   21328846.5524
      1571.2194
 04  9 10 17  3 45.0010000  0  5G 1G11G23G25G20
  -8777083.11949  -6833970.82447  20827697.4744   20827693.9744
      -230.5784
   2348054.48049   1833928.98945  22478678.1924   22478673.6424
     -2537.1724
  -9562013.28849  -7436168.53346  22482844.8804   22482838.5994
      1875.6564
  -4687137.65649  -3645398.61847  21311761.6614   21311756.7434
     -1631.4694
 -15428518.90649 -12014282.56847  21324375.1304   21324370.6064
      1564.9534
 04  9 10 17  4  0.0010000  0  5G 1G11G23G25G20
  -8773589.05649  -6831248.18347  20828362.5604   20828358.0094
      -235.2664
   2386162.20249   1863623.29746  22485930.0834   22485925.4194
     -2543.8594
  -9590119.95749  -7458069.82746  22477495.8804   22477489.8724
      1872.0314
  -4662606.83349  -3626283.70648  21316429.4974   21316424.6614
     -1639.3284
 -15451949.47149 -12032540.14347  21319916.5364   21319911.8024
      1559.1414
 04  9 10 17  4 15.0010000  0  5G 1G11G23G25G20
  -8770021.56349  -6828468.31847  20829041.3564   20829037.6424
      -240.1724
   2424371.14049   1893396.48145  22493200.7554   22493196.4384
     -2550.5004
  -9618170.54748  -7479927.40446  22472157.7164   22472152.1494
      1868.2504
  -4637956.64649  -3607075.78547  21321120.3254   21321116.2554
     -1647.1874
 -15475290.96149 -12050728.31147  21315474.6144   21315470.1224
      1553.2194
 04  9 10 17  4 30.0010000  0  5G 1G11G23G25G20
  -8766378.90849  -6825629.89247  20829734.5834   20829730.6064
      -245.4694
   2462682.94849   1923249.81745  22500491.2004   22500487.2944
     -2557.7034
  -9646163.23349  -7501739.86546  22466831.3104   22466825.4154
      1864.1254
  -4613185.49649  -3587773.60347  21325834.2784   21325830.0714
     -1655.5164
 -15498541.26949 -12068845.43447  21311050.4424   21311045.6304
      1546.8284
 04  9 10 17  4 45.0010000  0  5G 1G11G23G25G20
  -8762659.82749  -6822731.91447  20830442.5754   20830438.5874
      -250.5474
   2501098.62349   1953184.09445  22507801.1144   22507797.5874
     -2564.5164
  -9674096.61749  -7523506.13246  22461515.9664   22461509.4704
      1860.2504
  -4588292.27149  -3568376.29848  21330571.2784   21330566.8254
     -1663.6254
 -15521698.85849 -12086890.30047  21306643.6464   21306639.4274
      1540.6724
 04  9 10 17  5  0.0010000  0  5G 1G11G23G25G20
  -8758864.94849  -6819774.86347  20831164.4274   20831160.6614
      -255.5624
   2539617.24249   1983198.58245  22515131.0604   22515127.2474
     -2571.4534
  -9701971.27749  -7545226.63346  22456211.8564   22456205.2164
      1856.2974
  -4563277.76749  -3548884.48748  21335331.5914   21335327.0794
     -1671.7344
 -15544763.99149 -12104863.12247  21302254.5754   21302250.1144
      1534.5004
 04  9 10 17  5 15.0010000  0  5G 1G11G23G25G20
  -8754994.43949  -6816758.88747  20831900.8174   20831896.8884
      -260.5314
   2578238.42249   2013292.99245  22522480.8724   22522476.9974
     -2578.1414
  -9729787.23249  -7566901.38846  22450918.2554   22450912.3494
      1852.4384
  -4538142.25749  -3529298.39247  21340114.7394   21340110.0874
     -1679.6724
 -15567736.49549 -12122763.76847  21297883.0994   21297878.3294
      1528.4694
 04  9 10 17  5 30.0010000  0  5G 1G11G23G25G20
  -8751046.77349  -6813682.78647  20832652.2084   20832648.1224
      -265.6564
   2616963.44149   2043468.30146  22529850.0674   22529846.1814
     -2584.9534
  -9757543.01749  -7588529.25546  22445636.2864   22445630.4274
      1848.5164
  -4512884.49249  -3509617.02947  21344921.1774   21344916.3134
     -1687.8594
 -15590614.59349 -12140590.85747  21293529.4354   21293524.8804
      1522.1564
 04  9 10 17  5 45.0010000  0  5G 1G11G23G25G20
  -8747023.95049  -6810548.12747  20833417.8104   20833413.7744
      -270.6564
   2655790.11549   2073722.83745  22537238.4114   22537234.2594
     -2591.8754
  -9785240.34849  -7610111.57246  22440365.5674   22440359.9784
      1844.6254
  -4487506.42249  -3489841.92747  21349750.2554   21349745.9154
     -1695.8444
 -15613399.91049 -12158345.64347  21289194.2004   21289189.0634
      1515.9694
 04  9 10 17  6  0.0010000  0  5G 1G11G23G25G20
  -8742927.57949  -6807356.15747  20834197.0134   20834193.2514
      -275.1874
   2694716.67349   2104055.21245  22544645.6694   22544641.0564
     -2598.1564
  -9812880.87049  -7631649.63446  22435106.1534   22435100.0134
      1841.1414
  -4462009.94349  -3469974.55547  21354602.3644   21354598.1184
     -1703.3444
 -15636093.71749 -12176029.12047  21284875.4664   21284870.7004
      1510.2664
 04  9 10 17  6 15.0010000  0  5G 1G11G23G25G20
  -8738757.48449  -6804106.73947  20834990.8494   20834987.0284
      -280.7344
   2733742.81249   2134465.16245  22552071.6614   22552067.4934
     -2605.3124
  -9840464.30649  -7653143.20345  22429856.9424   22429850.5634
      1836.7504
  -4436395.05749  -3450014.91747  21359476.2784   21359471.8174
     -1711.8914
 -15658695.60749 -12193640.98847  21280574.5754   21280569.6184
      1503.4844
 04  9 10 17  6 30.0010000  0  5G 1G11G23G25G20
  -8734508.26249  -6800795.66147  20835799.0754   20835795.3174
      -285.8754
   2772873.82849   2164956.83745  22559518.4584   22559514.5444
     -2612.1564
  -9867985.06449  -7674587.93946  22424620.3564   22424613.7594
      1832.7344
  -4410656.40449  -3429958.84247  21364374.1384   21364369.9704
     -1719.9224
 -15681199.73149 -12211176.66447  21276292.1614   21276287.5444
      1497.1254
 04  9 10 17  6 45.0010000  0  5G 1G11G23G25G20
  -8730186.27749  -6797427.88647  20836621.7084   20836618.0284
      -290.5314
   2812103.01249   2195525.02045  22566983.4894   22566979.7784
     -2618.5314
  -9895449.53049  -7695988.79546  22419394.1144   22419387.4854
      1829.1564
  -4384800.63849  -3409811.49847  21369294.6464   21369289.7084
     -1727.5314
 -15703612.29349 -12228640.99247  21272026.7474   21272022.5134
      1491.1884
 04  9 10 17  7  0.0010000  0  5G 1G11G23G25G20
  -8725788.85349  -6794001.32047  20837458.7714   20837454.7474
      -295.6874
   2851432.74049   2226171.53445  22574467.7554   22574464.1304
     -2625.3594
  -9922854.82249  -7717343.55546  22414178.8334   22414172.5914
      1824.9534
  -4358825.18849  -3389570.90947  21374237.5674   21374232.9974
     -1735.8124
 -15725930.28649 -12246031.63247  21267779.6694   21267775.1964
      1484.6724
 04  9 10 17  7 15.0010000  0  5G 1G11G23G25G20
  -8721316.41549  -6790516.30547  20838309.7864   20838305.5674
      -300.6254
   2890862.36749   2256895.90345  22581970.7714   22581967.2984
     -2631.9694
  -9950201.40549  -7738652.56446  22408974.7004   22408968.5404
      1821.1724
  -4332730.71949  -3369237.57047  21379202.8254   21379198.4744
     -1743.5474
 -15748153.87749 -12263348.71447  21263550.9274   21263546.0604
      1478.4384
 04  9 10 17  7 30.0010000  0  5G 1G11G23G25G20
  -8716768.18449  -6786972.23247  20839175.3024   20839171.2784
      -305.8444
   2930392.65249   2287698.69845  22589493.4354   22589489.4194
     -2638.8914
  -9977488.23249  -7759915.00646  22403782.2394   22403775.8924
      1817.0634
  -4306516.54449  -3348810.95647  21384191.5134   21384187.3214
     -1751.6874
 -15770281.77849 -12280591.23047  21259340.1924   21259335.3724
      1471.8914
 04  9 10 17  7 45.0010000  0  5G 1G11G23G25G20
  -8712145.77449  -6783370.36747  20840054.8414   20840050.6574
      -310.5624
   2970021.52749   2318578.32345  22597034.9584   22597030.0634
     -2645.0474
 -10004716.87849  -7781132.12546  22398600.8024   22398594.4974
      1813.3914
  -4280184.51449  -3328292.50447  21389202.3884   21389197.9424
     -1759.2974
 -15792315.35749 -12297760.25147  21255147.3104   21255142.4384
      1465.8284
 04  9 10 17  8  0.0010000  0  5G 1G11G23G25G20
  -8707447.65049  -6779709.49647  20840949.0054   20840945.2824
      -315.6254
   3009750.33549   2349535.82145  22604595.1614   22604590.8174
     -2651.8284
 -10031885.70449  -7802302.61846  22393431.0214   22393424.3924
      1809.3754
  -4253733.09649  -3307681.02948  21394236.0444   21394231.9194
     -1767.3444
 -15814252.80349 -12314854.35947  21250972.5284   21250968.0754
      1459.4064
 04  9 10 17  8 15.0010000  0  5G 1G11G23G25G20
  -8702672.14149  -6775988.32247  20841857.9354   20841853.3684
      -321.0944
   3049580.42949   2380572.23446  22612175.0754   22612170.6304
     -2658.7974
 -10058992.95949  -7823425.13946  22388272.2554   22388265.4974
      1804.9224
  -4227160.83449  -3286975.37847  21399292.8104   21399288.1534
     -1775.6254
 -15836092.08649 -12331871.97447  21246816.8334   21246812.1964
      1452.5634
 04  9 10 17  8 30.0010000  0  5G 1G11G23G25G20
  -8697821.16349  -6772208.34247  20842780.7394   20842777.1104
      -325.9374
   3089509.75849   2411685.98345  22619772.3884   22619768.8064
     -2665.2814
 -10086040.47749  -7844501.09846  22383125.4424   22383118.7904
      1801.2814
  -4200469.87349  -3266177.23747  21404371.8724   21404367.7284
     -1783.3284
 -15857834.77449 -12348814.32147  21242679.1924   21242674.7394
      1446.2974
 04  9 10 17  8 45.0010000  0  5G 1G11G23G25G20
  -8692894.87249  -6768369.68147  20843717.8494   20843713.8724
      -330.8914
   3129537.98949   2442876.78745  22627389.9584   22627385.2824
     -2671.8284
 -10113028.26849  -7865530.52446  22377990.0054   22377983.2164
      1797.2504
  -4173660.33849  -3245286.71148  21409473.3414   21409469.0284
     -1791.1874
 -15879480.75149 -12365681.31847  21238560.2474   21238555.0174
      1439.8754
 04  9 10 17  9  0.0010000  0  6G 1G11G16G23G25G20
  -8687897.14449  -6764475.35347  20844669.2004   20844664.8604
      -335.5624
   3169660.82149   2474141.31345  22635024.2554   22635020.4234
     -2678.0164
    -84300.90956    -58113.72052  24476135.8964   24476132.9974
      2669.0004
 -10139960.14149  -7886516.38946  22372864.9814   22372858.4934
      1793.5944
  -4146736.45649  -3224307.06947  21414596.8804   21414592.4814
     -1798.7194
 -15901033.56849 -12382475.71547  21234459.1464   21234454.3604
      1433.7344
 04  9 10 17  9 15.0010000  0  6G 1G11G16G23G25G20
  -8682826.97049  -6760524.57047  20845634.0054   20845629.7474
      -340.4694
   3209878.97448   2505480.12045  22642678.0914   22642673.4624
     -2684.4224
   -124322.84647    -89299.58342  24468518.2784   24468517.2284
      2667.0784
 -10166834.96249  -7907457.79346  22367750.5914   22367744.5284
      1789.6564
  -4119697.35349  -3203237.66147  21419742.0994   21419737.7204
     -1806.4844
 -15922491.96749 -12399196.54047  21230375.0834   21230370.3884
      1427.3914
 04  9 10 17  9 30.0010000  0  6G 1G11G16G23G25G20
  -8677681.88249  -6756515.41447  20846613.0214   20846608.9894
      -345.5474
   3250194.80848   2536895.03445  22650349.8414   22650345.4814
     -2691.0314
   -164314.28347   -120461.68542  24460909.1694   24460907.2714
      2665.0634
 -10193650.12249  -7928352.69946  22362648.0214   22362641.9704
      1785.6564
  -4092540.70449  -3182076.64148  21424909.7634   21424905.3844
     -1814.4224
 -15943853.06349 -12415841.55047  21226310.3024   21226305.2514
      1420.7974
 04  9 10 17  9 45.0010000  0  6G 1G11G16G23G25G20
  -8672462.90449  -6752448.67847  20847606.0754   20847602.5794
      -350.4534
   3290607.05949   2568385.08145  22658040.2314   22658035.8684
     -2697.3284
   -204275.67446   -151600.39642  24453303.3334   24453302.2284
      2662.9844
 -10220406.51349  -7949201.81146  22357555.8174   22357550.2824
      1781.7664
  -4065267.63349  -3160824.91447  21430099.7314   21430095.4314
     -1822.1094
 -15965117.58349 -12432411.29047  21222263.8804   21222259.1304
      1414.3754
 04  9 10 17 10  0.0010000  0  6G 1G11G16G23G25G20
  -8667168.81949  -6748323.42747  20848613.8254   20848609.7284
      -355.4844
   3331116.51349   2599950.88045  22665748.8724   22665744.6384
     -2703.8594
   -244205.43646   -182714.42542  24445705.8174   24445704.0284
      2660.8594
 -10247102.96949  -7970004.22146  22352476.2394   22352470.2084
      1777.8134
  -4037877.23049  -3139481.75347  21435311.9274   21435307.6344
     -1830.0004
 -15986284.03249 -12448904.63747  21218236.0054   21218231.2944
      1407.8284
 04  9 10 17 10 15.0010000  0  6G 1G11G16G23G25G20
  -8661799.52549  -6744139.56147  20849635.2634   20849631.3964
      -360.3914
   3371723.21348   2631592.44445  22673476.0674   22673472.0524
     -2710.2814
   -284102.96846   -213803.37642  24438114.2394   24438111.7674
      2658.9224
 -10273739.22849  -7990759.72246  22347407.5834   22347401.2394
      1773.7504
  -4010369.45249  -3118047.13847  21440546.3494   21440542.1104
     -1837.7504
 -16007351.98949 -12465321.21847  21214226.9744   21214221.9974
      1401.3594
 04  9 10 17 10 30.0010000  0  6G 1G11G16G23G25G20
  -8656356.34449  -6739898.12747  20850671.0834   20850667.3564
      -365.4694
   3412425.50649   2663308.50145  22681221.2864   22681217.5564
     -2716.8124
   -323969.23546   -244867.98042  24430527.3964   24430525.3844
      2656.5944
 -10300316.52649  -8011469.28946  22342350.0994   22342343.7164
      1769.6724
  -3982745.83549  -3096522.25647  21445803.0054   21445799.0214
     -1845.5474
 -16028322.38749 -12481661.78147  21210236.4034   21210231.7904
      1394.6414
 04  9 10 17 10 45.0010000  0  6G 1G11G16G23G25G20
  -8650839.19149  -6735599.05747  20851721.1924   20851717.0674
      -370.3594
   3453223.17449   2695098.87445  22688984.9114   22688980.7044
     -2723.1094
   -363803.48446   -275907.63042  24422946.5214   24422945.4544
      2654.3754
 -10326834.62449  -8032132.72746  22337304.3104   22337297.8564
      1765.7814
  -3955006.27849  -3074907.03347  21451081.7554   21451077.7674
     -1853.2814
 -16049194.82949 -12497926.02447  21206264.6614   21206260.0404
      1388.1094
 04  9 10 17 11  0.0010000  0  6G 1G11G16G23G25G20
  -8645247.41949  -6731241.83647  20852785.0134   20852780.7744
      -375.3754
   3494116.68548   2726963.91645  22696766.3494   22696762.7634
     -2729.5474
   -403604.80346   -306921.59642  24415372.5994   24415370.6694
      2652.2194
 -10353292.77849  -8052749.45246  22332269.2554   22332262.4384
      1761.8284
  -3927150.47049  -3053201.22047  21456382.6614   21456378.4814
     -1861.0004
 -16069968.41749 -12514113.23247  21202311.2314   21202306.6964
      1381.5314
 04  9 10 17 11 15.0010000  0  6G 1G11G16G23G25G20
  -8639582.29149  -6726827.45847  20853863.4424   20853859.1064
      -379.9534
   3535104.53549   2758902.47245  22704566.6064   22704562.7124
     -2735.5004
   -443374.03546   -337910.52742  24407804.6224   24407802.9274
      2650.4064
 -10379692.13749  -8073320.37346  22327245.1464   22327238.9074
      1758.1564
  -3899179.83349  -3031405.93747  21461705.5444   21461701.2004
     -1868.3914
 -16090644.15249 -12530224.19247  21198377.1774   21198372.3414
      1375.2814
 04  9 10 17 11 30.0010000  0  6G 1G11G16G23G25G20
  -8633843.33349  -6722355.55547  20854955.2714   20854951.2044
      -385.0624
   3576186.73949   2790914.55245  22712384.3174   22712380.6384
     -2742.0624
   -483110.20346   -368873.71142  24400244.4744   24400241.0524
      2647.9384
 -10406032.24249  -8093845.11546  22322233.2634   22322226.7124
      1754.0164
  -3871093.91949  -3009520.82447  21467049.8494   21467045.6814
     -1876.2664
 -16111221.21149 -12546258.26047  21194461.3494   21194456.5014
      1368.4694
 04  9 10 17 11 45.0010000  0  6G 1G11G16G23G25G20
  -8628033.17649  -6717828.15947  20856060.9114   20856056.8174
      -389.6254
   3617360.50548   2822997.98845  22720219.0054   22720215.5134
     -2747.8754
   -522815.48446   -399812.85142  24392687.7004   24392685.9744
      2646.0634
 -10432315.51649  -8114325.57446  22317231.3024   22317225.0874
      1750.4224
  -3842895.65149  -2987548.15348  21472415.6854   21472411.0214
     -1883.5624
 -16131701.85049 -12562217.19647  21190563.9274   21190559.1144
      1362.2664
 04  9 10 17 12  0.0010000  0  6G 1G11G16G23G25G20
  -8622151.99749  -6713245.42747  20857180.1384   20857175.5914
      -394.5004
   3658625.45349   2855152.47345  22728071.7244   22728068.4074
     -2754.0784
   -562489.74047   -430727.83642  24385138.8024   24385136.2244
      2643.8284
 -10458542.08649  -8134761.84046  22312240.9274   22312234.1424
      1746.4844
  -3814585.42949  -2965488.25147  21477803.0674   21477798.3924
     -1891.1254
 -16152085.99149 -12578100.94447  21186685.0364   21186680.2204
      1355.6724
 04  9 10 17 12 15.0010000  0  6G 1G11G16G23G25G20
  -8616200.27049  -6708607.73247  20858312.5214   20858308.7864
      -399.2504
   3699980.88249   2887377.46245  22735941.6774   22735937.5834
     -2760.1414
   -602132.82446   -461618.53443  24377595.1694   24377592.4664
      2641.7034
 -10484712.33149  -8155154.21646  22307260.7634   22307253.6034
      1742.7814
  -3786163.88949  -2943341.61947  21483211.5054   21483206.4784
     -1898.5474
 -16172373.73849 -12593909.56447  21182824.0444   21182819.3534
      1349.2034
 04  9 10 17 12 30.0010000  0  6G 1G11G16G23G25G20
  -8610177.68949  -6703914.81747  20859458.9194   20859454.7204
      -403.9534
   3741426.79449   2919672.95545  22743828.9354   22743824.0794
     -2766.1564
   -641744.08647   -492484.40742  24370056.2394   24370054.2314
      2639.5634
 -10510825.89349  -8175502.43746  22302291.8254   22302284.1224
      1738.8594
  -3757630.80349  -2921108.05547  21488641.5284   21488636.9504
     -1906.0314
 -16192564.52649 -12609642.64047  21178982.4194   21178977.0794
      1342.6414
 04  9 10 17 12 45.0010000  0  6G 1G11G16G23G25G20
  -8604079.71949  -6699163.15147  20860619.2084   20860615.7984
      -408.9534
   3782967.39549   2952042.22145  22751733.4584   22751729.5244
     -2772.4844
   -681318.47846   -523321.55742  24362525.9664   24362523.3064
      2637.1094
 -10536878.09249  -8195802.83146  22297333.8564   22297326.6494
      1734.8284
  -3728981.86149  -2898784.21947  21494093.0754   21494088.7824
     -1913.7344
 -16212653.46849 -12625296.36847  21175159.6924   21175154.3604
      1335.8754
 04  9 10 17 13  0.0010000  0  6G 1G11G16G23G25G20
  -8597908.44249  -6694354.37147  20861793.7004   20861789.6734
      -413.7814
   3824600.37649   2984483.49345  22759655.5914   22759652.0134
     -2778.5004
   -720857.63847   -554131.22242  24355002.0604   24354999.2904
      2634.8444
 -10562870.93649  -8216056.97746  22292387.4814   22292380.5284
      1731.0314
  -3700219.33249  -2876371.87247  21499565.9744   21499562.0954
     -1921.2194
 -16232642.29649 -12640872.07747  21171355.6534   21171350.8884
      1329.2814
 04  9 10 17 13 15.0010000  0  6G 1G11G16G23G25G20
  -8591665.59249  -6689489.82047  20862981.4504   20862976.9814
      -418.5474
   3866323.86849   3016995.27945  22767595.3804   22767591.6304
     -2784.5164
   -760362.76946   -584914.42542  24347483.9584   24347481.9854
      2632.5314
 -10588806.01449  -8236266.11446  22287452.0604   22287446.1854
      1727.0944
  -3671345.09449  -2853872.48047  21505060.9664   21505056.5364
     -1928.6254
 -16252532.48749 -12656370.91847  21167570.6614   21167565.4744
      1322.7814
 04  9 10 17 13 30.0010000  0  6G 1G11G16G23G25G20
  -8585351.88649  -6684570.05047  20864182.9034   20864178.6384
      -423.3594
   3908136.88949   3049576.83545  22775552.5994   22775548.3604
     -2790.5784
   -799834.18346   -615671.32842  24339973.0284   24339970.2474
      2630.2344
 -10614683.87149  -8256430.66046  22282527.6924   22282521.4934
      1723.2344
  -3642359.88749  -2831286.61347  21510576.3804   21510572.3764
     -1936.1094
 -16272324.40149 -12671793.18047  21163804.3174   21163799.8494
      1316.1254
 04  9 10 17 13 45.0010000  0  6G 1G11G16G23G25G20
  -8578965.15649  -6679593.38647  20865398.1064   20865394.1144
      -428.1414
   3950041.32349   3082229.61345  22783526.5994   22783522.4544
     -2796.5004
   -839269.27847   -646399.94942  24332468.7784   24332466.0244
      2627.9064
 -10640502.40949  -8276548.98446  22277614.2944   22277608.2394
      1719.3284
  -3613261.91149  -2808612.88347  21516113.6854   21516108.9034
     -1943.4844
 -16292015.63849 -12687137.00447  21160057.4814   21160052.3294
      1309.3914
 04  9 10 17 14  0.0010000  0  6G 1G11G16G23G25G20
  -8572505.18949  -6674559.65247  20866627.2394   20866623.4274
      -432.8444
   3992037.05149   3114953.53445  22791517.6224   22791514.2084
     -2802.4064
   -878667.35547   -677099.73042  24324971.5674   24324968.4424
      2625.5164
 -10666261.18349  -8296620.74646  22272712.7084   22272706.7474
      1715.5164
  -3584051.07749  -2785851.19847  21521672.1144   21521668.1064
     -1950.8754
 -16311605.54149 -12702401.86247  21156329.4894   21156324.8104
      1302.9064
 04  9 10 17 14 15.0010000  0  6G 1G11G16G23G25G20
  -8565971.85449  -6669468.74347  20867870.9744   20867867.2674
      -437.9844
   4034123.94949   3147748.48545  22799526.7864   22799523.3414
     -2808.7974
   -918027.88447   -707770.22742  24317481.0524   24317478.3024
      2622.8444
 -10691959.98949  -8316645.77946  22267822.4744   22267815.9074
      1711.2194
  -3554727.36949  -2763001.57247  21527252.5754   21527247.8644
     -1958.6874
 -16331093.74049 -12717587.47447  21152621.0364   21152616.3604
      1295.8134
 04  9 10 17 14 30.0010000  0  6G 1G11G16G23G25G20
  -8559366.64449  -6664321.83247  20869128.0834   20869124.2004
      -442.7034
   4076300.14949   3180613.03345  22807552.6144   22807549.2244
     -2814.6414
   -957351.87647   -738412.26942  24309998.3024   24309995.2244
      2620.4844
 -10717600.20549  -8336625.15746  22262943.6694   22262936.3684
      1707.4534
  -3525292.46249  -2740065.29447  21532853.7244   21532849.5094
     -1966.0004
 -16350481.38949 -12732694.72847  21148931.6384   21148926.4544
      1289.2344
 04  9 10 17 14 45.0010000  0  6G 1G11G16G23G25G20
  -8552690.34049  -6659119.53247  20870398.4744   20870394.7474
      -447.4534
   4118564.69749   3213546.42645  22815595.6774   22815591.7314
     -2820.6254
   -996639.73547   -769026.12042  24302522.4194   24302519.2314
      2617.8914
 -10743182.61149  -8356559.48446  22258075.1304   22258068.0674
      1703.5314
  -3495747.54149  -2717043.28547  21538476.0914   21538471.6384
     -1973.3754
 -16369769.00649 -12747724.04247  21145261.0914   21145256.2044
      1282.4844
 04  9 10 17 15  0.0010000  0  6G 1G11G16G23G25G20
  -8545941.60349  -6653860.77747  20871682.4814   20871678.6224
      -452.2974
   4160918.85949   3246549.65145  22823655.3494   22823651.2824
     -2826.5314
  -1035889.70747   -799610.50842  24295052.7164   24295050.4504
      2615.3594
 -10768705.76249  -8376447.64346  22253218.1774   22253211.4784
      1699.5784
  -3466091.25949  -2693934.50747  21544119.4504   21544114.4354
     -1980.7814
 -16388955.04049 -12762674.19047  21141610.2554   21141605.6924
      1275.7194
 04  9 10 17 15 15.0010000  0  6G 1G11G16G23G25G20
  -8539119.48649  -6648544.84647  20872980.5604   20872976.8564
      -457.3124
   4203362.95848   3279622.95845  22831731.9894   22831728.3454
     -2832.6414
  -1075100.25747   -830164.15142  24287591.7634   24287588.5714
      2612.6254
 -10794168.53949  -8396288.74746  22248372.4894   22248366.3064
      1695.4064
  -3436322.87949  -2670738.37947  21549784.4274   21549779.8994
     -1988.3284
 -16408038.14749 -12777544.13947  21137979.0214   21137973.9894
      1268.6724
 04  9 10 17 15 30.0010000  0  6G 1G11G16G23G25G20
  -8532224.86349  -6643172.41547  20874292.5834   20874288.1614
      -461.9844
   4245895.94449   3312765.53745  22839825.4584   22839822.0174
     -2838.4224
  -1114271.86846   -860687.43542  24280137.3644   24280134.7204
      2610.1884
 -10819571.91649  -8416083.56946  22243538.8724   22243532.1614
      1691.7034
  -3406443.28349  -2647455.59347  21555470.2394   21555465.8454
     -1995.6094
 -16427018.87449 -12792334.32247  21134367.1384   21134362.4034
      1262.0314
 04  9 10 17 15 45.0010000  0  6G 1G11G16G23G25G20
  -8525259.27249  -6637744.69347  20875618.3964   20875613.9034
      -466.8594
   4288516.08848   3345976.00445  22847936.2634   22847932.4424
     -2844.3284
  -1153405.59247   -891181.18842  24272690.2784   24272686.7714
      2607.4694
 -10844917.17149  -8435833.10646  22238715.8174   22238709.0634
      1687.6254
  -3376454.33349  -2624087.58847  21561176.9974   21561172.7514
     -2003.0004
 -16445898.43449 -12807045.65647  21130774.4274   21130769.4544
      1255.2194
 04  9 10 17 16  0.0010000  0  6G 1G11G16G23G25G20
  -8518222.90049  -6632261.81047  20876957.2164   20876952.7164
      -471.3754
   4331223.01949   3379254.10445  22856063.5604   22856059.5564
     -2849.9374
  -1192501.20347   -921645.31242  24265251.8724   24265248.3134
      2605.1884
 -10870204.30749  -8455537.34546  22233903.7084   22233897.5564
      1683.9534
  -3346356.39349  -2600634.66147  21566904.4744   21566899.7394
     -2010.0314
 -16464676.65349 -12821678.03847  21127201.2084   21127195.9234
      1248.5944
 04  9 10 17 16 15.0010000  0  6G 1G11G16G23G25G20
  -8511116.80449  -6626724.59847  20878309.7314   20878305.4234
      -476.1874
   4374015.19449   3412598.63045  22864206.2394   22864202.2824
     -2855.7344
  -1231559.30747   -952080.16842  24257817.7864   24257815.5134
      2602.6094
 -10895434.45049  -8475197.18446  22229102.9034   22229095.9584
      1680.0314
  -3316150.72849  -2577097.79147  21572652.4894   21572648.0604
     -2017.3284
 -16483354.31249 -12836232.05847  21123646.7084   21123641.8924
      1241.7974
 04  9 10 17 16 30.0010000  0  6G 1G11G16G23G25G20
  -8503939.77349  -6621132.11447  20879675.3964   20879671.1224
      -480.9374
   4416893.72249   3446010.44945  22872365.7714   22872362.0214
     -2861.5164
  -1270578.29447   -982484.51142  24250392.7714   24250390.8994
      2599.8754
 -10920606.27449  -8494811.57746  22224312.6384   22224306.1384
      1676.0784
  -3285836.31949  -2553476.19047  21578421.0994   21578416.5244
     -2024.6564
 -16501929.95049 -12850706.58647  21120111.9504   21120107.2784
      1234.8914
 04  9 10 17 16 45.0010000  0  6G 1G11G16G23G25G20
  -8496689.27449  -6615482.38847  20881054.9584   20881050.9934
      -485.8444
   4459860.80549   3479491.27244  22880542.3884   22880537.7354
     -2867.3914
  -1309555.17947  -1012856.06542  24242974.8564   24242973.4704
      2597.1564
 -10945717.12249  -8514378.45346  22219533.8254   22219527.8494
      1672.0474
  -3255410.84349  -2529768.03747  21584210.5054   21584206.0094
     -2032.0944
 -16520400.74649 -12865099.40747  21116597.3104   21116592.4114
      1227.9064
 04  9 10 17 17  0.0010000  0  6G 1G11G16G23G25G20
  -8489365.28549  -6609775.38547  20882448.5054   20882444.4384
      -490.7504
   4502916.21149   3513040.93245  22888735.2714   22888731.7124
     -2873.2664
  -1348489.47447  -1043194.42542  24235567.0284   24235564.3994
      2594.1724
 -10970766.84349  -8533897.69946  22214766.9814   22214760.8604
      1667.9534
  -3224874.51349  -2505973.51147  21590021.4194   21590017.1814
     -2039.3914
 -16538766.44349 -12879410.33947  21113102.5214   21113097.4464
      1220.8754
 04  9 10 17 17 15.0010000  0  6G 1G11G16G23G25G20
  -8481970.47549  -6604013.20147  20883855.4664   20883851.6614
      -495.4374
   4546056.85649   3546656.97345  22896945.1694   22896941.3764
     -2878.9844
  -1387383.32147  -1073501.29742  24228165.3724   24228163.6344
      2591.5474
 -10995758.03849  -8553371.33846  22210011.4814   22210005.0134
      1664.1094
  -3194230.06349  -2482094.73247  21595853.0444   21595848.4274
     -2046.6414
 -16557029.22949 -12893641.07247  21109626.5674   21109622.1614
      1213.9534
 04  9 10 17 17 30.0010000  0  6G 1G11G16G23G25G20
  -8474504.66949  -6598195.69647  20885276.5674   20885272.7594
      -500.0474
   4589282.82349   3580339.52745  22905170.4424   22905166.6964
     -2884.6254
  -1426236.09047  -1103776.11443  24220772.2864   24220769.9664
      2588.8914
 -11020690.41949  -8572799.16246  22205266.6464   22205260.4074
      1660.2194
  -3163477.48049  -2458131.68447  21601705.3414   21601701.1304
     -2053.7194
 -16575188.65349 -12907791.26947  21106171.1694   21106166.6734
      1207.2664
 04  9 10 17 17 45.0010000  0  6G 1G11G16G23G25G20
  -8466964.99949  -6592320.63147  20886711.5284   20886707.7084
      -505.0004
   4632596.66149   3614090.54145  22913412.9584   22913408.4934
     -2890.3594
  -1465044.56447  -1134016.45442  24213387.0364   24213384.3534
      2585.9224
 -11045560.98449  -8592178.80646  22200534.1144   22200527.6814
      1656.0944
  -3132614.12649  -2434082.33748  21607578.5444   21607574.0604
     -2061.1094
 -16593241.52349 -12921858.43947  21102735.9504   21102731.2394
      1200.0944
 04  9 10 17 18  0.0010000  0  6G 1G11G16G23G25G20
  -8459356.73949  -6586392.12447  20888159.3104   20888154.9664
      -509.4224
   4675992.88349   3647905.75144  22921670.9424   22921666.8804
     -2895.7344
  -1503813.50747  -1164226.00342  24206009.6224   24206006.6184
      2583.3444
 -11070374.96149  -8611514.35146  22195812.3494   22195805.8174
      1652.4534
  -3101645.38449  -2409950.85747  21613471.6924   21613467.0174
     -2068.0314
 -16611192.85249 -12935846.47647  21099319.8564   21099314.9584
      1193.4224
 04  9 10 17 18 15.0010000  0  6G 1G11G16G23G25G20
  -8451678.09149  -6580408.76747  20889620.6924   20889616.1884
      -514.0004
   4719472.90848   3681786.25345  22929944.6694   22929940.7434
     -2901.2194
  -1542540.81447  -1194403.07742  24198639.9504   24198636.9154
      2580.6254
 -11095130.54149  -8630804.40046  22191101.7554   22191095.5634
      1648.6094
  -3070569.69949  -2385736.05248  21619385.0524   21619380.4504
     -2075.0944
 -16629040.54449 -12949753.77047  21095923.7004   21095918.7284
      1186.5634
 04  9 10 17 18 30.0010000  0  6G 1G11G16G23G25G20
  -8443929.22349  -6574370.71047  20891095.0284   20891090.4114
      -519.1094
   4763036.26448   3715731.70944  22938234.6694   22938230.8644
     -2907.2504
  -1581226.02047  -1224547.32842  24191278.3724   24191274.8724
      2577.3444
 -11119827.69649  -8650048.92746  22186401.4974   22186395.4584
      1644.3284
  -3039387.49649  -2361438.25847  21625318.6224   21625314.1814
     -2082.6254
 -16646784.48549 -12963580.22347  21092547.1224   21092542.3844
      1179.2504
 04  9 10 17 18 45.0010000  0  6G 1G11G16G23G25G20
  -8436103.92749  -6568273.07847  20892584.2164   20892579.9544
      -524.2974
   4806688.93349   3749746.75245  22946541.9194   22946537.7084
     -2913.2034
  -1619862.48647  -1254653.62442  24183925.7714   24183922.6614
      2574.0944
 -11144460.26549  -8669243.12046  22181714.0754   22181708.1924
      1639.9694
  -3008092.64349  -2337052.65847  21631274.0364   21631269.2164
     -2090.1414
 -16664418.18849 -12977320.75747  21089191.5604   21089186.6924
      1171.8284
 04  9 10 17 19  0.0010000  0  6G 1G11G16G23G25G20
  -8428204.62949  -6562117.77547  20894087.4274   20894083.8844
      -529.0784
   4850428.23849   3783829.30545  22954865.3884   22954861.0524
     -2918.7664
  -1658452.21147  -1284723.55242  24176583.1854   24176579.3294
      2571.1724
 -11169030.38849  -8688388.66146  22177038.2554   22177032.3844
      1636.0004
  -2976687.77549  -2312581.35347  21637250.0054   21637245.8994
     -2097.3124
 -16681943.74049 -12990977.03047  21085856.5914   21085851.7514
      1164.7974
 04  9 10 17 19 15.0010000  0  6G 1G11G16G23G25G20
  -8420234.89749  -6555907.61047  20895603.7784   20895599.5794
      -533.6254
   4894250.32749   3817976.36345  22963204.1304   22963200.2634
     -2924.2664
  -1696998.38047  -1314759.46442  24169247.1224   24169243.8994
      2568.2194
 -11193541.67849  -8707488.34846  22172374.1464   22172368.0604
      1632.1094
  -2945176.61649  -2288027.20948  21643246.6534   21643242.2554
     -2104.3124
 -16699364.36749 -13004551.53847  21082541.0054   21082536.3024
      1157.8444
 04  9 10 17 19 30.0010000  0  6G 1G11G16G23G25G20
  -8412194.48449  -6549642.36047  20897133.6064   20897130.3454
      -538.3124
   4938155.26449   3852187.97945  22971559.1304   22971555.3994
     -2929.6414
  -1735500.24047  -1344760.85242  24161920.6064   24161918.4034
      2565.4064
 -11217993.63449  -8726541.81046  22167721.2864   22167714.7784
      1628.2194
  -2913559.11249  -2263390.21047  21649262.9424   21649258.8994
     -2111.2974
 -16716679.40049 -13018043.77647  21079246.4584   21079241.5214
      1150.8754
 04  9 10 17 19 45.0010000  0  6G 1G11G16G23G25G20
  -8404082.80749  -6543321.57247  20898677.2714   20898673.4114
      -543.3754
   4982143.28548   3886464.32645  22979929.5834   22979926.1384
     -2935.4694
  -1773956.72047  -1374726.90043  24154602.9274   24154599.4704
      2562.1094
 -11242385.67449  -8745548.57646  22163080.0134   22163073.2824
      1623.9384
  -2881834.93849  -2238670.08948  21655299.8024   21655295.7744
     -2118.6724
 -16733888.04749 -13031453.10747  21075971.8964   21075967.1884
      1143.5164
 04  9 10 17 20  0.0010000  0  6G 1G11G16G23G25G20
  -8395898.72749  -6536944.38147  20900234.8174   20900230.9154
      -547.9224
   5026215.38649   3920806.19045  22988316.2784   22988313.0524
     -2940.8594
  -1812366.14147  -1404656.28742  24147294.3724   24147291.2474
      2559.0784
 -11266716.56449  -8764507.71146  22158449.9814   22158443.1304
      1620.0784
  -2850003.05049  -2213866.03348  21661357.3174   21661352.6774
     -2125.6254
 -16750988.84349 -13044778.40247  21072717.6224   21072712.6534
      1136.4844
